Mi HomeGuard - helping people stay independent longer.


Humidity


Temperature

Click to expand sensor readings.

Wed Aug 05 20:04:00

Lowest: 68%

s1 Conserv HT
Wed Aug 5 19:35, 78.1% 18.9c

Wed Aug 5 19:35, 78.1% 18.9c
Wed Aug 5 19:20, 78.1% 19.1c
Wed Aug 5 18:23, 77.5% 19.1c
Wed Aug 5 17:36, 77.2% 19.4c
Wed Aug 5 17:23, 77.2% 19.6c
Wed Aug 5 16:37, 76.8% 19.9c
Wed Aug 5 16:23, 77.3% 19.6c
Wed Aug 5 15:25, 76.5% 19.5c
Wed Aug 5 15:20, 76.8% 19.4c
Wed Aug 5 14:53, 77.0% 18.9c
Wed Aug 5 14:31, 75.7% 18.8c
Wed Aug 5 13:40, 74.3% 18.6c
Wed Aug 5 12:44, 74.4% 18.5c
Wed Aug 5 11:47, 74.6% 18.4c
Wed Aug 5 10:49, 75.3% 18.4c
Wed Aug 5 09:58, 76.5% 18.6c
Wed Aug 5 09:25, 73.9% 18.4c
Wed Aug 5 09:06, 74.0% 18.2c
Wed Aug 5 08:06, 74.1% 18.1c
Wed Aug 5 07:09, 72.5% 17.8c
Wed Aug 5 06:15, 72.6% 17.8c
Wed Aug 5 05:19, 72.6% 17.8c
Wed Aug 5 04:28, 72.9% 17.9c
Wed Aug 5 03:37, 73.0% 17.9c
Wed Aug 5 03:36, 72.8% 17.9c
Wed Aug 5 02:39, 72.9% 18.0c
Wed Aug 5 01:42, 72.8% 18.0c
Wed Aug 5 00:47, 73.3% 18.1c
Tue Aug 4 23:47, 73.9% 18.2c
Tue Aug 4 22:47, 72.6% 18.1c
Tue Aug 4 21:50, 73.1% 18.1c
Tue Aug 4 20:51, 74.2% 18.2c
Tue Aug 4 19:51, 76.3% 18.6c
Tue Aug 4 18:53, 75.7% 18.6c
Tue Aug 4 17:55, 72.5% 18.5c
Tue Aug 4 16:55, 71.0% 18.4c
Tue Aug 4 16:00, 72.2% 18.3c
Tue Aug 4 15:59, 71.8% 18.4c
Tue Aug 4 15:08, 69.1% 17.9c
Tue Aug 4 14:09, 68.2% 17.6c
Tue Aug 4 13:17, 68.1% 17.6c
Tue Aug 4 12:20, 68.0% 17.6c
Tue Aug 4 11:29, 67.8% 17.6c
Tue Aug 4 10:38, 68.0% 17.5c
Tue Aug 4 09:42, 68.5% 17.6c
Tue Aug 4 08:50, 68.0% 17.8c
Tue Aug 4 07:53, 68.7% 17.9c
Tue Aug 4 07:01, 68.4% 17.8c
Tue Aug 4 06:05, 68.7% 17.6c
Tue Aug 4 05:25, 64.3% 17.3c
Tue Aug 4 05:12, 64.2% 17.5c
Tue Aug 4 04:17, 64.3% 17.6c
Tue Aug 4 03:20, 64.1% 17.8c
Tue Aug 4 02:41, 64.0% 17.8c
Tue Aug 4 02:20, 64.0% 18.0c
Tue Aug 4 01:27, 64.2% 18.0c
Tue Aug 4 00:31, 64.7% 18.1c
Mon Aug 3 23:52, 65.1% 18.3c
Mon Aug 3 23:37, 65.3% 18.5c
Mon Aug 3 22:37, 67.2% 19.1c
Mon Aug 3 22:20, 66.4% 18.9c
Mon Aug 3 21:38, 62.1% 19.1c
Mon Aug 3 20:46, 60.3% 19.3c
Mon Aug 3 20:40, 63.5% 19.5c
Mon Aug 3 20:02, 64.0% 19.8c
Mon Aug 3 19:42, 63.2% 20.0c
Mon Aug 3 18:42, 62.2% 20.2c
Mon Aug 3 18:30, 61.3% 20.3c
Mon Aug 3 17:42, 61.4% 20.6c
Mon Aug 3 16:56, 60.1% 20.8c
Mon Aug 3 16:47, 62.3% 21.1c
Mon Aug 3 16:13, 61.5% 21.3c
Mon Aug 3 15:52, 61.5% 20.8c
Mon Aug 3 15:50, 61.4% 20.8c
Mon Aug 3 14:54, 61.9% 21.3c
Mon Aug 3 13:56, 60.6% 21.7c
Mon Aug 3 13:01, 58.0% 21.3c
Mon Aug 3 12:58, 56.9% 21.5c
Mon Aug 3 12:48, 55.6% 21.9c
Mon Aug 3 12:18, 60.6% 22.4c
Mon Aug 3 12:00, 60.9% 22.1c
Mon Aug 3 11:25, 59.5% 21.9c
Mon Aug 3 11:19, 58.4% 22.4c
Mon Aug 3 11:15, 57.3% 22.9c
Mon Aug 3 11:11, 56.3% 23.4c
Mon Aug 3 11:09, 55.1% 23.9c
Mon Aug 3 11:08, 55.2% 24.0c
Mon Aug 3 11:06, 57.9% 24.4c
Mon Aug 3 11:00, 64.3% 24.8c
Mon Aug 3 10:53, 64.2% 25.4c
Mon Aug 3 10:46, 63.8% 25.9c
Mon Aug 3 10:41, 63.6% 26.4c
Mon Aug 3 10:28, 64.3% 26.9c
Mon Aug 3 10:24, 64.8% 26.4c
Mon Aug 3 10:20, 64.8% 25.9c
Mon Aug 3 10:14, 65.1% 25.4c
Mon Aug 3 10:13, 65.4% 25.2c
Mon Aug 3 09:59, 64.8% 24.8c
Mon Aug 3 09:53, 64.4% 25.3c
Mon Aug 3 09:48, 63.9% 25.9c
Mon Aug 3 09:42, 63.3% 26.4c
Mon Aug 3 09:26, 62.4% 26.9c
Mon Aug 3 09:20, 62.5% 26.3c
Mon Aug 3 09:20, 62.5% 26.4c
Mon Aug 3 09:15, 62.3% 25.8c
Mon Aug 3 09:10, 62.4% 25.3c
Mon Aug 3 09:05, 62.5% 24.8c
Mon Aug 3 09:00, 62.7% 24.3c
Mon Aug 3 08:56, 62.8% 23.8c
Mon Aug 3 08:51, 63.1% 23.3c
Mon Aug 3 08:46, 63.3% 22.8c
Mon Aug 3 08:42, 63.5% 22.2c
Mon Aug 3 08:38, 63.8% 21.7c
Mon Aug 3 08:33, 64.0% 21.2c
Mon Aug 3 08:29, 64.3% 20.7c
Mon Aug 3 08:28, 64.4% 20.5c
Mon Aug 3 08:25, 64.6% 20.2c
Mon Aug 3 08:22, 65.1% 19.7c
Mon Aug 3 08:18, 65.4% 19.2c
Mon Aug 3 08:14, 65.6% 18.6c
Mon Aug 3 08:08, 65.4% 18.1c
Mon Aug 3 08:02, 65.2% 17.6c
Mon Aug 3 07:46, 65.4% 17.1c
Mon Aug 3 07:36, 65.3% 17.0c
Mon Aug 3 06:41, 63.6% 16.4c
Mon Aug 3 05:42, 63.6% 16.3c
Mon Aug 3 04:50, 63.7% 16.5c
Mon Aug 3 03:59, 63.5% 16.5c
Mon Aug 3 03:06, 64.0% 16.6c
Mon Aug 3 03:04, 64.0% 16.6c
Mon Aug 3 02:09, 64.2% 17.0c
Mon Aug 3 01:16, 64.2% 17.4c
Mon Aug 3 00:20, 64.2% 17.6c
Sun Aug 2 23:29, 64.5% 17.6c
Sun Aug 2 23:20, 64.5% 17.6c
Sun Aug 2 22:36, 65.4% 17.8c
Sun Aug 2 21:51, 64.1% 18.1c
Sun Aug 2 21:44, 64.1% 18.2c
Sun Aug 2 20:53, 64.5% 18.7c
Sun Aug 2 19:53, 65.2% 18.9c
Sun Aug 2 19:30, 64.6% 18.6c
Sun Aug 2 19:02, 65.6% 19.2c
Sun Aug 2 19:02, 65.6% 19.1c
Sun Aug 2 18:08, 63.2% 19.6c
Sun Aug 2 18:07, 63.0% 19.6c
Sun Aug 2 17:09, 63.7% 20.1c
Sun Aug 2 16:26, 64.3% 20.1c
Sun Aug 2 16:16, 64.4% 20.4c
Sun Aug 2 15:22, 63.9% 20.5c
Sun Aug 2 14:20, 64.4% 20.7c
Sun Aug 2 13:45, 63.5% 21.2c
Sun Aug 2 13:38, 62.0% 21.7c
Sun Aug 2 13:38, 61.8% 21.7c
Sun Aug 2 13:25, 67.0% 22.2c
Sun Aug 2 13:09, 67.4% 21.7c
Sun Aug 2 12:40, 67.9% 20.7c
Sun Aug 2 12:24, 67.4% 21.1c
Sun Aug 2 12:06, 67.0% 21.7c
Sun Aug 2 11:59, 67.7% 21.2c
Sun Aug 2 11:55, 67.9% 20.6c
Sun Aug 2 11:46, 66.7% 19.9c
Sun Aug 2 10:47, 66.2% 19.8c
Sun Aug 2 09:49, 64.1% 20.2c
Sun Aug 2 08:52, 64.0% 20.2c
Sun Aug 2 08:25, 64.5% 20.1c
Sun Aug 2 08:03, 65.6% 19.6c
Sun Aug 2 07:56, 66.5% 19.2c
Sun Aug 2 07:49, 66.8% 19.1c
Sun Aug 2 07:30, 67.0% 18.6c
Sun Aug 2 07:05, 67.3% 18.1c
Sun Aug 2 06:11, 67.3% 18.1c
Sun Aug 2 05:24, 67.5% 18.1c
Sun Aug 2 05:15, 67.5% 18.1c
Sun Aug 2 04:15, 67.6% 18.3c
Sun Aug 2 03:15, 67.2% 18.5c
Sun Aug 2 02:30, 66.9% 18.6c
Sun Aug 2 02:21, 66.8% 18.6c
Sun Aug 2 01:24, 66.5% 18.9c
Sun Aug 2 00:33, 66.2% 19.0c
Sat Aug 1 23:59, 65.9% 19.1c
Sat Aug 1 23:35, 65.9% 19.1c
Sat Aug 1 22:42, 65.3% 19.4c
Sat Aug 1 22:07, 65.6% 19.6c
Sat Aug 1 21:43, 65.5% 19.8c
Sat Aug 1 21:10, 66.2% 20.1c
Sat Aug 1 20:45, 66.4% 20.3c
Sat Aug 1 19:53, 65.5% 20.5c
Sat Aug 1 19:21, 63.6% 20.6c
Sat Aug 1 18:56, 62.5% 20.9c
Sat Aug 1 18:23, 62.2% 21.1c
Sat Aug 1 17:57, 64.1% 21.4c
Sat Aug 1 17:00, 63.3% 21.8c
Sat Aug 1 16:05, 61.8% 21.5c
Sat Aug 1 15:10, 63.0% 21.6c
Sat Aug 1 14:13, 63.2% 21.6c
Sat Aug 1 14:12, 63.1% 21.6c
Sat Aug 1 13:17, 60.7% 22.1c
Sat Aug 1 13:04, 61.6% 22.1c
Sat Aug 1 12:20, 62.9% 21.6c
Sat Aug 1 12:14, 66.0% 21.6c
Sat Aug 1 11:28, 66.6% 21.1c
Sat Aug 1 11:20, 68.0% 20.8c
Sat Aug 1 11:16, 68.9% 20.6c
Sat Aug 1 10:20, 71.6% 20.1c
Sat Aug 1 09:48, 71.3% 20.1c
Sat Aug 1 09:23, 71.2% 19.5c
Sat Aug 1 09:22, 71.3% 19.6c
Sat Aug 1 08:29, 75.2% 18.9c
Sat Aug 1 07:32, 76.3% 19.0c
Sat Aug 1 06:34, 77.9% 18.7c
Sat Aug 1 04:41, 76.8% 18.9c
Sat Aug 1 03:43, 76.7% 19.0c
Sat Aug 1 02:44, 76.5% 19.1c
Sat Aug 1 02:37, 76.4% 19.1c
Sat Aug 1 01:51, 75.6% 19.3c
Sat Aug 1 00:54, 75.5% 19.5c
Sat Aug 1 00:20, 75.0% 19.6c
Fri Jul 31 23:54, 75.0% 19.8c
Fri Jul 31 22:58, 74.6% 20.0c
Fri Jul 31 22:38, 75.0% 20.1c
Fri Jul 31 22:06, 75.2% 20.4c
Fri Jul 31 21:39, 74.6% 20.6c
Fri Jul 31 21:11, 73.5% 21.0c
Fri Jul 31 21:01, 72.9% 21.1c
Fri Jul 31 20:12, 70.8% 21.5c
Fri Jul 31 19:44, 69.7% 21.6c
Fri Jul 31 19:15, 66.5% 21.9c
Fri Jul 31 18:59, 64.9% 22.1c
Fri Jul 31 18:20, 64.5% 22.6c
Fri Jul 31 17:44, 63.9% 22.6c
Fri Jul 31 17:20, 62.6% 22.8c
Fri Jul 31 17:00, 61.5% 23.1c
Fri Jul 31 16:23, 59.9% 23.6c
Fri Jul 31 15:30, 58.4% 23.7c
Fri Jul 31 15:07, 58.6% 23.6c
Fri Jul 31 14:50, 56.3% 24.1c
Fri Jul 31 14:40, 55.4% 24.7c
Fri Jul 31 14:34, 54.7% 25.2c
Fri Jul 31 14:30, 54.3% 25.6c
Fri Jul 31 14:28, 53.7% 25.7c
Fri Jul 31 14:22, 53.1% 26.2c
Fri Jul 31 14:12, 50.5% 26.7c
Fri Jul 31 13:52, 51.0% 27.2c
Fri Jul 31 13:46, 50.3% 27.7c
Fri Jul 31 13:42, 49.2% 28.3c
Fri Jul 31 13:39, 48.5% 28.8c
Fri Jul 31 13:35, 48.9% 29.5c
Fri Jul 31 13:21, 48.0% 29.3c
Fri Jul 31 13:16, 47.0% 29.8c
Fri Jul 31 12:59, 47.7% 30.3c
Fri Jul 31 12:48, 47.8% 29.8c
Fri Jul 31 12:35, 49.3% 29.3c
Fri Jul 31 12:35, 49.1% 29.3c
Fri Jul 31 12:24, 51.0% 28.8c
Fri Jul 31 12:14, 51.6% 28.3c
Fri Jul 31 12:06, 52.8% 27.7c
Fri Jul 31 12:00, 54.1% 27.2c
Fri Jul 31 11:55, 54.9% 26.7c
Fri Jul 31 11:50, 55.8% 26.2c
Fri Jul 31 11:46, 57.4% 25.6c
Fri Jul 31 11:43, 59.0% 25.1c
Fri Jul 31 11:41, 60.0% 24.7c
Fri Jul 31 11:40, 60.1% 24.6c
Fri Jul 31 11:38, 61.5% 24.1c
Fri Jul 31 11:23, 63.8% 23.6c
Fri Jul 31 11:13, 65.2% 23.0c
Fri Jul 31 11:00, 66.3% 22.5c
Fri Jul 31 10:51, 68.1% 22.0c
Fri Jul 31 10:43, 68.5% 21.5c
Fri Jul 31 10:40, 68.2% 21.4c
Fri Jul 31 10:27, 68.4% 21.0c
Fri Jul 31 09:41, 67.5% 20.2c
Fri Jul 31 09:19, 68.0% 20.5c
Fri Jul 31 08:46, 67.0% 21.0c
Fri Jul 31 08:45, 67.0% 21.0c
Fri Jul 31 08:38, 68.3% 20.5c
Fri Jul 31 08:31, 69.0% 20.0c
Fri Jul 31 08:25, 69.4% 19.5c
Fri Jul 31 08:17, 70.2% 19.0c
Fri Jul 31 07:52, 68.2% 18.5c
Fri Jul 31 07:51, 68.2% 18.4c
Fri Jul 31 07:39, 68.5% 17.9c
Fri Jul 31 06:53, 69.2% 17.1c
Fri Jul 31 05:59, 68.9% 17.0c
Fri Jul 31 05:08, 69.1% 17.1c
Fri Jul 31 04:16, 69.2% 17.3c
Fri Jul 31 03:17, 69.4% 17.4c
Fri Jul 31 03:02, 69.5% 17.4c
Fri Jul 31 02:26, 69.5% 17.5c
Fri Jul 31 01:31, 69.8% 17.8c
Fri Jul 31 00:33, 69.8% 17.9c
Thu Jul 30 23:47, 70.1% 17.9c
Thu Jul 30 23:42, 70.2% 18.1c
Thu Jul 30 22:48, 70.9% 18.2c
Thu Jul 30 21:52, 71.9% 18.5c
Thu Jul 30 21:41, 72.2% 18.5c
Thu Jul 30 20:54, 73.7% 18.8c
Thu Jul 30 20:01, 78.0% 18.7c
Thu Jul 30 19:34, 76.8% 19.0c
Thu Jul 30 19:06, 75.1% 19.3c
Thu Jul 30 18:55, 74.3% 19.5c
Thu Jul 30 18:21, 71.3% 20.0c
Thu Jul 30 18:10, 65.2% 20.3c
Thu Jul 30 18:08, 65.2% 20.3c
Thu Jul 30 17:11, 65.2% 20.5c
Thu Jul 30 16:14, 65.8% 20.6c
Thu Jul 30 15:16, 66.5% 20.6c
Thu Jul 30 14:25, 67.5% 20.8c
Thu Jul 30 14:25, 67.6% 20.8c
Thu Jul 30 14:15, 68.3% 20.3c
Thu Jul 30 14:09, 68.8% 19.8c
Thu Jul 30 14:02, 69.3% 19.3c
Thu Jul 30 13:43, 68.4% 18.8c
Thu Jul 30 13:35, 68.2% 18.7c
Thu Jul 30 13:08, 68.6% 18.3c
Thu Jul 30 12:38, 69.0% 18.0c
Thu Jul 30 11:39, 69.8% 17.9c
Thu Jul 30 10:43, 71.9% 17.8c
Thu Jul 30 10:36, 71.8% 17.8c
Thu Jul 30 09:50, 66.3% 17.2c
Thu Jul 30 09:48, 64.4% 17.2c
Thu Jul 30 08:53, 63.2% 16.9c
Thu Jul 30 07:59, 62.5% 16.7c
Thu Jul 30 07:05, 61.4% 16.6c
Thu Jul 30 06:14, 60.7% 16.7c
Thu Jul 30 05:28, 60.2% 16.8c
Thu Jul 30 05:21, 60.4% 16.8c
Thu Jul 30 04:26, 59.6% 17.0c
Thu Jul 30 03:35, 59.5% 17.1c
Thu Jul 30 02:40, 59.4% 17.3c
Thu Jul 30 01:47, 59.1% 17.3c
Thu Jul 30 01:35, 59.0% 17.3c
Thu Jul 30 00:54, 58.6% 17.5c
Thu Jul 30 00:25, 57.8% 17.8c
Wed Jul 29 23:55, 57.8% 18.0c
Wed Jul 29 23:01, 57.2% 18.3c
Wed Jul 29 22:43, 57.1% 18.3c
Wed Jul 29 21:32, 56.8% 18.8c
Wed Jul 29 21:06, 56.9% 19.2c
Wed Jul 29 20:48, 57.3% 19.3c
Wed Jul 29 20:06, 55.8% 19.8c
Wed Jul 29 20:01, 55.8% 19.9c
Wed Jul 29 19:12, 55.8% 20.4c
Wed Jul 29 18:31, 54.7% 20.4c
Wed Jul 29 18:14, 54.9% 20.7c
Wed Jul 29 17:47, 54.3% 20.9c
Wed Jul 29 17:22, 54.3% 21.4c
Wed Jul 29 17:21, 54.3% 21.4c
Wed Jul 29 17:09, 55.0% 21.9c
Wed Jul 29 16:32, 60.9% 22.4c
Wed Jul 29 16:24, 60.6% 22.7c
Wed Jul 29 16:15, 60.5% 22.9c
Wed Jul 29 16:05, 60.4% 23.5c
Wed Jul 29 15:58, 59.4% 24.0c
Wed Jul 29 15:35, 59.5% 24.5c
Wed Jul 29 15:28, 59.0% 24.8c
Wed Jul 29 15:21, 59.1% 25.0c
Wed Jul 29 15:05, 58.1% 25.5c
Wed Jul 29 14:34, 57.3% 26.0c
Wed Jul 29 14:26, 57.4% 26.0c
Wed Jul 29 13:43, 57.6% 25.5c
Wed Jul 29 13:41, 57.6% 25.5c
Wed Jul 29 13:32, 57.9% 25.0c
Wed Jul 29 13:25, 58.0% 24.5c
Wed Jul 29 13:19, 58.5% 24.0c
Wed Jul 29 13:04, 58.7% 23.4c
Wed Jul 29 12:52, 59.4% 22.9c
Wed Jul 29 12:45, 59.5% 22.4c
Wed Jul 29 12:44, 59.4% 22.3c
Wed Jul 29 12:37, 59.7% 21.9c
Wed Jul 29 12:04, 60.0% 21.4c
Wed Jul 29 11:45, 60.2% 21.0c
Wed Jul 29 10:53, 60.4% 21.1c
Wed Jul 29 10:01, 58.6% 20.8c
Wed Jul 29 09:33, 60.8% 20.9c
Wed Jul 29 09:10, 59.7% 21.4c
Wed Jul 29 09:02, 60.7% 20.8c
Wed Jul 29 08:38, 60.5% 20.9c
Wed Jul 29 08:29, 61.5% 20.4c
Wed Jul 29 08:21, 62.5% 19.9c
Wed Jul 29 08:14, 63.3% 19.4c
Wed Jul 29 08:08, 63.5% 18.9c
Wed Jul 29 08:07, 63.2% 18.8c
Wed Jul 29 08:00, 63.1% 18.3c
Wed Jul 29 07:52, 60.7% 17.8c
Wed Jul 29 07:41, 60.8% 17.3c
Wed Jul 29 07:28, 61.3% 16.7c
Wed Jul 29 07:09, 61.3% 16.3c
Wed Jul 29 06:59, 61.2% 16.2c
Wed Jul 29 06:18, 61.3% 16.4c
Wed Jul 29 05:18, 60.7% 16.6c
Wed Jul 29 04:21, 60.5% 16.5c
Wed Jul 29 03:27, 61.0% 16.7c
Wed Jul 29 03:15, 60.4% 16.7c
Wed Jul 29 02:30, 60.1% 16.9c
Wed Jul 29 01:39, 59.7% 17.0c
Wed Jul 29 00:41, 60.1% 17.1c
Tue Jul 28 23:40, 59.9% 17.3c
Tue Jul 28 23:40, 60.0% 17.2c
Tue Jul 28 22:48, 60.6% 17.6c
Tue Jul 28 21:49, 61.4% 17.8c
Tue Jul 28 21:48, 60.5% 17.8c
Tue Jul 28 20:57, 59.0% 18.3c
Tue Jul 28 20:50, 59.1% 18.4c
Tue Jul 28 20:04, 59.0% 18.8c
Tue Jul 28 19:50, 58.8% 18.9c
Tue Jul 28 18:54, 58.8% 19.3c
Tue Jul 28 18:52, 58.6% 19.3c
Tue Jul 28 17:58, 58.4% 19.6c
Tue Jul 28 17:04, 58.0% 19.6c
Tue Jul 28 16:37, 57.8% 19.8c
Tue Jul 28 16:04, 57.2% 20.1c
Tue Jul 28 15:43, 52.6% 20.3c
Tue Jul 28 15:08, 54.1% 21.1c
Tue Jul 28 14:13, 52.8% 20.8c
Tue Jul 28 13:19, 55.0% 21.0c
Tue Jul 28 12:42, 56.2% 20.8c
Tue Jul 28 12:27, 58.5% 21.3c
Tue Jul 28 12:24, 59.1% 21.3c
Tue Jul 28 11:51, 60.8% 21.8c
Tue Jul 28 11:37, 65.5% 22.3c
Tue Jul 28 11:30, 66.1% 22.9c
Tue Jul 28 11:29, 66.0% 22.9c
Tue Jul 28 11:08, 67.3% 23.4c
Tue Jul 28 11:00, 67.4% 22.9c
Tue Jul 28 10:51, 67.3% 22.4c
Tue Jul 28 10:38, 67.8% 22.0c
Tue Jul 28 10:34, 67.8% 21.8c
Tue Jul 28 10:27, 67.5% 21.3c
Tue Jul 28 10:22, 67.7% 20.8c
Tue Jul 28 10:12, 67.9% 20.3c
Tue Jul 28 10:07, 68.5% 19.8c
Tue Jul 28 10:03, 68.2% 19.3c
Tue Jul 28 09:40, 67.8% 19.1c
Tue Jul 28 08:47, 67.8% 19.0c
Tue Jul 28 08:23, 67.6% 18.8c
Tue Jul 28 08:15, 66.2% 18.3c
Tue Jul 28 08:05, 67.0% 17.8c
Tue Jul 28 07:53, 67.5% 17.3c
Tue Jul 28 07:04, 68.0% 16.7c
Tue Jul 28 06:54, 68.1% 16.6c
Tue Jul 28 05:55, 70.3% 16.2c
Tue Jul 28 05:51, 70.3% 16.2c
Tue Jul 28 05:00, 69.3% 16.4c
Tue Jul 28 04:08, 69.3% 16.7c
Tue Jul 28 03:52, 69.0% 16.7c
Tue Jul 28 03:10, 69.1% 16.9c
Tue Jul 28 01:13, 69.2% 17.1c
Tue Jul 28 00:19, 69.4% 17.2c
Mon Jul 27 23:28, 69.4% 17.2c
Mon Jul 27 23:20, 69.6% 17.3c
Mon Jul 27 22:29, 69.2% 17.6c
Mon Jul 27 21:36, 69.4% 17.7c
Mon Jul 27 21:11, 69.6% 17.8c
Mon Jul 27 20:40, 69.7% 18.1c
Mon Jul 27 19:51, 69.1% 18.3c
Mon Jul 27 19:48, 69.2% 18.3c
Mon Jul 27 19:01, 71.2% 18.8c
Mon Jul 27 18:54, 71.3% 18.9c
Mon Jul 27 17:56, 73.7% 19.2c
Mon Jul 27 17:06, 72.5% 19.3c
Mon Jul 27 16:58, 72.4% 19.4c
Mon Jul 27 16:02, 73.2% 19.8c
Mon Jul 27 15:37, 73.0% 19.8c
Mon Jul 27 15:13, 73.8% 19.3c
Mon Jul 27 15:08, 74.0% 19.1c
Mon Jul 27 14:32, 74.9% 18.7c
Mon Jul 27 14:09, 75.7% 18.3c
Mon Jul 27 13:17, 77.6% 18.4c
Mon Jul 27 12:25, 77.4% 18.2c
Mon Jul 27 12:08, 76.3% 18.2c
Mon Jul 27 11:28, 71.0% 18.1c
Mon Jul 27 10:33, 70.6% 18.1c
Mon Jul 27 10:02, 70.3% 18.0c
Mon Jul 27 09:38, 70.4% 17.7c
Mon Jul 27 08:38, 67.7% 17.4c
Mon Jul 27 07:45, 68.0% 17.3c
Mon Jul 27 06:50, 66.9% 17.3c
Mon Jul 27 05:56, 66.6% 17.3c
Mon Jul 27 04:15, 66.5% 17.5c
Mon Jul 27 04:10, 66.5% 17.5c
Mon Jul 27 03:16, 66.2% 17.8c
Mon Jul 27 02:20, 66.3% 17.9c
Mon Jul 27 01:26, 66.7% 18.1c
Mon Jul 27 00:37, 66.1% 18.0c
Mon Jul 27 00:26, 66.3% 18.1c
Sun Jul 26 23:32, 66.3% 18.2c
Sun Jul 26 22:42, 66.2% 18.2c
Sun Jul 26 21:46, 66.4% 18.5c
Sun Jul 26 21:42, 66.4% 18.6c
Sun Jul 26 20:42, 67.0% 19.1c
Sun Jul 26 20:36, 67.1% 19.0c
Sun Jul 26 19:48, 67.9% 19.5c
Sun Jul 26 19:39, 67.7% 19.5c
Sun Jul 26 18:48, 67.4% 20.0c
Sun Jul 26 18:40, 66.8% 20.1c
Sun Jul 26 18:09, 67.8% 20.6c
Sun Jul 26 17:48, 69.2% 20.8c
Sun Jul 26 16:55, 69.3% 20.7c
Sun Jul 26 16:01, 68.3% 21.0c
Sun Jul 26 15:02, 65.6% 21.1c
Sun Jul 26 14:59, 65.5% 21.1c
Sun Jul 26 14:08, 67.1% 21.6c
Sun Jul 26 13:54, 67.7% 21.6c
Sun Jul 26 13:18, 69.9% 21.1c
Sun Jul 26 13:13, 70.5% 20.8c
Sun Jul 26 13:07, 70.6% 20.6c
Sun Jul 26 12:21, 65.8% 19.7c
Sun Jul 26 11:27, 65.4% 20.0c
Sun Jul 26 10:39, 65.9% 20.1c
Sun Jul 26 10:30, 67.2% 19.7c
Sun Jul 26 10:27, 67.3% 19.6c
Sun Jul 26 09:37, 67.2% 19.1c
Sun Jul 26 08:40, 67.6% 19.0c
Sun Jul 26 08:03, 67.2% 19.1c
Sun Jul 26 07:47, 68.0% 18.5c
Sun Jul 26 07:46, 68.0% 18.5c
Sun Jul 26 07:18, 68.9% 18.0c
Sun Jul 26 06:47, 69.2% 17.5c
Sun Jul 26 05:51, 69.6% 17.5c
Sun Jul 26 04:55, 69.7% 17.5c
Sun Jul 26 04:26, 69.9% 17.5c
Sun Jul 26 03:56, 70.3% 17.6c
Sun Jul 26 03:03, 70.5% 17.9c
Sun Jul 26 02:02, 70.9% 18.1c
Sun Jul 26 01:53, 70.9% 18.0c
Sun Jul 26 01:06, 70.8% 18.3c
Sun Jul 26 00:10, 70.6% 18.5c
Sat Jul 25 23:47, 70.6% 18.5c
Sat Jul 25 23:14, 70.5% 18.7c
Sat Jul 25 22:16, 70.1% 18.9c
Sat Jul 25 21:30, 69.6% 19.1c
Sat Jul 25 21:23, 69.5% 19.1c
Sat Jul 25 20:25, 69.1% 19.4c
Sat Jul 25 19:48, 69.3% 19.6c
Sat Jul 25 19:28, 69.7% 19.7c
Sat Jul 25 18:44, 69.7% 20.1c
Sat Jul 25 18:37, 69.7% 20.2c
Sat Jul 25 17:37, 70.3% 20.8c
Sat Jul 25 16:46, 70.0% 20.5c
Sat Jul 25 15:48, 70.0% 20.9c
Sat Jul 25 14:49, 69.5% 20.6c
Sat Jul 25 14:47, 69.5% 20.6c
Sat Jul 25 13:57, 69.6% 20.9c
Sat Jul 25 12:59, 70.3% 20.8c
Sat Jul 25 12:08, 71.2% 21.2c
Sat Jul 25 11:47, 71.6% 21.1c
Sat Jul 25 11:28, 72.0% 20.6c
Sat Jul 25 11:14, 72.5% 20.1c
Sat Jul 25 10:45, 72.8% 20.1c
Sat Jul 25 10:19, 73.5% 19.6c
Sat Jul 25 10:18, 73.6% 19.6c
Sat Jul 25 09:54, 69.5% 19.1c
Sat Jul 25 09:34, 69.2% 18.5c
Sat Jul 25 09:20, 68.8% 18.4c
Sat Jul 25 08:24, 68.1% 18.1c
Sat Jul 25 07:25, 67.3% 18.0c

s2 Liv-Room HT
Wed Aug 5 19:40, 71.2% 21.8c

Wed Aug 5 19:40, 71.2% 21.8c
Wed Aug 5 18:48, 71.0% 21.7c
Wed Aug 5 18:42, 69.6% 21.7c
Wed Aug 5 17:49, 67.1% 21.6c
Wed Aug 5 16:56, 68.0% 21.6c
Wed Aug 5 16:05, 68.2% 21.5c
Wed Aug 5 15:15, 66.6% 21.3c
Wed Aug 5 14:18, 67.6% 21.3c
Wed Aug 5 13:24, 69.0% 21.2c
Wed Aug 5 12:26, 67.2% 20.7c
Wed Aug 5 11:26, 67.2% 20.8c
Wed Aug 5 10:28, 67.7% 20.8c
Wed Aug 5 09:32, 67.3% 20.7c
Wed Aug 5 08:34, 65.7% 20.7c
Wed Aug 5 07:42, 65.7% 20.7c
Wed Aug 5 06:46, 64.6% 20.8c
Wed Aug 5 06:37, 64.5% 20.7c
Wed Aug 5 05:52, 65.0% 20.9c
Wed Aug 5 04:56, 64.3% 20.9c
Wed Aug 5 04:03, 63.9% 21.0c
Wed Aug 5 03:08, 64.5% 21.1c
Wed Aug 5 02:08, 63.5% 21.1c
Wed Aug 5 01:23, 62.8% 21.2c
Wed Aug 5 01:17, 62.9% 21.3c
Wed Aug 5 00:21, 62.9% 21.6c
Tue Aug 4 23:22, 63.1% 21.9c
Tue Aug 4 22:23, 64.1% 22.1c
Tue Aug 4 21:32, 64.6% 22.1c
Tue Aug 4 20:50, 65.0% 21.7c
Tue Aug 4 20:33, 64.6% 21.5c
Tue Aug 4 19:40, 64.0% 21.3c
Tue Aug 4 18:47, 64.1% 21.3c
Tue Aug 4 17:54, 62.2% 21.2c
Tue Aug 4 17:52, 62.2% 21.1c
Tue Aug 4 16:53, 62.7% 20.8c
Tue Aug 4 16:30, 63.1% 20.7c
Tue Aug 4 15:57, 63.0% 20.6c
Tue Aug 4 15:03, 64.1% 20.4c
Tue Aug 4 14:04, 64.3% 20.2c
Tue Aug 4 13:38, 63.3% 20.2c
Tue Aug 4 13:04, 62.9% 19.7c
Tue Aug 4 12:32, 61.8% 19.6c
Tue Aug 4 12:05, 62.1% 19.8c
Tue Aug 4 11:06, 62.4% 19.8c
Tue Aug 4 10:08, 63.1% 19.9c
Tue Aug 4 09:15, 62.6% 19.9c
Tue Aug 4 08:16, 59.9% 19.8c
Tue Aug 4 07:18, 59.4% 19.9c
Tue Aug 4 06:22, 59.4% 20.0c
Tue Aug 4 05:23, 60.0% 20.2c
Tue Aug 4 04:52, 59.9% 20.2c
Tue Aug 4 04:31, 59.9% 20.3c
Tue Aug 4 03:34, 59.8% 20.4c
Tue Aug 4 02:42, 59.8% 20.6c
Tue Aug 4 02:10, 59.7% 20.7c
Tue Aug 4 01:45, 59.7% 20.8c
Tue Aug 4 00:50, 59.7% 21.0c
Mon Aug 3 23:53, 59.5% 21.2c
Mon Aug 3 23:49, 59.5% 21.2c
Mon Aug 3 23:01, 59.5% 21.4c
Mon Aug 3 22:02, 60.3% 21.6c
Mon Aug 3 21:12, 59.9% 21.7c
Mon Aug 3 19:32, 58.9% 21.7c
Mon Aug 3 19:15, 59.8% 21.5c
Mon Aug 3 18:21, 62.3% 21.2c
Mon Aug 3 18:05, 60.8% 21.2c
Mon Aug 3 17:24, 60.8% 20.7c
Mon Aug 3 16:25, 60.8% 20.7c
Mon Aug 3 15:28, 60.8% 20.8c
Mon Aug 3 14:37, 60.8% 20.7c
Mon Aug 3 13:40, 60.2% 20.7c
Mon Aug 3 12:44, 61.0% 20.8c
Mon Aug 3 12:17, 63.9% 20.7c
Mon Aug 3 11:48, 63.3% 20.1c
Mon Aug 3 11:47, 63.0% 20.1c
Mon Aug 3 10:56, 63.6% 19.9c
Mon Aug 3 10:03, 63.5% 19.8c
Mon Aug 3 09:06, 63.7% 19.6c
Mon Aug 3 08:13, 63.5% 19.5c
Mon Aug 3 07:18, 62.5% 19.4c
Mon Aug 3 06:19, 61.6% 19.5c
Mon Aug 3 05:20, 61.8% 19.6c
Mon Aug 3 04:48, 61.8% 19.6c
Mon Aug 3 04:28, 62.0% 19.8c
Mon Aug 3 03:28, 62.2% 19.9c
Mon Aug 3 02:37, 62.5% 20.1c
Mon Aug 3 01:40, 62.3% 20.1c
Mon Aug 3 00:44, 62.3% 20.1c
Mon Aug 3 00:40, 62.3% 20.2c
Sun Aug 2 23:49, 62.7% 20.3c
Sun Aug 2 22:54, 62.9% 20.5c
Sun Aug 2 22:00, 64.2% 20.7c
Sun Aug 2 21:17, 64.5% 20.6c
Sun Aug 2 21:00, 64.5% 20.5c
Sun Aug 2 20:07, 62.3% 20.4c
Sun Aug 2 19:08, 63.9% 20.3c
Sun Aug 2 18:16, 61.9% 20.1c
Sun Aug 2 18:00, 61.8% 20.1c
Sun Aug 2 17:16, 62.1% 19.9c
Sun Aug 2 16:18, 63.3% 19.6c
Sun Aug 2 15:21, 62.5% 19.5c
Sun Aug 2 14:39, 63.7% 19.6c
Sun Aug 2 14:26, 63.0% 19.8c
Sun Aug 2 13:29, 62.0% 20.0c
Sun Aug 2 12:36, 62.6% 20.0c
Sun Aug 2 10:45, 62.0% 20.0c
Sun Aug 2 10:29, 63.2% 20.1c
Sun Aug 2 09:54, 62.5% 20.2c
Sun Aug 2 08:54, 62.3% 20.3c
Sun Aug 2 07:57, 62.0% 20.2c
Sun Aug 2 07:05, 62.0% 20.2c
Sun Aug 2 06:12, 61.5% 20.3c
Sun Aug 2 05:18, 61.2% 20.4c
Sun Aug 2 04:27, 61.3% 20.6c
Sun Aug 2 03:46, 61.3% 20.6c
Sun Aug 2 03:36, 61.4% 20.7c
Sun Aug 2 02:38, 61.2% 20.9c
Sun Aug 2 01:43, 61.1% 21.1c
Sun Aug 2 00:48, 61.3% 21.3c
Sat Aug 1 23:55, 61.4% 21.5c
Sat Aug 1 22:55, 60.4% 21.4c
Sat Aug 1 22:01, 61.8% 21.4c
Sat Aug 1 21:06, 60.9% 21.2c
Sat Aug 1 20:12, 61.4% 21.3c
Sat Aug 1 19:21, 62.3% 21.2c
Sat Aug 1 18:30, 58.8% 21.2c
Sat Aug 1 17:37, 59.3% 21.2c
Sat Aug 1 16:39, 59.9% 21.2c
Sat Aug 1 15:46, 59.4% 21.3c
Sat Aug 1 14:51, 61.5% 21.3c
Sat Aug 1 13:58, 61.1% 21.1c
Sat Aug 1 13:04, 61.0% 21.1c
Sat Aug 1 13:01, 61.2% 21.1c
Sat Aug 1 12:10, 65.5% 20.8c
Sat Aug 1 11:38, 65.6% 20.6c
Sat Aug 1 11:20, 66.6% 20.4c
Sat Aug 1 10:25, 66.2% 20.3c
Sat Aug 1 09:35, 65.1% 20.0c
Sat Aug 1 08:41, 65.8% 20.0c
Sat Aug 1 08:28, 66.4% 20.1c
Sat Aug 1 07:47, 67.5% 20.4c
Sat Aug 1 06:50, 66.7% 20.6c
Sat Aug 1 06:46, 66.4% 20.6c
Sat Aug 1 05:51, 65.9% 20.8c
Sat Aug 1 05:00, 65.7% 20.9c
Sat Aug 1 04:08, 65.5% 21.0c
Sat Aug 1 03:11, 65.6% 21.1c
Sat Aug 1 02:16, 65.6% 21.1c
Sat Aug 1 02:11, 65.5% 21.2c
Sat Aug 1 01:21, 65.5% 21.3c
Sat Aug 1 00:23, 65.6% 21.4c
Fri Jul 31 23:30, 65.2% 21.6c
Fri Jul 31 23:13, 65.1% 21.6c
Fri Jul 31 22:34, 65.5% 21.8c
Fri Jul 31 21:35, 65.4% 22.0c
Fri Jul 31 20:42, 64.3% 22.1c
Fri Jul 31 19:45, 63.4% 22.3c
Fri Jul 31 18:53, 62.2% 22.3c
Fri Jul 31 18:03, 62.5% 22.2c
Fri Jul 31 17:04, 61.2% 22.2c
Fri Jul 31 16:12, 60.9% 22.3c
Fri Jul 31 15:20, 60.3% 22.3c
Fri Jul 31 14:25, 61.4% 22.1c
Fri Jul 31 14:17, 61.7% 22.1c
Fri Jul 31 13:29, 62.0% 21.7c
Fri Jul 31 13:18, 63.0% 21.6c
Fri Jul 31 12:29, 64.8% 21.4c
Fri Jul 31 11:39, 65.4% 21.5c
Fri Jul 31 11:17, 67.8% 21.1c
Fri Jul 31 10:46, 67.4% 20.6c
Fri Jul 31 10:40, 67.1% 20.5c
Fri Jul 31 09:47, 65.8% 20.2c
Fri Jul 31 08:55, 66.2% 20.1c
Fri Jul 31 08:54, 66.3% 20.0c
Fri Jul 31 07:57, 66.1% 19.9c
Fri Jul 31 07:03, 65.0% 19.8c
Fri Jul 31 06:19, 64.4% 19.6c
Fri Jul 31 06:07, 64.5% 19.7c
Fri Jul 31 05:07, 64.5% 19.7c
Fri Jul 31 04:16, 64.6% 19.8c
Fri Jul 31 03:22, 64.7% 19.9c
Fri Jul 31 02:22, 64.9% 20.1c
Fri Jul 31 01:28, 65.0% 20.2c
Fri Jul 31 00:29, 65.3% 20.3c
Thu Jul 30 23:34, 65.6% 20.4c
Thu Jul 30 22:35, 66.0% 20.5c
Thu Jul 30 21:43, 67.3% 20.4c
Thu Jul 30 20:47, 66.9% 20.2c
Thu Jul 30 19:49, 66.4% 20.1c
Thu Jul 30 18:55, 65.0% 20.1c
Thu Jul 30 18:04, 62.5% 20.2c
Thu Jul 30 17:06, 62.8% 20.1c
Thu Jul 30 16:57, 62.9% 20.1c
Thu Jul 30 16:14, 62.8% 19.8c
Thu Jul 30 15:21, 63.6% 19.9c
Thu Jul 30 14:28, 64.1% 19.8c
Thu Jul 30 13:32, 63.6% 19.6c
Thu Jul 30 12:41, 62.3% 19.6c
Thu Jul 30 11:55, 62.2% 19.6c
Thu Jul 30 11:45, 62.5% 19.6c
Thu Jul 30 10:48, 63.3% 19.7c
Thu Jul 30 09:48, 62.1% 19.8c
Thu Jul 30 08:53, 61.3% 19.7c
Thu Jul 30 08:00, 60.2% 19.8c
Thu Jul 30 07:07, 60.0% 19.8c
Thu Jul 30 06:08, 59.1% 19.7c
Thu Jul 30 05:12, 59.0% 19.8c
Thu Jul 30 04:19, 59.0% 20.1c
Thu Jul 30 03:38, 58.9% 20.1c
Thu Jul 30 03:25, 59.0% 20.2c
Thu Jul 30 02:30, 58.9% 20.4c
Thu Jul 30 01:35, 58.9% 20.6c
Thu Jul 30 01:20, 59.0% 20.6c
Thu Jul 30 00:40, 59.0% 20.9c
Wed Jul 29 23:49, 59.4% 21.1c
Wed Jul 29 22:55, 59.4% 21.1c
Wed Jul 29 21:56, 58.9% 20.9c
Wed Jul 29 21:03, 57.5% 20.9c
Wed Jul 29 20:12, 55.0% 21.0c
Wed Jul 29 19:36, 54.4% 21.1c
Wed Jul 29 19:21, 54.3% 21.0c
Wed Jul 29 18:27, 54.3% 20.6c
Wed Jul 29 18:15, 54.2% 20.6c
Wed Jul 29 17:34, 53.6% 20.2c
Wed Jul 29 16:41, 53.6% 19.9c
Wed Jul 29 15:46, 52.7% 19.8c
Wed Jul 29 14:47, 53.3% 19.9c
Wed Jul 29 13:53, 53.8% 19.9c
Wed Jul 29 12:57, 54.7% 20.1c
Wed Jul 29 12:53, 54.6% 20.1c
Wed Jul 29 11:58, 59.0% 20.6c
Wed Jul 29 11:02, 59.4% 20.4c
Wed Jul 29 10:09, 59.4% 20.3c
Wed Jul 29 09:13, 59.9% 20.1c
Wed Jul 29 09:09, 59.6% 20.0c
Wed Jul 29 08:09, 59.1% 19.7c
Wed Jul 29 07:11, 59.7% 19.6c
Wed Jul 29 06:12, 60.0% 19.2c
Wed Jul 29 05:14, 59.9% 19.2c
Wed Jul 29 04:14, 59.0% 19.3c
Wed Jul 29 03:18, 58.7% 19.5c
Wed Jul 29 02:26, 58.6% 19.6c
Wed Jul 29 02:22, 58.6% 19.7c
Wed Jul 29 01:23, 58.4% 19.8c
Wed Jul 29 00:32, 58.5% 20.0c
Wed Jul 29 00:08, 58.5% 20.1c
Tue Jul 28 23:38, 58.5% 20.3c
Tue Jul 28 22:39, 58.6% 20.6c
Tue Jul 28 21:45, 60.6% 20.7c
Tue Jul 28 20:52, 58.6% 20.7c
Tue Jul 28 19:57, 61.5% 20.7c
Tue Jul 28 19:25, 62.3% 20.6c
Tue Jul 28 18:59, 56.9% 20.5c
Tue Jul 28 18:04, 55.8% 20.3c
Tue Jul 28 17:22, 56.3% 20.2c
Tue Jul 28 17:07, 56.3% 20.1c
Tue Jul 28 16:10, 55.8% 19.8c
Tue Jul 28 15:35, 55.3% 19.7c
Tue Jul 28 15:12, 55.2% 19.6c
Tue Jul 28 14:15, 52.4% 19.2c
Tue Jul 28 14:12, 52.4% 19.2c
Tue Jul 28 13:49, 51.2% 19.7c
Tue Jul 28 13:15, 54.0% 20.2c
Tue Jul 28 12:50, 54.2% 20.2c
Tue Jul 28 12:17, 60.7% 20.4c
Tue Jul 28 11:18, 59.9% 20.0c
Tue Jul 28 10:24, 60.4% 20.0c
Tue Jul 28 09:31, 60.4% 20.0c
Tue Jul 28 08:40, 60.8% 20.1c
Tue Jul 28 07:43, 60.3% 20.2c
Tue Jul 28 06:51, 60.1% 20.1c
Tue Jul 28 05:53, 60.6% 19.8c
Tue Jul 28 04:54, 60.1% 19.9c
Tue Jul 28 04:04, 60.1% 20.0c
Tue Jul 28 03:32, 60.2% 20.1c
Tue Jul 28 03:08, 60.2% 20.2c
Tue Jul 28 02:16, 60.3% 20.4c
Tue Jul 28 01:24, 60.5% 20.6c
Tue Jul 28 01:20, 60.6% 20.7c
Tue Jul 28 00:20, 60.7% 21.0c
Mon Jul 27 23:23, 61.1% 21.3c
Mon Jul 27 22:26, 60.4% 21.3c
Mon Jul 27 21:31, 59.9% 21.4c
Mon Jul 27 20:37, 59.1% 21.4c
Mon Jul 27 19:42, 55.5% 21.3c
Mon Jul 27 19:07, 58.0% 21.1c
Mon Jul 27 18:45, 60.4% 21.1c
Mon Jul 27 18:16, 64.1% 21.2c
Mon Jul 27 17:52, 67.5% 21.2c
Mon Jul 27 16:52, 66.3% 21.2c
Mon Jul 27 15:57, 67.6% 21.1c
Mon Jul 27 15:05, 67.7% 20.9c
Mon Jul 27 14:12, 67.6% 20.9c
Mon Jul 27 13:17, 67.2% 20.8c
Mon Jul 27 12:26, 69.7% 20.9c
Mon Jul 27 12:23, 70.2% 20.9c
Mon Jul 27 11:29, 66.2% 20.7c
Mon Jul 27 10:35, 66.2% 20.6c
Mon Jul 27 09:44, 66.2% 20.5c
Mon Jul 27 08:48, 65.4% 20.4c
Mon Jul 27 07:50, 64.6% 20.5c
Mon Jul 27 07:00, 64.2% 20.6c
Mon Jul 27 06:06, 64.2% 20.6c
Mon Jul 27 05:08, 64.1% 20.8c
Mon Jul 27 04:47, 64.1% 20.8c
Mon Jul 27 04:11, 64.0% 20.9c
Mon Jul 27 03:19, 64.0% 21.1c
Mon Jul 27 02:27, 64.0% 21.3c
Mon Jul 27 02:02, 63.9% 21.3c
Mon Jul 27 01:33, 63.9% 21.5c
Mon Jul 27 00:40, 64.0% 21.6c
Sun Jul 26 23:49, 64.1% 21.8c
Sun Jul 26 22:58, 64.5% 21.9c
Sun Jul 26 22:06, 64.7% 21.9c
Sun Jul 26 21:10, 63.4% 22.0c
Sun Jul 26 20:10, 64.0% 22.0c
Sun Jul 26 19:10, 62.0% 21.8c
Sun Jul 26 18:19, 62.5% 21.8c
Sun Jul 26 18:08, 63.2% 21.8c
Sun Jul 26 17:22, 63.5% 21.6c
Sun Jul 26 16:29, 63.7% 21.6c
Sun Jul 26 15:34, 63.6% 21.6c
Sun Jul 26 14:42, 64.0% 21.5c
Sun Jul 26 13:52, 66.0% 21.3c
Sun Jul 26 13:46, 66.2% 21.2c
Sun Jul 26 12:49, 68.0% 20.9c
Sun Jul 26 12:10, 64.4% 20.8c
Sun Jul 26 11:58, 64.5% 20.9c
Sun Jul 26 11:07, 64.7% 20.9c
Sun Jul 26 10:14, 65.0% 20.9c
Sun Jul 26 09:22, 65.1% 20.9c
Sun Jul 26 08:23, 64.9% 21.0c
Sun Jul 26 07:29, 65.1% 21.1c
Sun Jul 26 06:34, 64.3% 20.9c
Sun Jul 26 05:38, 64.3% 21.1c
Sun Jul 26 04:38, 64.5% 21.3c
Sun Jul 26 04:08, 64.7% 21.3c
Sun Jul 26 03:47, 64.8% 21.5c
Sun Jul 26 02:56, 65.1% 21.6c
Sun Jul 26 02:03, 65.3% 21.9c
Sun Jul 26 01:56, 65.2% 21.8c
Sun Jul 26 01:07, 65.5% 22.1c
Sun Jul 26 00:15, 66.4% 22.4c
Sat Jul 25 23:15, 66.6% 22.4c
Sat Jul 25 22:15, 66.5% 22.5c
Sat Jul 25 21:16, 67.0% 22.5c
Sat Jul 25 20:18, 66.9% 22.3c
Sat Jul 25 19:24, 63.6% 22.2c
Sat Jul 25 18:29, 63.4% 22.4c
Sat Jul 25 17:36, 64.9% 22.4c
Sat Jul 25 17:04, 64.7% 22.3c
Sat Jul 25 16:43, 65.4% 21.8c
Sat Jul 25 16:36, 65.0% 21.7c
Sat Jul 25 15:45, 65.4% 21.6c
Sat Jul 25 14:46, 64.3% 21.3c
Sat Jul 25 13:19, 66.8% 21.3c
Sat Jul 25 12:55, 64.3% 21.2c
Sat Jul 25 11:58, 65.2% 21.2c
Sat Jul 25 11:03, 66.4% 21.2c
Sat Jul 25 10:07, 67.1% 21.1c
Sat Jul 25 09:14, 65.8% 21.0c
Sat Jul 25 08:18, 64.1% 21.1c
Sat Jul 25 07:19, 63.6% 21.1c
Sat Jul 25 06:28, 63.9% 20.4c
Sat Jul 25 05:34, 63.8% 20.5c
Sat Jul 25 04:38, 63.7% 20.5c
Sat Jul 25 03:44, 63.6% 20.7c
Sat Jul 25 02:53, 63.5% 20.9c
Sat Jul 25 02:50, 63.5% 20.8c
Sat Jul 25 01:53, 63.5% 21.0c
Sat Jul 25 00:57, 63.6% 21.2c
Sat Jul 25 00:01, 63.9% 21.4c
Fri Jul 24 23:09, 64.1% 21.6c
Fri Jul 24 22:19, 64.1% 21.6c
Fri Jul 24 21:48, 64.2% 21.3c
Fri Jul 24 21:25, 64.2% 21.0c
Fri Jul 24 20:30, 63.5% 21.0c
Fri Jul 24 19:36, 65.8% 21.0c
Fri Jul 24 18:49, 66.2% 20.8c
Fri Jul 24 18:41, 64.5% 20.8c
Fri Jul 24 17:58, 60.1% 20.6c
Fri Jul 24 17:46, 59.2% 20.4c
Fri Jul 24 16:52, 56.9% 20.2c
Fri Jul 24 16:39, 57.8% 20.1c
Fri Jul 24 15:55, 57.8% 19.9c
Fri Jul 24 14:55, 58.1% 19.9c
Fri Jul 24 14:01, 58.9% 19.6c
Fri Jul 24 13:33, 57.8% 19.6c
Fri Jul 24 13:10, 59.5% 19.7c
Fri Jul 24 12:12, 60.3% 20.0c
Fri Jul 24 11:17, 61.4% 19.9c
Fri Jul 24 10:21, 61.7% 19.9c
Fri Jul 24 09:23, 62.4% 19.9c
Fri Jul 24 08:31, 63.1% 19.9c
Fri Jul 24 07:39, 62.4% 20.0c
Fri Jul 24 06:41, 63.2% 19.8c
Fri Jul 24 05:45, 62.4% 19.8c
Fri Jul 24 04:52, 62.2% 19.9c
Fri Jul 24 04:01, 62.3% 20.0c
Fri Jul 24 03:21, 62.0% 20.1c
Fri Jul 24 03:02, 62.2% 20.2c
Fri Jul 24 02:04, 62.4% 20.4c
Fri Jul 24 01:11, 62.3% 20.5c
Fri Jul 24 00:46, 62.1% 20.6c
Fri Jul 24 00:12, 61.9% 20.7c
Thu Jul 23 23:17, 61.5% 21.0c
Thu Jul 23 22:21, 62.2% 21.1c
Thu Jul 23 21:29, 62.8% 21.2c
Thu Jul 23 20:30, 62.5% 21.3c
Thu Jul 23 19:37, 62.8% 21.1c
Thu Jul 23 19:36, 62.8% 21.0c
Thu Jul 23 19:10, 65.2% 20.6c
Thu Jul 23 18:44, 67.4% 20.5c
Thu Jul 23 17:47, 68.2% 20.4c
Thu Jul 23 16:52, 68.2% 20.4c
Thu Jul 23 15:53, 68.6% 20.6c
Thu Jul 23 15:01, 68.2% 20.8c
Thu Jul 23 14:01, 70.2% 20.8c
Thu Jul 23 13:40, 71.2% 20.5c
Thu Jul 23 13:05, 67.3% 19.8c
Thu Jul 23 12:07, 67.7% 19.9c
Thu Jul 23 10:19, 69.4% 19.9c
Thu Jul 23 09:07, 70.5% 20.0c
Thu Jul 23 08:31, 66.8% 19.9c
Thu Jul 23 07:36, 65.3% 19.8c
Thu Jul 23 06:40, 65.4% 19.6c
Thu Jul 23 05:48, 63.8% 19.6c
Thu Jul 23 04:56, 63.8% 19.6c
Thu Jul 23 04:18, 63.7% 19.6c
Thu Jul 23 04:01, 63.7% 19.8c
Thu Jul 23 03:09, 63.6% 19.9c
Thu Jul 23 01:21, 63.6% 20.1c
Thu Jul 23 00:40, 63.6% 20.1c
Thu Jul 23 00:24, 63.6% 20.2c
Wed Jul 22 23:33, 63.6% 20.4c
Wed Jul 22 22:40, 63.9% 20.6c
Wed Jul 22 21:45, 65.5% 20.6c
Wed Jul 22 21:23, 65.5% 20.6c
Wed Jul 22 20:50, 65.4% 20.5c
Wed Jul 22 19:53, 64.9% 20.4c
Wed Jul 22 19:00, 65.0% 20.3c
Wed Jul 22 18:06, 63.1% 20.4c
Wed Jul 22 17:16, 63.0% 20.2c
Wed Jul 22 16:18, 62.1% 19.8c
Wed Jul 22 15:21, 61.9% 20.0c
Wed Jul 22 14:22, 62.5% 20.1c
Wed Jul 22 14:11, 62.7% 20.1c
Wed Jul 22 13:23, 62.6% 19.8c
Wed Jul 22 13:13, 62.5% 19.6c
Wed Jul 22 12:28, 61.1% 19.6c
Wed Jul 22 11:30, 60.1% 19.7c
Wed Jul 22 10:38, 59.0% 19.9c
Wed Jul 22 09:46, 58.7% 20.1c
Wed Jul 22 08:54, 59.2% 20.1c
Wed Jul 22 07:57, 57.7% 20.1c
Wed Jul 22 06:57, 57.5% 19.8c
Wed Jul 22 06:00, 56.8% 19.6c
Wed Jul 22 05:01, 56.7% 19.7c
Wed Jul 22 04:06, 56.6% 19.7c
Wed Jul 22 03:12, 56.5% 19.9c
Wed Jul 22 02:49, 56.5% 19.9c
Wed Jul 22 02:13, 56.3% 20.1c
Wed Jul 22 01:21, 56.2% 20.2c
Wed Jul 22 00:30, 56.1% 20.3c
Tue Jul 21 23:38, 56.1% 20.5c
Tue Jul 21 22:38, 56.7% 20.5c
Tue Jul 21 20:47, 55.4% 20.6c
Tue Jul 21 19:55, 53.8% 20.7c
Tue Jul 21 19:01, 55.7% 20.7c
Tue Jul 21 18:20, 54.1% 20.4c
Tue Jul 21 18:02, 54.8% 20.2c
Tue Jul 21 17:29, 54.0% 19.9c
Tue Jul 21 17:05, 54.4% 19.6c
Tue Jul 21 16:05, 53.5% 19.1c
Tue Jul 21 15:07, 55.0% 19.4c
Tue Jul 21 14:45, 55.1% 19.4c
Tue Jul 21 14:16, 54.5% 19.7c
Tue Jul 21 13:24, 55.0% 20.0c
Tue Jul 21 12:46, 55.9% 19.9c
Tue Jul 21 12:30, 55.6% 19.7c
Tue Jul 21 11:31, 55.8% 19.4c
Tue Jul 21 10:31, 54.9% 19.5c
Tue Jul 21 09:37, 58.8% 19.6c
Tue Jul 21 08:44, 59.7% 19.6c
Tue Jul 21 07:48, 58.5% 19.5c
Tue Jul 21 06:51, 57.9% 19.1c
Tue Jul 21 05:59, 57.1% 19.1c
Tue Jul 21 05:02, 56.9% 19.3c
Tue Jul 21 04:19, 56.8% 19.4c
Tue Jul 21 04:08, 56.9% 19.5c
Tue Jul 21 03:14, 56.8% 19.6c
Tue Jul 21 02:21, 56.7% 19.8c
Tue Jul 21 01:46, 56.6% 19.9c
Tue Jul 21 01:21, 56.6% 20.0c
Tue Jul 21 00:28, 56.5% 20.3c
Mon Jul 20 23:32, 56.2% 20.6c
Mon Jul 20 22:35, 56.2% 20.7c
Mon Jul 20 21:37, 57.0% 20.8c
Mon Jul 20 20:37, 55.9% 20.5c
Mon Jul 20 20:31, 56.0% 20.4c
Mon Jul 20 19:44, 57.1% 20.2c
Mon Jul 20 18:53, 56.0% 19.9c
Mon Jul 20 17:58, 53.3% 19.9c
Mon Jul 20 17:42, 54.0% 19.9c
Mon Jul 20 17:05, 54.6% 19.8c
Mon Jul 20 16:10, 55.2% 19.8c
Mon Jul 20 15:19, 54.1% 19.8c
Mon Jul 20 14:26, 55.1% 19.9c
Mon Jul 20 13:29, 57.0% 20.1c
Mon Jul 20 12:32, 59.8% 19.9c
Mon Jul 20 12:23, 60.0% 19.9c
Mon Jul 20 11:34, 58.6% 19.8c
Mon Jul 20 10:40, 59.2% 19.7c
Mon Jul 20 09:47, 59.5% 19.6c
Mon Jul 20 08:49, 58.8% 19.4c
Mon Jul 20 07:56, 58.0% 19.4c
Mon Jul 20 07:00, 57.4% 19.2c
Mon Jul 20 06:03, 56.7% 19.1c
Mon Jul 20 05:03, 56.5% 19.3c
Mon Jul 20 04:05, 56.5% 19.5c
Mon Jul 20 03:56, 56.4% 19.4c
Mon Jul 20 03:05, 56.3% 19.6c
Mon Jul 20 02:08, 56.1% 19.8c
Mon Jul 20 01:12, 55.9% 19.9c
Mon Jul 20 01:10, 55.9% 20.0c
Mon Jul 20 00:12, 55.5% 20.2c
Sun Jul 19 23:17, 55.2% 20.5c
Sun Jul 19 22:27, 55.4% 20.6c
Sun Jul 19 21:30, 55.6% 20.6c
Sun Jul 19 20:45, 55.1% 20.4c
Sun Jul 19 20:33, 54.7% 20.3c
Sun Jul 19 19:47, 55.0% 19.9c
Sun Jul 19 19:35, 55.1% 19.8c
Sun Jul 19 19:04, 55.1% 19.4c
Sun Jul 19 18:36, 52.6% 19.0c
Sun Jul 19 17:42, 51.6% 18.9c
Sun Jul 19 16:47, 52.9% 18.8c
Sun Jul 19 15:56, 52.2% 18.8c
Sun Jul 19 15:01, 50.6% 18.8c
Sun Jul 19 14:04, 48.7% 18.8c
Sun Jul 19 13:35, 50.5% 18.9c
Sun Jul 19 13:05, 50.4% 19.1c
Sun Jul 19 12:07, 51.8% 19.4c
Sun Jul 19 11:55, 51.8% 19.4c
Sun Jul 19 11:16, 52.5% 19.9c
Sun Jul 19 11:15, 52.4% 19.9c
Sun Jul 19 10:35, 55.1% 20.4c
Sun Jul 19 10:23, 55.7% 20.5c
Sun Jul 19 09:39, 61.1% 20.6c
Sun Jul 19 09:30, 61.4% 20.4c
Sun Jul 19 08:35, 59.3% 20.3c
Sun Jul 19 07:43, 58.4% 20.3c
Sun Jul 19 06:46, 59.0% 19.9c
Sun Jul 19 05:50, 58.6% 19.9c
Sun Jul 19 04:57, 58.4% 20.0c
Sun Jul 19 04:29, 58.3% 20.1c
Sun Jul 19 03:59, 58.2% 20.2c

s3 Loft HTP
Wed Aug 5 19:57, 75.8% 18.7c

Wed Aug 5 19:57, 75.8% 18.7c
1005.8 mb
Wed Aug 5 19:40, 75.9% 18.8c
1005.5 mb
Wed Aug 5 19:35, 76.0% 18.8c
1005.5 mb
Wed Aug 5 19:13, 76.1% 18.9c
1005.3 mb
Wed Aug 5 18:36, 76.2% 19.1c
1005.0 mb
Wed Aug 5 18:28, 76.2% 19.1c
1005.0 mb
Wed Aug 5 18:03, 76.5% 19.3c
1004.8 mb
Wed Aug 5 17:45, 76.9% 19.5c
1004.9 mb
Wed Aug 5 17:02, 79.1% 19.8c
1004.9 mb
Wed Aug 5 16:50, 79.8% 19.7c
1004.9 mb
Wed Aug 5 15:58, 79.2% 19.0c
1004.9 mb
Wed Aug 5 15:50, 78.6% 18.8c
1004.8 mb
Wed Aug 5 15:31, 77.8% 18.3c
1004.8 mb
Wed Aug 5 15:02, 75.8% 17.9c
1004.8 mb
Wed Aug 5 14:42, 75.8% 17.8c
1004.8 mb
Wed Aug 5 14:05, 75.4% 17.6c
1004.7 mb
Wed Aug 5 13:45, 75.4% 17.5c
1004.6 mb
Wed Aug 5 13:12, 34.7% 17.4c
1004.4 mb
Wed Aug 5 12:46, 75.1% 17.4c
1004.3 mb
Wed Aug 5 12:23, 74.9% 17.3c
1004.0 mb
Wed Aug 5 12:15, 74.9% 17.3c
1003.8 mb
Wed Aug 5 10:38, 74.8% 17.3c
1003.4 mb
Wed Aug 5 10:22, 74.8% 17.3c
1003.2 mb
Wed Aug 5 10:20, 74.8% 17.2c
1003.2 mb
Wed Aug 5 10:08, 74.9% 17.2c
1002.9 mb
Wed Aug 5 09:26, 74.7% 17.1c
1002.8 mb
Wed Aug 5 08:30, 74.4% 16.9c
1002.7 mb
Wed Aug 5 08:21, 74.3% 16.9c
1002.7 mb
Wed Aug 5 07:39, 74.4% 16.8c
1002.6 mb
Wed Aug 5 06:46, 74.0% 16.8c
1002.5 mb
Wed Aug 5 06:05, 74.1% 16.7c
1002.4 mb
Wed Aug 5 05:50, 73.9% 16.8c
1002.2 mb
Wed Aug 5 05:46, 74.0% 16.8c
1002.2 mb
Wed Aug 5 05:32, 74.2% 16.8c
1001.9 mb
Wed Aug 5 05:20, 74.1% 16.8c
1001.6 mb
Wed Aug 5 04:52, 74.1% 16.8c
1001.5 mb
Wed Aug 5 03:04, 73.7% 16.8c
1001.5 mb
Wed Aug 5 02:12, 73.6% 16.9c
1001.4 mb
Wed Aug 5 02:11, 73.6% 16.9c
1001.4 mb
Wed Aug 5 01:19, 73.3% 16.9c
1001.2 mb
Wed Aug 5 00:46, 73.4% 16.9c
1001.1 mb
Wed Aug 5 00:46, 73.4% 16.9c
1001.5 mb
Wed Aug 5 00:26, 73.2% 16.9c
1001.1 mb
Wed Aug 5 00:19, 73.1% 16.9c
1001.3 mb
Wed Aug 5 00:19, 73.1% 16.9c
1001.3 mb
Wed Aug 5 00:18, 73.2% 16.9c
1001.1 mb
Wed Aug 5 00:13, 73.1% 16.9c
1001.4 mb
Wed Aug 5 00:13, 73.1% 16.9c
1001.0 mb
Tue Aug 4 23:57, 73.0% 16.9c
1001.4 mb
Tue Aug 4 23:57, 72.9% 16.9c
1001.1 mb
Tue Aug 4 23:37, 72.9% 16.9c
1001.4 mb
Tue Aug 4 23:35, 72.9% 16.9c
1001.1 mb
Tue Aug 4 23:24, 72.8% 16.9c
1001.4 mb
Tue Aug 4 23:18, 72.9% 16.9c
1001.4 mb
Tue Aug 4 23:17, 72.9% 16.9c
1001.1 mb
Tue Aug 4 23:17, 72.7% 16.9c
1001.5 mb
Tue Aug 4 22:47, 72.5% 16.9c
1001.2 mb
Tue Aug 4 22:36, 72.5% 16.9c
1001.5 mb
Tue Aug 4 22:32, 72.5% 16.9c
1001.4 mb
Tue Aug 4 22:24, 72.5% 16.9c
1001.3 mb
Tue Aug 4 22:16, 72.4% 16.9c
1001.5 mb
Tue Aug 4 22:12, 72.3% 16.9c
1001.3 mb
Tue Aug 4 22:09, 72.4% 16.9c
1001.5 mb
Tue Aug 4 22:09, 72.3% 16.9c
1001.1 mb
Tue Aug 4 21:41, 72.1% 16.9c
1001.4 mb
Tue Aug 4 21:40, 72.0% 16.9c
1001.7 mb
Tue Aug 4 21:36, 72.1% 16.9c
1001.6 mb
Tue Aug 4 21:22, 71.9% 16.9c
1001.4 mb
Tue Aug 4 21:22, 71.8% 16.8c
1001.7 mb
Tue Aug 4 21:15, 71.8% 16.9c
1001.4 mb
Tue Aug 4 21:15, 71.9% 16.9c
1001.7 mb
Tue Aug 4 21:13, 71.9% 16.9c
1001.4 mb
Tue Aug 4 20:50, 71.7% 16.9c
1001.7 mb
Tue Aug 4 20:44, 71.7% 16.9c
1001.9 mb
Tue Aug 4 20:41, 71.6% 16.9c
1001.6 mb
Tue Aug 4 20:39, 71.7% 16.9c
1001.9 mb
Tue Aug 4 20:39, 71.6% 16.9c
1001.8 mb
Tue Aug 4 19:56, 71.6% 16.9c
1001.6 mb
Tue Aug 4 19:48, 71.4% 17.0c
1001.9 mb
Tue Aug 4 19:47, 71.5% 16.9c
1001.6 mb
Tue Aug 4 19:44, 71.3% 16.9c
1001.9 mb
Tue Aug 4 19:13, 71.4% 17.0c
1001.9 mb
Tue Aug 4 18:44, 71.3% 17.0c
1002.2 mb
Tue Aug 4 18:36, 71.3% 17.0c
1002.2 mb
Tue Aug 4 18:30, 71.1% 17.1c
1002.5 mb
Tue Aug 4 18:15, 71.2% 17.0c
1002.2 mb
Tue Aug 4 18:05, 71.4% 17.0c
1002.5 mb
Tue Aug 4 18:04, 71.2% 17.0c
1002.8 mb
Tue Aug 4 17:50, 71.2% 17.0c
1002.5 mb
Tue Aug 4 17:18, 71.1% 16.9c
1002.5 mb
Tue Aug 4 17:02, 71.0% 16.8c
1002.8 mb
Tue Aug 4 17:00, 71.0% 16.8c
1003.1 mb
Tue Aug 4 16:58, 71.0% 16.8c
1002.8 mb
Tue Aug 4 16:55, 71.0% 16.7c
1003.2 mb
Tue Aug 4 16:46, 71.0% 16.8c
1003.1 mb
Tue Aug 4 16:39, 70.9% 16.7c
1003.4 mb
Tue Aug 4 16:39, 70.9% 16.7c
1003.1 mb
Tue Aug 4 16:36, 70.8% 16.7c
1003.5 mb
Tue Aug 4 16:29, 70.8% 16.6c
1003.3 mb
Tue Aug 4 16:15, 70.8% 16.6c
1003.5 mb
Tue Aug 4 16:08, 70.6% 16.5c
1003.8 mb
Tue Aug 4 15:59, 70.5% 16.4c
1004.3 mb
Tue Aug 4 15:47, 70.2% 16.4c
1004.1 mb
Tue Aug 4 15:31, 70.0% 16.2c
1004.3 mb
Tue Aug 4 15:30, 69.9% 16.2c
1004.6 mb
Tue Aug 4 15:28, 70.0% 16.2c
1004.3 mb
Tue Aug 4 15:09, 69.8% 16.1c
1004.6 mb
Tue Aug 4 15:06, 69.8% 16.1c
1004.9 mb
Tue Aug 4 15:05, 69.8% 16.0c
1004.6 mb
Tue Aug 4 15:04, 64.1% 16.1c
1004.9 mb
Tue Aug 4 14:36, 69.4% 15.8c
1004.9 mb
Tue Aug 4 14:36, 69.4% 15.8c
1005.3 mb
Tue Aug 4 14:29, 69.3% 15.8c
1005.0 mb
Tue Aug 4 14:23, 69.2% 15.7c
1005.3 mb
Tue Aug 4 14:23, 69.2% 15.7c
1005.0 mb
Tue Aug 4 14:14, 69.2% 15.7c
1005.4 mb
Tue Aug 4 14:07, 68.9% 15.6c
1005.7 mb
Tue Aug 4 13:57, 69.2% 15.6c
1005.6 mb
Tue Aug 4 13:39, 69.0% 15.5c
1005.9 mb
Tue Aug 4 13:33, 68.7% 15.5c
1006.2 mb
Tue Aug 4 13:13, 68.8% 15.4c
1006.4 mb
Tue Aug 4 13:07, 68.4% 15.4c
1006.6 mb
Tue Aug 4 12:43, 68.0% 15.3c
1006.7 mb
Tue Aug 4 12:36, 68.0% 15.3c
1007.0 mb
Tue Aug 4 12:25, 68.1% 15.3c
1007.3 mb
Tue Aug 4 12:14, 68.0% 15.2c
1007.6 mb
Tue Aug 4 12:07, 67.9% 15.2c
1007.5 mb
Tue Aug 4 12:00, 67.8% 15.2c
1007.8 mb
Tue Aug 4 11:50, 67.6% 15.1c
1007.6 mb
Tue Aug 4 11:44, 67.6% 15.1c
1007.8 mb
Tue Aug 4 11:29, 67.8% 15.0c
1008.1 mb
Tue Aug 4 11:18, 67.8% 14.9c
1008.4 mb
Tue Aug 4 11:18, 67.8% 14.9c
1008.5 mb
Tue Aug 4 11:10, 67.7% 14.9c
1008.7 mb
Tue Aug 4 10:34, 67.1% 14.8c
1008.9 mb
Tue Aug 4 10:27, 67.2% 14.8c
1009.2 mb
Tue Aug 4 10:25, 67.0% 14.8c
1009.2 mb
Tue Aug 4 10:07, 66.9% 14.7c
1009.4 mb
Tue Aug 4 09:58, 66.9% 14.7c
1009.7 mb
Tue Aug 4 09:44, 67.0% 14.6c
1010.0 mb
Tue Aug 4 09:33, 66.8% 14.6c
1010.4 mb
Tue Aug 4 09:08, 66.6% 14.5c
1010.3 mb
Tue Aug 4 08:38, 66.2% 14.3c
1010.5 mb
Tue Aug 4 08:34, 66.2% 14.3c
1010.7 mb
Tue Aug 4 08:06, 65.5% 14.2c
1010.8 mb
Tue Aug 4 07:42, 65.0% 14.1c
1011.0 mb
Tue Aug 4 07:27, 65.0% 14.1c
1011.1 mb
Tue Aug 4 07:12, 65.0% 14.1c
1011.3 mb
Tue Aug 4 06:46, 64.8% 14.2c
1011.6 mb
Tue Aug 4 06:45, 64.8% 14.1c
1011.6 mb
Tue Aug 4 06:29, 64.7% 14.2c
1011.8 mb
Tue Aug 4 06:19, 64.6% 14.2c
1012.1 mb
Tue Aug 4 06:10, 64.5% 14.3c
1012.4 mb
Tue Aug 4 05:47, 64.4% 14.4c
1012.5 mb
Tue Aug 4 05:09, 64.4% 14.6c
1012.7 mb
Tue Aug 4 04:53, 64.3% 14.7c
1012.9 mb
Tue Aug 4 04:39, 64.0% 14.7c
1012.9 mb
Tue Aug 4 04:15, 63.9% 14.8c
1013.2 mb
Tue Aug 4 04:01, 63.7% 14.8c
1013.4 mb
Tue Aug 4 03:59, 63.6% 14.9c
1013.5 mb
Tue Aug 4 03:42, 63.7% 15.0c
1013.7 mb
Tue Aug 4 03:28, 63.4% 15.0c
1014.0 mb
Tue Aug 4 03:10, 63.2% 15.1c
1014.3 mb
Tue Aug 4 03:02, 63.1% 15.1c
1014.4 mb
Tue Aug 4 02:33, 62.8% 15.3c
1014.5 mb
Tue Aug 4 02:05, 62.5% 15.4c
1014.8 mb
Tue Aug 4 02:03, 62.5% 15.4c
1014.8 mb
Tue Aug 4 01:31, 62.3% 15.7c
1015.0 mb
Tue Aug 4 01:13, 62.0% 15.8c
1015.3 mb
Tue Aug 4 01:07, 62.0% 15.9c
1015.3 mb
Tue Aug 4 00:34, 61.8% 16.3c
1015.6 mb
Tue Aug 4 00:15, 61.7% 16.7c
1015.8 mb
Tue Aug 4 00:01, 61.8% 16.8c
1015.7 mb
Mon Aug 3 23:32, 61.6% 17.3c
1015.8 mb
Mon Aug 3 23:18, 61.6% 17.6c
1016.0 mb
Mon Aug 3 23:03, 61.5% 17.8c
1015.8 mb
Mon Aug 3 22:39, 61.5% 18.4c
1015.8 mb
Mon Aug 3 22:23, 61.7% 18.7c
1016.0 mb
Mon Aug 3 22:15, 61.6% 18.9c
1015.9 mb
Mon Aug 3 21:50, 61.8% 19.4c
1015.8 mb
Mon Aug 3 21:24, 62.1% 19.9c
1015.8 mb
Mon Aug 3 21:23, 62.3% 19.9c
1015.7 mb
Mon Aug 3 20:57, 62.6% 20.4c
1015.7 mb
Mon Aug 3 20:31, 63.1% 20.9c
1015.7 mb
Mon Aug 3 20:26, 63.3% 21.0c
1015.6 mb
Mon Aug 3 19:38, 64.3% 21.4c
1015.5 mb
Mon Aug 3 19:28, 64.5% 21.4c
1015.4 mb
Mon Aug 3 18:33, 65.5% 21.7c
1015.2 mb
Mon Aug 3 18:13, 66.8% 21.5c
1015.2 mb
Mon Aug 3 17:42, 63.6% 20.9c
1015.1 mb
Mon Aug 3 17:27, 63.2% 21.0c
1015.2 mb
Mon Aug 3 16:49, 64.7% 21.6c
1015.1 mb
Mon Aug 3 16:48, 64.7% 21.6c
1015.2 mb
Mon Aug 3 15:54, 62.4% 21.2c
1015.4 mb
Mon Aug 3 15:49, 62.6% 21.2c
1015.5 mb
Mon Aug 3 14:52, 62.5% 21.4c
1015.8 mb
Mon Aug 3 14:42, 62.5% 21.5c
1015.7 mb
Mon Aug 3 14:14, 62.9% 22.0c
1015.7 mb
Mon Aug 3 14:01, 63.4% 22.0c
1016.0 mb
Mon Aug 3 13:54, 63.4% 22.1c
1015.8 mb
Mon Aug 3 13:37, 63.4% 22.2c
1015.7 mb
Mon Aug 3 13:19, 63.9% 22.7c
1015.8 mb
Mon Aug 3 12:36, 67.3% 22.8c
1015.7 mb
Mon Aug 3 12:29, 67.6% 22.3c
1015.7 mb
Mon Aug 3 12:22, 67.0% 21.8c
1015.7 mb
Mon Aug 3 12:14, 66.3% 21.3c
1015.8 mb
Mon Aug 3 12:01, 65.8% 20.8c
1015.8 mb
Mon Aug 3 11:29, 65.8% 20.8c
1015.8 mb
Mon Aug 3 11:08, 66.8% 21.3c
1015.9 mb
Mon Aug 3 10:49, 68.9% 21.3c
1015.7 mb
Mon Aug 3 10:39, 69.8% 20.8c
1015.6 mb
Mon Aug 3 10:31, 70.8% 20.2c
1015.7 mb
Mon Aug 3 10:25, 70.2% 19.7c
1015.6 mb
Mon Aug 3 10:14, 68.8% 19.3c
1015.7 mb
Mon Aug 3 10:11, 68.9% 19.2c

s4 Hallway PiR
Wed Aug 5 20:03, status motion

Wed Aug 5 20:03, status motion
Wed Aug 5 20:01, status motion
Wed Aug 5 20:00, status motion
Wed Aug 5 19:07, no_motion 30m
Wed Aug 5 18:57, no_motion 20m
Wed Aug 5 18:47, no_motion 10m
Wed Aug 5 18:37, status motion
Wed Aug 5 18:29, status motion
Wed Aug 5 18:28, status motion
Wed Aug 5 18:27, status motion
Wed Aug 5 18:25, status motion
Wed Aug 5 18:25, no_motion 30m
Wed Aug 5 18:15, no_motion 20m
Wed Aug 5 18:05, no_motion 10m
Wed Aug 5 17:55, status motion
Wed Aug 5 17:54, status motion
Wed Aug 5 17:52, status motion
Wed Aug 5 17:43, no_motion 10m
Wed Aug 5 17:33, status motion
Wed Aug 5 17:32, status motion
Wed Aug 5 17:30, status motion
Wed Aug 5 17:29, status motion
Wed Aug 5 17:27, status motion
Wed Aug 5 17:25, status motion
Wed Aug 5 16:06, no_motion 30m
Wed Aug 5 15:56, no_motion 20m
Wed Aug 5 15:46, no_motion 10m
Wed Aug 5 15:36, status motion
Wed Aug 5 15:28, no_motion 20m
Wed Aug 5 15:18, no_motion 10m
Wed Aug 5 15:08, status motion
Wed Aug 5 15:07, status motion
Wed Aug 5 14:30, no_motion 30m
Wed Aug 5 14:20, no_motion 20m
Wed Aug 5 14:10, no_motion 10m
Wed Aug 5 14:00, status motion
Wed Aug 5 13:59, status motion
Wed Aug 5 13:55, no_motion 30m
Wed Aug 5 13:45, no_motion 20m
Wed Aug 5 13:35, no_motion 10m
Wed Aug 5 13:25, status motion
Wed Aug 5 13:08, no_motion 30m
Wed Aug 5 12:58, no_motion 20m
Wed Aug 5 12:48, no_motion 10m
Wed Aug 5 12:38, status motion
Wed Aug 5 12:38, no_motion 10m
Wed Aug 5 12:28, status motion
Wed Aug 5 12:26, status motion
Wed Aug 5 12:22, no_motion 20m
Wed Aug 5 12:12, no_motion 10m
Wed Aug 5 12:02, status motion
Wed Aug 5 12:01, status motion
Wed Aug 5 11:59, status motion
Wed Aug 5 11:58, status motion
Wed Aug 5 11:56, no_motion 20m
Wed Aug 5 11:46, no_motion 10m
Wed Aug 5 11:32, no_motion 20m
Wed Aug 5 11:22, no_motion 10m
Wed Aug 5 11:12, status motion
Wed Aug 5 11:11, status motion
Wed Aug 5 10:32, no_motion 30m
Wed Aug 5 10:22, no_motion 20m
Wed Aug 5 10:12, no_motion 10m
Wed Aug 5 10:02, status motion
Wed Aug 5 10:00, status motion
Wed Aug 5 09:58, status motion
Wed Aug 5 09:57, status motion
Wed Aug 5 09:55, status motion
Wed Aug 5 09:53, status motion
Wed Aug 5 09:46, status motion
Wed Aug 5 09:44, status motion
Wed Aug 5 09:36, status motion
Wed Aug 5 09:29, status motion
Wed Aug 5 09:25, status motion
Wed Aug 5 09:24, status motion
Wed Aug 5 09:22, status motion
Wed Aug 5 09:21, status motion
Wed Aug 5 09:19, status motion
Wed Aug 5 09:16, no_motion 10m
Wed Aug 5 09:06, status motion
Wed Aug 5 09:05, status motion
Wed Aug 5 09:03, status motion
Wed Aug 5 09:01, status motion
Wed Aug 5 09:00, status motion
Wed Aug 5 08:57, status motion
Wed Aug 5 08:55, status motion
Wed Aug 5 08:53, status motion
Wed Aug 5 08:49, no_motion 20m
Wed Aug 5 08:39, no_motion 10m
Wed Aug 5 08:29, status motion
Wed Aug 5 08:24, no_motion 10m
Wed Aug 5 08:14, status motion
Wed Aug 5 08:09, status motion
Wed Aug 5 08:01, no_motion 20m
Wed Aug 5 07:51, no_motion 10m
Wed Aug 5 07:41, status motion
Wed Aug 5 07:40, status motion
Wed Aug 5 07:39, status motion
Wed Aug 5 07:38, no_motion 20m
Wed Aug 5 07:28, no_motion 10m
Wed Aug 5 07:18, status motion
Wed Aug 5 07:08, no_motion 30m
Wed Aug 5 06:58, no_motion 20m
Wed Aug 5 06:48, no_motion 10m
Wed Aug 5 06:38, status motion
Wed Aug 5 06:34, status motion
Wed Aug 5 06:22, no_motion 30m
Wed Aug 5 06:12, no_motion 20m
Wed Aug 5 06:02, no_motion 10m
Wed Aug 5 05:52, status motion
Wed Aug 5 05:04, no_motion 30m
Wed Aug 5 04:54, no_motion 20m
Wed Aug 5 04:34, status motion
Wed Aug 5 03:50, no_motion 30m
Wed Aug 5 03:40, no_motion 20m
Wed Aug 5 03:30, no_motion 10m
Wed Aug 5 03:20, status motion
Wed Aug 5 02:12, no_motion 20m
Wed Aug 5 02:02, no_motion 10m
Wed Aug 5 01:52, status motion
Tue Aug 4 23:40, no_motion 30m
Tue Aug 4 23:30, no_motion 20m
Tue Aug 4 23:20, no_motion 10m
Tue Aug 4 23:10, status motion
Tue Aug 4 23:07, status motion
Tue Aug 4 23:06, status motion
Tue Aug 4 22:58, no_motion 10m
Tue Aug 4 22:48, status motion
Tue Aug 4 22:47, status motion
Tue Aug 4 22:43, no_motion 20m
Tue Aug 4 22:33, no_motion 10m
Tue Aug 4 22:23, status motion
Tue Aug 4 21:37, no_motion 30m
Tue Aug 4 21:27, no_motion 20m
Tue Aug 4 21:17, no_motion 10m
Tue Aug 4 21:07, status motion
Tue Aug 4 20:50, no_motion 30m
Tue Aug 4 20:40, no_motion 20m
Tue Aug 4 20:30, no_motion 10m
Tue Aug 4 20:20, status motion
Tue Aug 4 20:11, no_motion 10m
Tue Aug 4 20:01, status motion
Tue Aug 4 20:00, status motion
Tue Aug 4 19:58, status motion
Tue Aug 4 18:37, no_motion 30m
Tue Aug 4 18:27, no_motion 20m
Tue Aug 4 18:17, no_motion 10m
Tue Aug 4 18:07, status motion
Tue Aug 4 18:04, no_motion 20m
Tue Aug 4 17:55, no_motion 10m
Tue Aug 4 17:45, status motion
Tue Aug 4 17:36, status motion
Tue Aug 4 17:35, status motion
Tue Aug 4 17:33, status motion
Tue Aug 4 17:32, status motion
Tue Aug 4 16:47, no_motion 30m
Tue Aug 4 16:37, no_motion 20m
Tue Aug 4 16:27, no_motion 10m
Tue Aug 4 16:17, status motion
Tue Aug 4 16:15, status motion
Tue Aug 4 16:14, status motion
Tue Aug 4 16:13, status motion
Tue Aug 4 15:07, no_motion 30m
Tue Aug 4 14:57, no_motion 20m
Tue Aug 4 14:47, no_motion 10m
Tue Aug 4 14:37, status motion
Tue Aug 4 14:30, status motion
Tue Aug 4 14:25, status motion
Tue Aug 4 14:22, no_motion 20m
Tue Aug 4 14:12, no_motion 10m
Tue Aug 4 14:02, status motion
Tue Aug 4 13:52, status motion
Tue Aug 4 13:51, status motion
Tue Aug 4 13:46, no_motion 10m
Tue Aug 4 13:36, status motion
Tue Aug 4 13:29, no_motion 30m
Tue Aug 4 13:19, no_motion 20m
Tue Aug 4 13:09, no_motion 10m
Tue Aug 4 12:59, status motion
Tue Aug 4 12:58, status motion
Tue Aug 4 12:52, status motion
Tue Aug 4 12:51, status motion
Tue Aug 4 12:49, status motion
Tue Aug 4 12:47, status motion
Tue Aug 4 10:42, no_motion 30m
Tue Aug 4 10:32, no_motion 20m
Tue Aug 4 10:22, no_motion 10m
Tue Aug 4 10:12, status motion
Tue Aug 4 10:10, status motion
Tue Aug 4 10:09, status motion
Tue Aug 4 10:07, status motion
Tue Aug 4 09:59, no_motion 10m
Tue Aug 4 09:49, status motion
Tue Aug 4 09:42, status motion
Tue Aug 4 09:40, no_motion 20m
Tue Aug 4 09:30, no_motion 10m
Tue Aug 4 09:20, status motion
Tue Aug 4 09:17, status motion
Tue Aug 4 09:16, status motion
Tue Aug 4 09:15, status motion
Tue Aug 4 09:14, status motion
Tue Aug 4 09:13, status motion
Tue Aug 4 09:11, status motion
Tue Aug 4 09:10, status motion
Tue Aug 4 09:09, status motion
Tue Aug 4 09:04, status motion
Tue Aug 4 09:03, status motion
Tue Aug 4 08:57, no_motion 30m
Tue Aug 4 08:47, no_motion 20m
Tue Aug 4 08:37, no_motion 10m
Tue Aug 4 08:27, status motion
Tue Aug 4 08:23, status motion
Tue Aug 4 08:21, status motion
Tue Aug 4 08:20, status motion
Tue Aug 4 08:14, status motion
Tue Aug 4 08:09, status motion
Tue Aug 4 07:58, no_motion 30m
Tue Aug 4 07:48, no_motion 20m
Tue Aug 4 07:38, no_motion 10m
Tue Aug 4 07:28, status motion
Tue Aug 4 07:23, status motion
Tue Aug 4 07:22, status motion
Tue Aug 4 06:12, no_motion 30m
Tue Aug 4 06:02, no_motion 20m
Tue Aug 4 05:52, no_motion 10m
Tue Aug 4 05:42, status motion
Tue Aug 4 05:40, status motion
Tue Aug 4 02:31, no_motion 30m
Tue Aug 4 02:21, no_motion 20m
Tue Aug 4 02:11, no_motion 10m
Tue Aug 4 02:01, status motion
Tue Aug 4 01:59, status motion
Mon Aug 3 23:46, no_motion 30m
Mon Aug 3 23:36, no_motion 20m
Mon Aug 3 23:26, no_motion 10m
Mon Aug 3 23:16, status motion
Mon Aug 3 23:13, status motion
Mon Aug 3 23:11, status motion
Mon Aug 3 22:41, no_motion 30m
Mon Aug 3 22:31, no_motion 20m
Mon Aug 3 22:21, no_motion 10m
Mon Aug 3 22:11, status motion
Mon Aug 3 22:10, status motion
Mon Aug 3 22:04, no_motion 10m
Mon Aug 3 21:54, status motion
Mon Aug 3 21:21, no_motion 30m
Mon Aug 3 21:11, no_motion 20m
Mon Aug 3 21:01, no_motion 10m
Mon Aug 3 20:51, status motion
Mon Aug 3 20:50, status motion
Mon Aug 3 20:48, status motion
Mon Aug 3 20:31, no_motion 30m
Mon Aug 3 20:22, no_motion 20m
Mon Aug 3 20:12, no_motion 10m
Mon Aug 3 20:02, status motion
Mon Aug 3 19:57, status motion
Mon Aug 3 19:52, status motion
Mon Aug 3 19:51, no_motion 10m
Mon Aug 3 19:41, status motion
Mon Aug 3 19:38, no_motion 10m
Mon Aug 3 19:28, status motion
Mon Aug 3 19:26, no_motion 10m
Mon Aug 3 19:16, status motion
Mon Aug 3 19:14, status motion
Mon Aug 3 19:14, no_motion 20m
Mon Aug 3 19:04, no_motion 10m
Mon Aug 3 18:54, status motion
Mon Aug 3 18:48, no_motion 10m
Mon Aug 3 18:38, status motion
Mon Aug 3 17:20, no_motion 30m
Mon Aug 3 17:10, no_motion 20m
Mon Aug 3 17:00, no_motion 10m
Mon Aug 3 16:50, status motion
Mon Aug 3 16:49, status motion
Mon Aug 3 16:40, status motion
Mon Aug 3 16:33, status motion
Mon Aug 3 16:31, status motion
Mon Aug 3 16:30, status motion
Mon Aug 3 15:47, no_motion 30m
Mon Aug 3 15:37, no_motion 20m
Mon Aug 3 15:27, no_motion 10m
Mon Aug 3 15:17, status motion
Mon Aug 3 15:16, status motion
Mon Aug 3 15:14, status motion
Mon Aug 3 15:12, status motion
Mon Aug 3 15:11, status motion
Mon Aug 3 15:08, status motion
Mon Aug 3 15:07, status motion
Mon Aug 3 15:03, status motion
Mon Aug 3 14:55, status motion
Mon Aug 3 14:53, status motion
Mon Aug 3 14:52, status motion
Mon Aug 3 14:48, status motion
Mon Aug 3 13:59, no_motion 30m
Mon Aug 3 13:49, no_motion 20m
Mon Aug 3 13:39, no_motion 10m
Mon Aug 3 13:29, status motion
Mon Aug 3 13:27, status motion
Mon Aug 3 13:25, status motion
Mon Aug 3 13:23, status motion
Mon Aug 3 13:20, status motion
Mon Aug 3 13:18, status motion
Mon Aug 3 13:16, no_motion 10m
Mon Aug 3 13:06, status motion
Mon Aug 3 13:03, status motion
Mon Aug 3 13:01, status motion
Mon Aug 3 12:48, no_motion 30m
Mon Aug 3 12:38, no_motion 20m
Mon Aug 3 12:28, no_motion 10m
Mon Aug 3 12:18, status motion
Mon Aug 3 12:12, status motion
Mon Aug 3 12:09, status motion
Mon Aug 3 12:08, status motion
Mon Aug 3 12:03, status motion
Mon Aug 3 12:02, status motion
Mon Aug 3 12:01, status motion
Mon Aug 3 11:59, no_motion 10m
Mon Aug 3 11:49, status motion
Mon Aug 3 11:40, status motion
Mon Aug 3 11:35, status motion
Mon Aug 3 11:28, no_motion 20m
Mon Aug 3 11:18, no_motion 10m
Mon Aug 3 11:08, status motion
Mon Aug 3 11:04, status motion
Mon Aug 3 10:57, status motion
Mon Aug 3 10:54, no_motion 10m
Mon Aug 3 10:44, status motion
Mon Aug 3 10:35, status motion
Mon Aug 3 10:31, status motion
Mon Aug 3 10:26, status motion
Mon Aug 3 10:02, no_motion 30m
Mon Aug 3 09:52, no_motion 20m
Mon Aug 3 09:42, no_motion 10m
Mon Aug 3 09:32, status motion
Mon Aug 3 09:31, status motion
Mon Aug 3 09:28, no_motion 20m
Mon Aug 3 09:18, no_motion 10m
Mon Aug 3 09:08, status motion
Mon Aug 3 09:00, no_motion 30m
Mon Aug 3 08:50, no_motion 20m
Mon Aug 3 08:40, no_motion 10m
Mon Aug 3 08:30, status motion
Mon Aug 3 08:27, no_motion 20m
Mon Aug 3 08:17, no_motion 10m
Mon Aug 3 08:07, status motion
Mon Aug 3 08:04, no_motion 10m
Mon Aug 3 07:54, status motion
Mon Aug 3 07:51, status motion
Mon Aug 3 07:49, status motion
Mon Aug 3 07:47, status motion
Mon Aug 3 07:46, status motion
Mon Aug 3 07:45, status motion
Mon Aug 3 07:44, no_motion 10m
Mon Aug 3 07:34, status motion
Mon Aug 3 07:32, status motion
Mon Aug 3 07:31, no_motion 10m
Mon Aug 3 07:21, status motion
Mon Aug 3 07:16, status motion
Mon Aug 3 07:08, status motion
Mon Aug 3 07:06, status motion
Mon Aug 3 07:04, status motion
Mon Aug 3 07:02, status motion
Mon Aug 3 06:57, status motion
Mon Aug 3 06:56, status motion
Mon Aug 3 06:55, no_motion 10m
Mon Aug 3 06:45, status motion
Mon Aug 3 06:43, status motion
Mon Aug 3 06:41, status motion
Mon Aug 3 06:35, status motion
Mon Aug 3 06:33, status motion
Mon Aug 3 06:28, status motion
Mon Aug 3 06:25, status motion
Mon Aug 3 06:24, no_motion 30m
Mon Aug 3 06:14, no_motion 20m
Mon Aug 3 06:04, no_motion 10m
Mon Aug 3 05:54, status motion
Mon Aug 3 05:53, status motion
Mon Aug 3 02:46, no_motion 30m
Mon Aug 3 02:36, no_motion 20m
Mon Aug 3 02:26, no_motion 10m
Mon Aug 3 02:16, status motion
Mon Aug 3 02:13, no_motion 20m
Mon Aug 3 02:03, no_motion 10m
Mon Aug 3 01:53, status motion
Mon Aug 3 01:50, status motion
Mon Aug 3 01:48, status motion
Mon Aug 3 01:39, no_motion 10m
Mon Aug 3 01:29, status motion
Mon Aug 3 01:24, no_motion 30m
Mon Aug 3 01:14, no_motion 20m
Mon Aug 3 01:04, no_motion 10m
Mon Aug 3 00:55, status motion
Mon Aug 3 00:53, status motion
Sun Aug 2 22:53, no_motion 30m
Sun Aug 2 22:43, no_motion 20m
Sun Aug 2 22:33, no_motion 10m
Sun Aug 2 22:24, status motion
Sun Aug 2 22:22, status motion
Sun Aug 2 22:17, no_motion 10m
Sun Aug 2 22:07, status motion
Sun Aug 2 21:59, status motion
Sun Aug 2 20:29, no_motion 30m
Sun Aug 2 20:19, no_motion 20m
Sun Aug 2 20:09, no_motion 10m
Sun Aug 2 19:59, status motion
Sun Aug 2 19:57, status motion
Sun Aug 2 19:51, no_motion 10m
Sun Aug 2 19:41, status motion
Sun Aug 2 19:36, status motion
Sun Aug 2 19:34, status motion
Sun Aug 2 19:06, no_motion 30m
Sun Aug 2 18:56, no_motion 20m
Sun Aug 2 18:46, no_motion 10m
Sun Aug 2 18:36, status motion
Sun Aug 2 18:33, no_motion 20m
Sun Aug 2 18:23, no_motion 10m
Sun Aug 2 18:13, status motion
Sun Aug 2 18:12, status motion
Sun Aug 2 18:06, status motion
Sun Aug 2 18:03, status motion
Sun Aug 2 18:01, status motion
Sun Aug 2 17:54, no_motion 30m
Sun Aug 2 17:44, no_motion 20m
Sun Aug 2 17:34, no_motion 10m
Sun Aug 2 17:24, status motion
Sun Aug 2 17:22, status motion
Sun Aug 2 17:17, status motion
Sun Aug 2 17:15, status motion
Sun Aug 2 17:14, status motion
Sun Aug 2 17:13, status motion
Sun Aug 2 17:12, status motion
Sun Aug 2 17:10, status motion
Sun Aug 2 17:09, status motion
Sun Aug 2 16:15, no_motion 30m
Sun Aug 2 16:05, no_motion 20m
Sun Aug 2 15:56, no_motion 10m
Sun Aug 2 15:46, status motion
Sun Aug 2 15:44, status motion
Sun Aug 2 15:43, status motion
Sun Aug 2 15:42, status motion
Sun Aug 2 15:41, status motion
Sun Aug 2 15:37, status motion
Sun Aug 2 15:35, status motion
Sun Aug 2 15:32, status motion
Sun Aug 2 15:30, status motion
Sun Aug 2 15:29, status motion
Sun Aug 2 15:21, status motion
Sun Aug 2 15:03, no_motion 30m
Sun Aug 2 14:53, no_motion 20m
Sun Aug 2 14:43, no_motion 10m
Sun Aug 2 14:33, status motion
Sun Aug 2 14:31, status motion
Sun Aug 2 14:28, status motion
Sun Aug 2 14:27, no_motion 20m
Sun Aug 2 14:17, no_motion 10m
Sun Aug 2 14:07, status motion
Sun Aug 2 14:06, status motion
Sun Aug 2 14:04, status motion
Sun Aug 2 14:04, no_motion 30m
Sun Aug 2 13:54, no_motion 20m
Sun Aug 2 13:44, no_motion 10m
Sun Aug 2 13:34, status motion
Sun Aug 2 13:31, status motion
Sun Aug 2 13:24, status motion
Sun Aug 2 12:12, no_motion 30m
Sun Aug 2 12:02, no_motion 20m
Sun Aug 2 11:52, no_motion 10m
Sun Aug 2 11:42, status motion
Sun Aug 2 11:38, status motion
Sun Aug 2 11:36, status motion
Sun Aug 2 11:35, status motion
Sun Aug 2 11:32, status motion
Sun Aug 2 11:30, status motion
Sun Aug 2 11:28, status motion
Sun Aug 2 10:50, no_motion 30m
Sun Aug 2 10:40, no_motion 20m
Sun Aug 2 10:30, no_motion 10m
Sun Aug 2 10:20, status motion
Sun Aug 2 10:18, status motion
Sun Aug 2 10:16, no_motion 20m
Sun Aug 2 10:06, no_motion 10m
Sun Aug 2 09:56, status motion
Sun Aug 2 09:54, status motion
Sun Aug 2 09:53, status motion
Sun Aug 2 09:52, status motion
Sun Aug 2 09:50, status motion
Sun Aug 2 09:49, status motion
Sun Aug 2 09:47, status motion
Sun Aug 2 09:46, status motion
Sun Aug 2 09:45, status motion
Sun Aug 2 09:39, status motion
Sun Aug 2 09:38, status motion
Sun Aug 2 09:34, status motion
Sun Aug 2 09:33, status motion
Sun Aug 2 09:30, status motion
Sun Aug 2 09:22, no_motion 10m
Sun Aug 2 09:12, status motion
Sun Aug 2 09:11, status motion
Sun Aug 2 09:10, status motion
Sun Aug 2 09:08, status motion
Sun Aug 2 09:07, status motion
Sun Aug 2 09:06, status motion
Sun Aug 2 09:03, status motion
Sun Aug 2 09:01, status motion
Sun Aug 2 08:40, no_motion 30m
Sun Aug 2 08:30, no_motion 20m
Sun Aug 2 08:20, no_motion 10m
Sun Aug 2 08:10, status motion
Sun Aug 2 08:06, status motion
Sun Aug 2 06:38, no_motion 30m
Sun Aug 2 06:28, no_motion 20m
Sun Aug 2 06:18, no_motion 10m
Sun Aug 2 06:08, status motion
Sun Aug 2 06:06, status motion
Sun Aug 2 06:05, status motion
Sun Aug 2 04:44, no_motion 30m
Sun Aug 2 04:34, no_motion 20m
Sun Aug 2 04:24, no_motion 10m
Sun Aug 2 04:14, status motion
Sun Aug 2 04:11, status motion
Sun Aug 2 04:08, status motion
Sun Aug 2 00:17, no_motion 30m
Sun Aug 2 00:07, no_motion 20m
Sat Aug 1 23:57, no_motion 10m
Sat Aug 1 23:47, status motion
Sat Aug 1 23:45, status motion
Sat Aug 1 23:33, no_motion 30m
Sat Aug 1 23:23, no_motion 20m
Sat Aug 1 23:13, no_motion 10m
Sat Aug 1 23:03, status motion
Sat Aug 1 22:59, no_motion 20m
Sat Aug 1 22:49, no_motion 10m
Sat Aug 1 22:39, status motion
Sat Aug 1 22:36, no_motion 10m
Sat Aug 1 22:26, status motion
Sat Aug 1 21:40, no_motion 30m
Sat Aug 1 21:30, no_motion 20m
Sat Aug 1 21:20, no_motion 10m
Sat Aug 1 21:10, status motion
Sat Aug 1 21:07, status motion
Sat Aug 1 20:46, no_motion 20m
Sat Aug 1 20:36, no_motion 10m
Sat Aug 1 20:26, status motion
Sat Aug 1 20:19, no_motion 30m
Sat Aug 1 20:09, no_motion 20m
Sat Aug 1 19:59, no_motion 10m
Sat Aug 1 19:49, status motion
Sat Aug 1 19:47, status motion
Sat Aug 1 19:45, status motion
Sat Aug 1 19:42, status motion
Sat Aug 1 19:41, status motion
Sat Aug 1 19:39, status motion
Sat Aug 1 19:32, no_motion 30m
Sat Aug 1 19:22, no_motion 20m
Sat Aug 1 19:12, no_motion 10m
Sat Aug 1 19:02, status motion
Sat Aug 1 18:40, no_motion 30m
Sat Aug 1 18:30, no_motion 20m
Sat Aug 1 18:20, no_motion 10m
Sat Aug 1 18:10, status motion
Sat Aug 1 18:09, no_motion 10m
Sat Aug 1 18:00, status motion
Sat Aug 1 16:41, no_motion 30m
Sat Aug 1 16:31, no_motion 20m
Sat Aug 1 16:21, no_motion 10m
Sat Aug 1 16:11, status motion
Sat Aug 1 16:09, status motion
Sat Aug 1 16:08, status motion
Sat Aug 1 16:07, status motion
Sat Aug 1 15:59, no_motion 20m
Sat Aug 1 15:49, no_motion 10m
Sat Aug 1 15:39, status motion
Sat Aug 1 15:38, status motion
Sat Aug 1 14:45, no_motion 30m
Sat Aug 1 14:35, no_motion 20m
Sat Aug 1 14:25, no_motion 10m
Sat Aug 1 14:15, status motion
Sat Aug 1 14:09, no_motion 20m
Sat Aug 1 13:59, no_motion 10m
Sat Aug 1 13:49, status motion
Sat Aug 1 13:42, status motion
Sat Aug 1 13:41, status motion
Sat Aug 1 13:40, status motion
Sat Aug 1 13:35, status motion
Sat Aug 1 13:29, no_motion 20m
Sat Aug 1 13:19, no_motion 10m
Sat Aug 1 13:09, status motion
Sat Aug 1 13:06, status motion
Sat Aug 1 13:03, status motion
Sat Aug 1 13:00, status motion
Sat Aug 1 12:43, no_motion 30m
Sat Aug 1 12:33, no_motion 20m
Sat Aug 1 12:23, no_motion 10m
Sat Aug 1 12:14, status motion
Sat Aug 1 12:10, status motion
Sat Aug 1 12:08, no_motion 20m
Sat Aug 1 11:58, no_motion 10m
Sat Aug 1 11:48, status motion
Sat Aug 1 11:46, status motion
Sat Aug 1 11:40, status motion
Sat Aug 1 11:38, status motion
Sat Aug 1 11:36, status motion
Sat Aug 1 11:27, status motion
Sat Aug 1 11:26, status motion
Sat Aug 1 11:21, no_motion 10m
Sat Aug 1 11:11, status motion
Sat Aug 1 11:10, status motion
Sat Aug 1 11:05, status motion
Sat Aug 1 11:00, no_motion 30m
Sat Aug 1 10:50, no_motion 20m
Sat Aug 1 10:40, no_motion 10m
Sat Aug 1 10:30, status motion
Sat Aug 1 10:25, status motion
Sat Aug 1 10:17, status motion
Sat Aug 1 10:12, status motion
Sat Aug 1 10:10, status motion
Sat Aug 1 10:09, status motion
Sat Aug 1 09:35, no_motion 30m
Sat Aug 1 09:25, no_motion 20m
Sat Aug 1 09:15, no_motion 10m

s5 Liv-Room PiR
Wed Aug 5 20:02, status motion

Wed Aug 5 20:02, status motion
Wed Aug 5 20:01, status motion
Wed Aug 5 19:56, status motion
Wed Aug 5 19:54, status motion
Wed Aug 5 19:49, status motion
Wed Aug 5 19:47, status motion
Wed Aug 5 19:41, no_motion 10m
Wed Aug 5 19:31, status motion
Wed Aug 5 19:29, status motion
Wed Aug 5 19:23, status motion
Wed Aug 5 19:16, status motion
Wed Aug 5 19:14, status motion
Wed Aug 5 19:10, status motion
Wed Aug 5 19:09, no_motion 10m
Wed Aug 5 18:59, status motion
Wed Aug 5 18:55, status motion
Wed Aug 5 18:54, status motion
Wed Aug 5 18:51, status motion
Wed Aug 5 18:50, status motion
Wed Aug 5 18:50, no_motion 10m
Wed Aug 5 18:40, status motion
Wed Aug 5 18:37, status motion
Wed Aug 5 18:34, status motion
Wed Aug 5 18:29, status motion
Wed Aug 5 18:28, status motion
Wed Aug 5 18:25, status motion
Wed Aug 5 18:23, status motion
Wed Aug 5 18:22, no_motion 20m
Wed Aug 5 18:12, no_motion 10m
Wed Aug 5 18:02, status motion
Wed Aug 5 18:01, status motion
Wed Aug 5 17:56, status motion
Wed Aug 5 17:52, status motion
Wed Aug 5 17:49, status motion
Wed Aug 5 17:45, status motion
Wed Aug 5 17:35, status motion
Wed Aug 5 17:31, status motion
Wed Aug 5 17:30, status motion
Wed Aug 5 17:24, status motion
Wed Aug 5 17:22, no_motion 10m
Wed Aug 5 17:12, status motion
Wed Aug 5 17:11, status motion
Wed Aug 5 17:10, status motion
Wed Aug 5 17:08, status motion
Wed Aug 5 17:04, status motion
Wed Aug 5 17:03, status motion
Wed Aug 5 16:57, status motion
Wed Aug 5 16:54, status motion
Wed Aug 5 16:49, status motion
Wed Aug 5 16:45, status motion
Wed Aug 5 16:44, status motion
Wed Aug 5 16:39, status motion
Wed Aug 5 16:33, status motion
Wed Aug 5 16:28, no_motion 10m
Wed Aug 5 16:18, status motion
Wed Aug 5 16:17, status motion
Wed Aug 5 16:10, status motion
Wed Aug 5 16:09, status motion
Wed Aug 5 16:05, status motion
Wed Aug 5 16:04, status motion
Wed Aug 5 16:03, status motion
Wed Aug 5 16:01, status motion
Wed Aug 5 15:59, status motion
Wed Aug 5 15:56, status motion
Wed Aug 5 15:55, status motion
Wed Aug 5 15:54, status motion
Wed Aug 5 15:52, status motion
Wed Aug 5 15:51, status motion
Wed Aug 5 15:50, status motion
Wed Aug 5 15:49, status motion
Wed Aug 5 15:48, status motion
Wed Aug 5 15:47, status motion
Wed Aug 5 15:46, status motion
Wed Aug 5 15:43, status motion
Wed Aug 5 15:42, status motion
Wed Aug 5 15:39, status motion
Wed Aug 5 15:37, status motion
Wed Aug 5 15:30, status motion
Wed Aug 5 15:24, status motion
Wed Aug 5 15:23, status motion
Wed Aug 5 15:17, no_motion 10m
Wed Aug 5 15:07, status motion
Wed Aug 5 15:04, status motion
Wed Aug 5 14:55, no_motion 20m
Wed Aug 5 14:45, no_motion 10m
Wed Aug 5 14:35, status motion
Wed Aug 5 14:34, status motion
Wed Aug 5 14:33, no_motion 20m
Wed Aug 5 14:23, no_motion 10m
Wed Aug 5 14:13, status motion
Wed Aug 5 14:10, status motion
Wed Aug 5 14:07, status motion
Wed Aug 5 14:05, status motion
Wed Aug 5 13:58, status motion
Wed Aug 5 13:57, status motion
Wed Aug 5 13:55, status motion
Wed Aug 5 13:54, status motion
Wed Aug 5 13:51, no_motion 10m
Wed Aug 5 13:41, status motion
Wed Aug 5 13:40, status motion
Wed Aug 5 13:39, status motion
Wed Aug 5 13:38, status motion
Wed Aug 5 13:37, status motion
Wed Aug 5 13:36, status motion
Wed Aug 5 13:35, status motion
Wed Aug 5 13:32, status motion
Wed Aug 5 13:25, status motion
Wed Aug 5 13:24, status motion
Wed Aug 5 13:22, no_motion 20m
Wed Aug 5 13:12, no_motion 10m
Wed Aug 5 13:02, status motion
Wed Aug 5 12:54, status motion
Wed Aug 5 12:51, status motion
Wed Aug 5 12:50, status motion
Wed Aug 5 12:49, status motion
Wed Aug 5 12:47, no_motion 10m
Wed Aug 5 12:37, status motion
Wed Aug 5 12:36, no_motion 10m
Wed Aug 5 12:26, status motion
Wed Aug 5 12:25, no_motion 20m
Wed Aug 5 12:16, no_motion 10m
Wed Aug 5 12:06, status motion
Wed Aug 5 11:59, status motion
Wed Aug 5 11:53, status motion
Wed Aug 5 11:52, status motion
Wed Aug 5 11:51, status motion
Wed Aug 5 11:50, status motion
Wed Aug 5 11:48, status motion
Wed Aug 5 11:47, status motion
Wed Aug 5 11:46, status motion
Wed Aug 5 11:45, status motion
Wed Aug 5 11:44, status motion
Wed Aug 5 11:41, status motion
Wed Aug 5 11:40, status motion
Wed Aug 5 11:34, status motion
Wed Aug 5 11:33, no_motion 20m
Wed Aug 5 11:23, no_motion 10m
Wed Aug 5 11:13, status motion
Wed Aug 5 11:11, status motion
Wed Aug 5 11:10, status motion
Wed Aug 5 11:08, status motion
Wed Aug 5 11:07, status motion
Wed Aug 5 11:06, status motion
Wed Aug 5 11:05, status motion
Wed Aug 5 11:04, status motion
Wed Aug 5 11:03, status motion
Wed Aug 5 11:02, status motion
Wed Aug 5 11:01, status motion
Wed Aug 5 11:00, status motion
Wed Aug 5 10:59, status motion
Wed Aug 5 10:58, status motion
Wed Aug 5 10:57, status motion
Wed Aug 5 10:56, status motion
Wed Aug 5 10:55, status motion
Wed Aug 5 10:53, status motion
Wed Aug 5 10:52, status motion
Wed Aug 5 10:51, status motion
Wed Aug 5 10:50, status motion
Wed Aug 5 10:49, status motion
Wed Aug 5 10:47, status motion
Wed Aug 5 10:46, status motion
Wed Aug 5 10:45, status motion
Wed Aug 5 10:44, status motion
Wed Aug 5 10:43, status motion
Wed Aug 5 10:42, status motion
Wed Aug 5 10:41, status motion
Wed Aug 5 10:40, status motion
Wed Aug 5 10:39, status motion
Wed Aug 5 10:38, status motion
Wed Aug 5 10:37, status motion
Wed Aug 5 10:35, status motion
Wed Aug 5 10:34, status motion
Wed Aug 5 10:33, status motion
Wed Aug 5 10:32, status motion
Wed Aug 5 10:31, status motion
Wed Aug 5 10:30, status motion
Wed Aug 5 10:29, status motion
Wed Aug 5 10:28, status motion
Wed Aug 5 10:27, status motion
Wed Aug 5 10:26, status motion
Wed Aug 5 10:25, status motion
Wed Aug 5 10:24, status motion
Wed Aug 5 10:23, status motion
Wed Aug 5 10:22, status motion
Wed Aug 5 10:20, status motion
Wed Aug 5 10:19, status motion
Wed Aug 5 10:18, status motion
Wed Aug 5 10:17, status motion
Wed Aug 5 10:16, status motion
Wed Aug 5 10:15, status motion
Wed Aug 5 10:13, status motion
Wed Aug 5 10:12, status motion
Wed Aug 5 10:11, status motion
Wed Aug 5 10:10, status motion
Wed Aug 5 10:09, status motion
Wed Aug 5 10:08, status motion
Wed Aug 5 10:07, status motion
Wed Aug 5 10:06, status motion
Wed Aug 5 10:05, status motion
Wed Aug 5 10:04, status motion
Wed Aug 5 10:02, status motion
Wed Aug 5 10:01, status motion
Wed Aug 5 10:00, status motion
Wed Aug 5 09:58, status motion
Wed Aug 5 09:57, status motion
Wed Aug 5 09:55, status motion
Wed Aug 5 09:52, status motion
Wed Aug 5 09:51, status motion
Wed Aug 5 09:50, status motion
Wed Aug 5 09:46, status motion
Wed Aug 5 09:44, status motion
Wed Aug 5 09:36, status motion
Wed Aug 5 09:31, status motion
Wed Aug 5 09:25, status motion
Wed Aug 5 09:22, status motion
Wed Aug 5 09:21, status motion
Wed Aug 5 09:19, status motion
Wed Aug 5 09:14, status motion
Wed Aug 5 09:12, status motion
Wed Aug 5 09:05, status motion
Wed Aug 5 08:39, no_motion 30m
Wed Aug 5 08:29, no_motion 20m
Wed Aug 5 08:19, no_motion 10m
Wed Aug 5 08:09, status motion
Wed Aug 5 08:08, no_motion 30m
Wed Aug 5 07:58, no_motion 20m
Wed Aug 5 07:48, no_motion 10m
Wed Aug 5 07:38, status motion
Wed Aug 5 07:28, status motion
Wed Aug 5 07:25, status motion
Wed Aug 5 07:23, status motion
Wed Aug 5 07:14, status motion
Wed Aug 5 07:09, status motion
Wed Aug 5 07:01, no_motion 20m
Wed Aug 5 06:51, no_motion 10m
Wed Aug 5 06:41, status motion
Wed Aug 5 06:40, status motion
Wed Aug 5 06:21, no_motion 30m
Wed Aug 5 06:11, no_motion 20m
Wed Aug 5 06:01, no_motion 10m
Wed Aug 5 05:51, status motion
Wed Aug 5 05:50, status motion
Wed Aug 5 05:43, status motion
Wed Aug 5 05:38, status motion
Wed Aug 5 05:36, status motion
Wed Aug 5 05:35, status motion
Wed Aug 5 05:33, status motion
Wed Aug 5 05:32, status motion
Wed Aug 5 05:30, status motion
Wed Aug 5 05:27, status motion
Wed Aug 5 05:26, status motion
Wed Aug 5 05:23, status motion
Wed Aug 5 05:21, status motion
Wed Aug 5 05:19, status motion
Wed Aug 5 05:18, status motion
Wed Aug 5 05:16, status motion
Wed Aug 5 05:15, status motion
Wed Aug 5 05:13, status motion
Wed Aug 5 05:11, status motion
Wed Aug 5 05:10, status motion
Wed Aug 5 05:09, status motion
Wed Aug 5 05:08, status motion
Wed Aug 5 05:07, status motion
Wed Aug 5 05:04, status motion
Wed Aug 5 04:59, status motion
Wed Aug 5 04:56, status motion
Wed Aug 5 04:54, status motion
Wed Aug 5 04:53, status motion
Wed Aug 5 04:50, status motion
Wed Aug 5 04:46, status motion
Wed Aug 5 04:43, status motion
Wed Aug 5 04:42, status motion
Wed Aug 5 04:36, status motion
Wed Aug 5 04:35, status motion
Wed Aug 5 03:49, no_motion 30m
Wed Aug 5 03:39, no_motion 20m
Wed Aug 5 03:29, no_motion 10m
Wed Aug 5 03:19, status motion
Wed Aug 5 03:15, no_motion 10m
Wed Aug 5 03:05, status motion
Wed Aug 5 03:01, status motion
Wed Aug 5 02:57, no_motion 10m
Wed Aug 5 02:47, status motion
Wed Aug 5 02:40, no_motion 10m
Wed Aug 5 02:30, status motion
Wed Aug 5 02:25, status motion
Wed Aug 5 02:20, status motion
Wed Aug 5 02:17, no_motion 20m
Wed Aug 5 02:07, no_motion 10m
Wed Aug 5 01:57, status motion
Tue Aug 4 23:40, no_motion 30m
Tue Aug 4 23:30, no_motion 20m
Tue Aug 4 23:20, no_motion 10m
Tue Aug 4 23:10, status motion
Tue Aug 4 23:08, status motion
Tue Aug 4 23:07, status motion
Tue Aug 4 23:05, status motion
Tue Aug 4 23:02, no_motion 10m
Tue Aug 4 22:52, status motion
Tue Aug 4 22:46, status motion
Tue Aug 4 22:43, no_motion 20m
Tue Aug 4 22:33, no_motion 10m
Tue Aug 4 22:23, status motion
Tue Aug 4 22:21, status motion
Tue Aug 4 22:20, status motion
Tue Aug 4 22:19, status motion
Tue Aug 4 22:18, status motion
Tue Aug 4 22:16, status motion
Tue Aug 4 22:15, status motion
Tue Aug 4 22:08, no_motion 10m
Tue Aug 4 21:58, status motion
Tue Aug 4 21:57, status motion
Tue Aug 4 21:56, status motion
Tue Aug 4 21:55, status motion
Tue Aug 4 21:54, status motion
Tue Aug 4 21:53, status motion
Tue Aug 4 21:52, status motion
Tue Aug 4 21:50, status motion
Tue Aug 4 21:49, status motion
Tue Aug 4 21:48, status motion
Tue Aug 4 21:47, status motion
Tue Aug 4 21:46, status motion
Tue Aug 4 21:44, status motion
Tue Aug 4 21:43, status motion
Tue Aug 4 21:42, status motion
Tue Aug 4 21:40, status motion
Tue Aug 4 21:39, status motion
Tue Aug 4 21:38, status motion
Tue Aug 4 21:37, status motion
Tue Aug 4 21:35, status motion
Tue Aug 4 21:34, status motion
Tue Aug 4 21:33, status motion
Tue Aug 4 21:31, status motion
Tue Aug 4 21:30, status motion
Tue Aug 4 21:29, status motion
Tue Aug 4 21:27, status motion
Tue Aug 4 21:26, status motion
Tue Aug 4 21:25, status motion
Tue Aug 4 21:24, status motion
Tue Aug 4 21:23, status motion
Tue Aug 4 21:22, status motion
Tue Aug 4 21:20, status motion
Tue Aug 4 21:19, status motion
Tue Aug 4 21:18, status motion
Tue Aug 4 21:15, status motion
Tue Aug 4 21:11, status motion
Tue Aug 4 21:10, status motion
Tue Aug 4 21:08, status motion
Tue Aug 4 21:06, status motion
Tue Aug 4 21:05, status motion
Tue Aug 4 21:01, status motion
Tue Aug 4 20:59, status motion
Tue Aug 4 20:55, status motion
Tue Aug 4 20:53, status motion
Tue Aug 4 20:51, status motion
Tue Aug 4 20:50, status motion
Tue Aug 4 20:45, status motion
Tue Aug 4 20:40, status motion
Tue Aug 4 20:38, status motion
Tue Aug 4 20:35, no_motion 10m
Tue Aug 4 20:25, status motion
Tue Aug 4 20:23, status motion
Tue Aug 4 20:21, status motion
Tue Aug 4 20:18, status motion
Tue Aug 4 20:10, status motion
Tue Aug 4 20:05, status motion
Tue Aug 4 20:04, status motion
Tue Aug 4 20:01, status motion
Tue Aug 4 20:00, status motion
Tue Aug 4 19:57, status motion
Tue Aug 4 19:56, status motion
Tue Aug 4 19:55, status motion
Tue Aug 4 19:49, no_motion 10m
Tue Aug 4 19:39, status motion
Tue Aug 4 19:37, status motion
Tue Aug 4 19:34, status motion
Tue Aug 4 19:27, status motion
Tue Aug 4 19:26, status motion
Tue Aug 4 19:25, status motion
Tue Aug 4 19:24, status motion
Tue Aug 4 19:18, status motion
Tue Aug 4 19:16, status motion
Tue Aug 4 19:13, status motion
Tue Aug 4 19:11, status motion
Tue Aug 4 19:07, status motion
Tue Aug 4 19:00, status motion
Tue Aug 4 18:58, status motion
Tue Aug 4 18:52, status motion
Tue Aug 4 18:49, status motion
Tue Aug 4 18:46, status motion
Tue Aug 4 18:43, status motion
Tue Aug 4 18:42, status motion
Tue Aug 4 18:39, status motion
Tue Aug 4 18:32, status motion
Tue Aug 4 18:30, status motion
Tue Aug 4 18:29, status motion
Tue Aug 4 18:25, status motion
Tue Aug 4 18:22, status motion
Tue Aug 4 18:19, status motion
Tue Aug 4 18:18, status motion
Tue Aug 4 18:14, status motion
Tue Aug 4 18:08, status motion
Tue Aug 4 18:06, status motion
Tue Aug 4 17:57, status motion
Tue Aug 4 17:56, status motion
Tue Aug 4 17:46, status motion
Tue Aug 4 17:45, status motion
Tue Aug 4 17:37, status motion
Tue Aug 4 16:46, no_motion 30m
Tue Aug 4 16:36, no_motion 20m
Tue Aug 4 16:26, no_motion 10m
Tue Aug 4 16:16, status motion
Tue Aug 4 16:15, status motion
Tue Aug 4 16:14, status motion
Tue Aug 4 16:13, status motion
Tue Aug 4 16:12, status motion
Tue Aug 4 16:11, status motion
Tue Aug 4 16:10, status motion
Tue Aug 4 16:04, status motion
Tue Aug 4 15:58, status motion
Tue Aug 4 15:56, status motion
Tue Aug 4 15:53, status motion
Tue Aug 4 15:51, status motion
Tue Aug 4 15:43, status motion
Tue Aug 4 15:42, status motion
Tue Aug 4 15:40, no_motion 30m
Tue Aug 4 15:30, no_motion 20m
Tue Aug 4 15:20, no_motion 10m
Tue Aug 4 15:10, status motion
Tue Aug 4 15:01, no_motion 10m
Tue Aug 4 14:51, status motion
Tue Aug 4 14:48, status motion
Tue Aug 4 14:45, status motion
Tue Aug 4 14:41, status motion
Tue Aug 4 14:38, status motion
Tue Aug 4 14:37, status motion
Tue Aug 4 14:36, status motion
Tue Aug 4 14:35, status motion
Tue Aug 4 14:33, status motion
Tue Aug 4 14:32, status motion
Tue Aug 4 14:31, status motion
Tue Aug 4 14:29, status motion
Tue Aug 4 14:27, status motion
Tue Aug 4 14:26, status motion
Tue Aug 4 14:24, status motion
Tue Aug 4 14:21, status motion
Tue Aug 4 14:19, status motion
Tue Aug 4 14:13, no_motion 10m
Tue Aug 4 14:03, status motion
Tue Aug 4 14:01, status motion
Tue Aug 4 14:01, no_motion 10m
Tue Aug 4 13:51, status motion
Tue Aug 4 13:48, status motion
Tue Aug 4 13:46, status motion
Tue Aug 4 13:44, status motion
Tue Aug 4 13:43, status motion
Tue Aug 4 13:40, status motion
Tue Aug 4 13:39, status motion
Tue Aug 4 13:37, status motion
Tue Aug 4 13:36, status motion
Tue Aug 4 13:33, status motion
Tue Aug 4 13:31, status motion
Tue Aug 4 13:30, status motion
Tue Aug 4 13:27, status motion
Tue Aug 4 13:21, no_motion 30m
Tue Aug 4 13:11, no_motion 20m
Tue Aug 4 13:01, no_motion 10m
Tue Aug 4 12:51, status motion
Tue Aug 4 10:40, no_motion 30m
Tue Aug 4 10:30, no_motion 20m
Tue Aug 4 10:20, no_motion 10m
Tue Aug 4 10:10, status motion
Tue Aug 4 10:09, status motion
Tue Aug 4 10:07, status motion
Tue Aug 4 10:06, status motion
Tue Aug 4 09:57, status motion
Tue Aug 4 09:54, status motion
Tue Aug 4 09:52, status motion
Tue Aug 4 09:49, status motion
Tue Aug 4 09:42, status motion
Tue Aug 4 09:33, no_motion 10m
Tue Aug 4 09:23, status motion
Tue Aug 4 09:21, status motion
Tue Aug 4 09:17, status motion
Tue Aug 4 09:16, status motion
Tue Aug 4 09:15, status motion
Tue Aug 4 09:12, status motion
Tue Aug 4 09:11, status motion
Tue Aug 4 09:04, status motion
Tue Aug 4 09:02, status motion
Tue Aug 4 08:58, status motion
Tue Aug 4 08:51, no_motion 30m
Tue Aug 4 08:41, no_motion 20m
Tue Aug 4 08:31, no_motion 10m
Tue Aug 4 08:21, status motion
Tue Aug 4 08:13, status motion
Tue Aug 4 08:12, status motion
Tue Aug 4 07:58, no_motion 30m
Tue Aug 4 07:48, no_motion 20m
Tue Aug 4 07:38, no_motion 10m
Tue Aug 4 07:28, status motion
Tue Aug 4 07:19, status motion
Tue Aug 4 06:31, no_motion 30m
Tue Aug 4 06:21, no_motion 20m
Tue Aug 4 06:11, no_motion 10m
Tue Aug 4 06:01, status motion
Tue Aug 4 06:00, status motion
Tue Aug 4 05:58, status motion
Tue Aug 4 05:56, status motion
Tue Aug 4 05:52, status motion
Tue Aug 4 05:48, status motion
Tue Aug 4 05:47, status motion
Tue Aug 4 05:46, status motion
Mon Aug 3 23:42, no_motion 30m
Mon Aug 3 23:32, no_motion 20m
Mon Aug 3 23:22, no_motion 10m
Mon Aug 3 23:12, status motion
Mon Aug 3 23:11, status motion
Mon Aug 3 23:09, no_motion 20m
Mon Aug 3 22:59, no_motion 10m
Mon Aug 3 22:49, status motion
Mon Aug 3 22:48, status motion
Mon Aug 3 22:46, status motion
Mon Aug 3 22:38, no_motion 20m
Mon Aug 3 22:28, no_motion 10m
Mon Aug 3 22:18, status motion
Mon Aug 3 22:15, status motion
Mon Aug 3 22:13, no_motion 20m
Mon Aug 3 22:03, no_motion 10m
Mon Aug 3 21:53, status motion
Mon Aug 3 21:52, no_motion 20m
Mon Aug 3 21:42, no_motion 10m
Mon Aug 3 21:32, status motion
Mon Aug 3 21:31, status motion
Mon Aug 3 21:30, status motion
Mon Aug 3 21:27, status motion
Mon Aug 3 21:22, status motion
Mon Aug 3 21:21, status motion
Mon Aug 3 21:20, status motion
Mon Aug 3 21:18, status motion
Mon Aug 3 21:11, status motion
Mon Aug 3 21:10, status motion
Mon Aug 3 21:07, status motion
Mon Aug 3 21:06, status motion
Mon Aug 3 21:01, status motion
Mon Aug 3 20:59, status motion
Mon Aug 3 20:58, status motion
Mon Aug 3 20:56, status motion
Mon Aug 3 20:51, status motion
Mon Aug 3 20:46, status motion
Mon Aug 3 20:33, no_motion 30m
Mon Aug 3 20:23, no_motion 20m
Mon Aug 3 20:13, no_motion 10m
Mon Aug 3 20:03, status motion
Mon Aug 3 20:02, no_motion 10m
Mon Aug 3 19:52, status motion
Mon Aug 3 19:50, no_motion 10m
Mon Aug 3 19:40, status motion
Mon Aug 3 19:39, no_motion 10m
Mon Aug 3 19:29, status motion
Mon Aug 3 19:27, status motion
Mon Aug 3 19:26, status motion
Mon Aug 3 19:18, status motion
Mon Aug 3 19:17, status motion
Mon Aug 3 19:16, status motion
Mon Aug 3 19:15, status motion
Mon Aug 3 19:13, status motion
Mon Aug 3 19:12, status motion
Mon Aug 3 19:06, status motion
Mon Aug 3 18:59, status motion
Mon Aug 3 18:53, status motion
Mon Aug 3 18:51, status motion
Mon Aug 3 18:44, status motion
Mon Aug 3 18:38, status motion
Mon Aug 3 18:36, status motion
Mon Aug 3 18:32, status motion
Mon Aug 3 18:31, status motion
Mon Aug 3 18:28, status motion
Mon Aug 3 18:22, status motion
Mon Aug 3 18:21, status motion
Mon Aug 3 18:20, status motion
Mon Aug 3 18:17, status motion
Mon Aug 3 18:16, status motion
Mon Aug 3 18:14, status motion
Mon Aug 3 18:12, status motion
Mon Aug 3 18:11, status motion
Mon Aug 3 18:10, status motion
Mon Aug 3 18:04, status motion
Mon Aug 3 18:01, status motion
Mon Aug 3 18:00, status motion
Mon Aug 3 17:59, status motion
Mon Aug 3 17:57, status motion
Mon Aug 3 17:51, no_motion 10m
Mon Aug 3 17:41, status motion
Mon Aug 3 17:40, status motion
Mon Aug 3 17:39, status motion
Mon Aug 3 17:34, status motion
Mon Aug 3 17:30, no_motion 20m
Mon Aug 3 17:20, no_motion 10m
Mon Aug 3 17:10, status motion
Mon Aug 3 17:01, no_motion 10m
Mon Aug 3 16:51, status motion
Mon Aug 3 16:48, status motion
Mon Aug 3 16:46, status motion
Mon Aug 3 16:43, status motion
Mon Aug 3 16:39, status motion
Mon Aug 3 16:38, status motion
Mon Aug 3 16:34, status motion
Mon Aug 3 16:32, status motion
Mon Aug 3 15:47, no_motion 30m
Mon Aug 3 15:37, no_motion 20m
Mon Aug 3 15:27, no_motion 10m
Mon Aug 3 15:17, status motion
Mon Aug 3 15:14, status motion
Mon Aug 3 15:13, status motion
Mon Aug 3 15:12, status motion
Mon Aug 3 15:06, status motion
Mon Aug 3 15:05, status motion
Mon Aug 3 15:04, status motion
Mon Aug 3 15:02, status motion
Mon Aug 3 14:56, status motion
Mon Aug 3 14:52, status motion
Mon Aug 3 14:48, status motion
Mon Aug 3 14:36, no_motion 30m
Mon Aug 3 14:26, no_motion 20m
Mon Aug 3 14:16, no_motion 10m
Mon Aug 3 14:06, status motion
Mon Aug 3 13:58, status motion
Mon Aug 3 13:51, no_motion 20m
Mon Aug 3 13:41, no_motion 10m
Mon Aug 3 13:32, status motion
Mon Aug 3 13:29, status motion
Mon Aug 3 13:25, status motion
Mon Aug 3 13:23, status motion
Mon Aug 3 13:20, status motion
Mon Aug 3 13:19, status motion
Mon Aug 3 13:17, status motion
Mon Aug 3 13:16, status motion
Mon Aug 3 13:12, status motion
Mon Aug 3 13:11, status motion
Mon Aug 3 13:06, status motion
Mon Aug 3 13:04, status motion
Mon Aug 3 13:03, status motion
Mon Aug 3 13:01, status motion
Mon Aug 3 12:59, status motion
Mon Aug 3 12:56, status motion
Mon Aug 3 12:46, status motion
Mon Aug 3 12:40, status motion
Mon Aug 3 12:40, no_motion 10m
Mon Aug 3 12:30, status motion
Mon Aug 3 12:28, status motion
Mon Aug 3 12:24, status motion
Mon Aug 3 12:23, status motion
Mon Aug 3 12:21, status motion
Mon Aug 3 12:20, status motion
Mon Aug 3 12:19, status motion
Mon Aug 3 12:18, status motion
Mon Aug 3 12:17, status motion
Mon Aug 3 12:16, status motion
Mon Aug 3 12:15, status motion
Mon Aug 3 12:14, status motion
Mon Aug 3 12:13, status motion
Mon Aug 3 12:12, status motion
Mon Aug 3 12:09, status motion
Mon Aug 3 12:08, status motion
Mon Aug 3 12:07, status motion
Mon Aug 3 12:06, status motion
Mon Aug 3 12:04, status motion
Mon Aug 3 12:03, status motion
Mon Aug 3 12:02, status motion
Mon Aug 3 12:01, status motion
Mon Aug 3 12:00, status motion
Mon Aug 3 11:59, status motion
Mon Aug 3 11:58, status motion
Mon Aug 3 11:57, status motion
Mon Aug 3 11:56, status motion
Mon Aug 3 11:55, status motion
Mon Aug 3 11:54, status motion
Mon Aug 3 11:53, status motion
Mon Aug 3 11:52, status motion
Mon Aug 3 11:51, status motion
Mon Aug 3 11:50, status motion
Mon Aug 3 11:49, status motion
Mon Aug 3 11:48, status motion
Mon Aug 3 11:47, status motion
Mon Aug 3 11:46, status motion
Mon Aug 3 11:45, status motion
Mon Aug 3 11:44, status motion
Mon Aug 3 11:43, status motion
Mon Aug 3 11:41, status motion
Mon Aug 3 11:40, status motion
Mon Aug 3 11:35, status motion
Mon Aug 3 11:32, no_motion 20m
Mon Aug 3 11:22, no_motion 10m
Mon Aug 3 11:12, status motion
Mon Aug 3 11:09, status motion
Mon Aug 3 11:07, status motion
Mon Aug 3 11:05, status motion
Mon Aug 3 11:04, status motion
Mon Aug 3 10:57, status motion
Mon Aug 3 10:54, no_motion 10m
Mon Aug 3 10:44, status motion
Mon Aug 3 08:39, no_motion 30m
Mon Aug 3 08:29, no_motion 20m
Mon Aug 3 08:19, no_motion 10m
Mon Aug 3 08:09, status motion
Mon Aug 3 08:08, status motion
Mon Aug 3 07:12, no_motion 30m
Mon Aug 3 07:02, no_motion 20m
Mon Aug 3 06:52, no_motion 10m
Mon Aug 3 06:43, status motion
Mon Aug 3 06:42, status motion
Mon Aug 3 06:35, status motion
Mon Aug 3 02:45, no_motion 30m
Mon Aug 3 02:35, no_motion 20m
Mon Aug 3 02:25, no_motion 10m
Mon Aug 3 02:15, status motion
Mon Aug 3 02:01, no_motion 30m
Mon Aug 3 01:51, no_motion 20m
Mon Aug 3 01:41, no_motion 10m
Mon Aug 3 01:31, status motion
Sun Aug 2 22:40, no_motion 30m
Sun Aug 2 22:30, no_motion 20m
Sun Aug 2 22:20, no_motion 10m
Sun Aug 2 22:10, status motion
Sun Aug 2 22:08, status motion
Sun Aug 2 22:07, status motion
Sun Aug 2 22:06, no_motion 10m
Sun Aug 2 21:56, status motion
Sun Aug 2 21:55, status motion
Sun Aug 2 21:53, status motion
Sun Aug 2 21:52, status motion
Sun Aug 2 21:51, status motion
Sun Aug 2 21:50, status motion
Sun Aug 2 21:48, status motion
Sun Aug 2 21:46, status motion
Sun Aug 2 21:40, status motion
Sun Aug 2 21:39, status motion
Sun Aug 2 21:38, status motion
Sun Aug 2 21:36, status motion
Sun Aug 2 21:35, status motion
Sun Aug 2 21:33, status motion
Sun Aug 2 21:31, status motion
Sun Aug 2 21:29, status motion
Sun Aug 2 21:25, status motion
Sun Aug 2 21:21, status motion
Sun Aug 2 21:20, status motion
Sun Aug 2 21:17, status motion
Sun Aug 2 21:16, status motion
Sun Aug 2 21:13, status motion
Sun Aug 2 21:12, status motion
Sun Aug 2 21:10, status motion
Sun Aug 2 21:08, status motion
Sun Aug 2 21:06, status motion
Sun Aug 2 21:05, status motion
Sun Aug 2 21:04, status motion
Sun Aug 2 21:03, status motion
Sun Aug 2 20:57, status motion
Sun Aug 2 20:56, status motion
Sun Aug 2 20:53, status motion
Sun Aug 2 20:51, status motion
Sun Aug 2 20:50, status motion
Sun Aug 2 20:48, status motion
Sun Aug 2 20:45, status motion
Sun Aug 2 20:44, status motion
Sun Aug 2 20:41, status motion
Sun Aug 2 20:39, status motion
Sun Aug 2 20:36, status motion
Sun Aug 2 20:34, status motion
Sun Aug 2 20:30, status motion
Sun Aug 2 20:29, status motion
Sun Aug 2 20:22, status motion
Sun Aug 2 20:20, status motion
Sun Aug 2 20:19, status motion
Sun Aug 2 20:17, status motion
Sun Aug 2 20:16, status motion
Sun Aug 2 20:15, status motion
Sun Aug 2 20:13, status motion
Sun Aug 2 20:12, status motion
Sun Aug 2 20:07, status motion
Sun Aug 2 20:06, status motion
Sun Aug 2 20:04, status motion
Sun Aug 2 19:59, status motion
Sun Aug 2 19:58, no_motion 20m
Sun Aug 2 19:48, no_motion 10m
Sun Aug 2 19:38, status motion
Sun Aug 2 19:30, status motion
Sun Aug 2 19:20, status motion
Sun Aug 2 19:12, status motion
Sun Aug 2 19:09, status motion

s6 Kitchen PiR
Wed Aug 5 20:03, status motion

Wed Aug 5 20:03, status motion
Wed Aug 5 20:00, status motion
Wed Aug 5 19:59, status motion
Wed Aug 5 19:58, status motion
Wed Aug 5 19:57, status motion
Wed Aug 5 19:56, status motion
Wed Aug 5 19:55, status motion
Wed Aug 5 19:47, status motion
Wed Aug 5 19:25, no_motion 30m
Wed Aug 5 19:15, no_motion 20m
Wed Aug 5 19:05, no_motion 10m
Wed Aug 5 18:55, status motion
Wed Aug 5 18:54, status motion
Wed Aug 5 18:53, status motion
Wed Aug 5 18:52, status motion
Wed Aug 5 18:51, status motion
Wed Aug 5 18:50, status motion
Wed Aug 5 18:50, no_motion 10m
Wed Aug 5 18:40, status motion
Wed Aug 5 18:39, status motion
Wed Aug 5 18:38, status motion
Wed Aug 5 18:37, status motion
Wed Aug 5 18:34, status motion
Wed Aug 5 18:29, status motion
Wed Aug 5 18:28, status motion
Wed Aug 5 18:25, status motion
Wed Aug 5 18:24, status motion
Wed Aug 5 18:23, status motion
Wed Aug 5 18:21, no_motion 20m
Wed Aug 5 18:11, no_motion 10m
Wed Aug 5 18:01, status motion
Wed Aug 5 17:56, status motion
Wed Aug 5 17:54, status motion
Wed Aug 5 17:52, status motion
Wed Aug 5 17:49, status motion
Wed Aug 5 17:48, status motion
Wed Aug 5 17:47, status motion
Wed Aug 5 17:46, status motion
Wed Aug 5 17:45, status motion
Wed Aug 5 17:43, no_motion 10m
Wed Aug 5 17:33, status motion
Wed Aug 5 17:32, status motion
Wed Aug 5 17:30, status motion
Wed Aug 5 17:29, status motion
Wed Aug 5 17:28, status motion
Wed Aug 5 17:25, status motion
Wed Aug 5 17:23, no_motion 20m
Wed Aug 5 17:13, no_motion 10m
Wed Aug 5 17:03, status motion
Wed Aug 5 16:58, no_motion 20m
Wed Aug 5 16:48, no_motion 10m
Wed Aug 5 16:38, status motion
Wed Aug 5 16:37, status motion
Wed Aug 5 16:36, status motion
Wed Aug 5 16:35, status motion
Wed Aug 5 16:34, status motion
Wed Aug 5 16:28, no_motion 10m
Wed Aug 5 16:18, status motion
Wed Aug 5 16:17, status motion
Wed Aug 5 16:09, no_motion 10m
Wed Aug 5 15:59, status motion
Wed Aug 5 15:58, no_motion 10m
Wed Aug 5 15:48, status motion
Wed Aug 5 15:43, status motion
Wed Aug 5 15:42, status motion
Wed Aug 5 15:40, status motion
Wed Aug 5 15:39, status motion
Wed Aug 5 15:37, status motion
Wed Aug 5 15:35, status motion
Wed Aug 5 15:34, status motion
Wed Aug 5 15:33, status motion
Wed Aug 5 15:32, status motion
Wed Aug 5 15:30, status motion
Wed Aug 5 15:29, status motion
Wed Aug 5 15:28, status motion
Wed Aug 5 15:27, status motion
Wed Aug 5 15:26, status motion
Wed Aug 5 15:25, status motion
Wed Aug 5 15:24, status motion
Wed Aug 5 15:23, status motion
Wed Aug 5 15:21, status motion
Wed Aug 5 15:18, status motion
Wed Aug 5 15:17, status motion
Wed Aug 5 15:16, status motion
Wed Aug 5 15:15, status motion
Wed Aug 5 15:14, status motion
Wed Aug 5 15:13, status motion
Wed Aug 5 15:11, status motion
Wed Aug 5 15:10, status motion
Wed Aug 5 15:09, status motion
Wed Aug 5 15:08, status motion
Wed Aug 5 15:07, status motion
Wed Aug 5 15:06, status motion
Wed Aug 5 15:05, status motion
Wed Aug 5 14:55, no_motion 20m
Wed Aug 5 14:45, no_motion 10m
Wed Aug 5 14:35, status motion
Wed Aug 5 14:34, status motion
Wed Aug 5 14:29, no_motion 10m
Wed Aug 5 14:19, status motion
Wed Aug 5 14:18, status motion
Wed Aug 5 14:17, status motion
Wed Aug 5 14:16, status motion
Wed Aug 5 14:12, status motion
Wed Aug 5 14:05, status motion
Wed Aug 5 14:03, status motion
Wed Aug 5 14:02, status motion
Wed Aug 5 14:01, status motion
Wed Aug 5 14:00, status motion
Wed Aug 5 13:58, status motion
Wed Aug 5 13:57, status motion
Wed Aug 5 13:56, no_motion 20m
Wed Aug 5 13:46, no_motion 10m
Wed Aug 5 13:36, status motion
Wed Aug 5 13:31, status motion
Wed Aug 5 13:29, status motion
Wed Aug 5 13:26, status motion
Wed Aug 5 13:25, status motion
Wed Aug 5 13:24, status motion
Wed Aug 5 13:22, no_motion 20m
Wed Aug 5 13:12, no_motion 10m
Wed Aug 5 13:02, status motion
Wed Aug 5 12:54, status motion
Wed Aug 5 12:53, status motion
Wed Aug 5 12:52, status motion
Wed Aug 5 12:51, status motion
Wed Aug 5 12:50, status motion
Wed Aug 5 12:49, status motion
Wed Aug 5 12:48, status motion
Wed Aug 5 12:47, status motion
Wed Aug 5 12:46, status motion
Wed Aug 5 12:44, status motion
Wed Aug 5 12:43, status motion
Wed Aug 5 12:42, status motion
Wed Aug 5 12:38, status motion
Wed Aug 5 12:37, status motion
Wed Aug 5 12:36, status motion
Wed Aug 5 12:35, status motion
Wed Aug 5 12:34, status motion
Wed Aug 5 12:33, status motion
Wed Aug 5 12:32, status motion
Wed Aug 5 12:31, status motion
Wed Aug 5 12:30, status motion
Wed Aug 5 12:29, status motion
Wed Aug 5 12:28, status motion
Wed Aug 5 12:27, status motion
Wed Aug 5 12:26, status motion
Wed Aug 5 12:17, status motion
Wed Aug 5 12:16, status motion
Wed Aug 5 12:15, status motion
Wed Aug 5 12:14, status motion
Wed Aug 5 12:13, status motion
Wed Aug 5 12:12, status motion
Wed Aug 5 12:11, status motion
Wed Aug 5 12:10, status motion
Wed Aug 5 12:09, status motion
Wed Aug 5 12:08, status motion
Wed Aug 5 12:06, status motion
Wed Aug 5 12:02, status motion
Wed Aug 5 12:01, status motion
Wed Aug 5 11:59, status motion
Wed Aug 5 11:58, status motion
Wed Aug 5 11:56, status motion
Wed Aug 5 11:54, status motion
Wed Aug 5 11:53, status motion
Wed Aug 5 11:46, no_motion 10m
Wed Aug 5 11:25, status motion
Wed Aug 5 11:24, status motion
Wed Aug 5 11:23, no_motion 10m
Wed Aug 5 11:13, status motion
Wed Aug 5 11:10, status motion
Wed Aug 5 10:31, no_motion 30m
Wed Aug 5 10:21, no_motion 20m
Wed Aug 5 10:11, no_motion 10m
Wed Aug 5 10:01, status motion
Wed Aug 5 10:00, status motion
Wed Aug 5 09:58, status motion
Wed Aug 5 09:57, status motion
Wed Aug 5 09:56, status motion
Wed Aug 5 09:55, status motion
Wed Aug 5 09:53, status motion
Wed Aug 5 09:51, status motion
Wed Aug 5 09:50, status motion
Wed Aug 5 09:49, status motion
Wed Aug 5 09:48, status motion
Wed Aug 5 09:47, status motion
Wed Aug 5 09:46, status motion
Wed Aug 5 09:45, status motion
Wed Aug 5 09:44, status motion
Wed Aug 5 09:43, status motion
Wed Aug 5 09:42, status motion
Wed Aug 5 09:40, status motion
Wed Aug 5 09:38, status motion
Wed Aug 5 09:37, status motion
Wed Aug 5 09:36, status motion
Wed Aug 5 09:35, status motion
Wed Aug 5 09:32, status motion
Wed Aug 5 09:31, status motion
Wed Aug 5 09:29, status motion
Wed Aug 5 09:25, status motion
Wed Aug 5 09:24, status motion
Wed Aug 5 09:21, status motion
Wed Aug 5 09:20, status motion
Wed Aug 5 09:19, status motion
Wed Aug 5 09:18, status motion
Wed Aug 5 09:17, status motion
Wed Aug 5 09:15, status motion
Wed Aug 5 09:14, status motion
Wed Aug 5 09:13, status motion
Wed Aug 5 09:12, status motion
Wed Aug 5 09:10, status motion
Wed Aug 5 09:09, status motion
Wed Aug 5 09:08, status motion
Wed Aug 5 09:07, status motion
Wed Aug 5 09:06, status motion
Wed Aug 5 09:05, status motion
Wed Aug 5 09:01, status motion
Wed Aug 5 09:00, status motion
Wed Aug 5 08:57, status motion
Wed Aug 5 08:56, status motion
Wed Aug 5 08:55, status motion
Wed Aug 5 08:53, status motion
Wed Aug 5 08:51, status motion
Wed Aug 5 08:49, status motion
Wed Aug 5 08:48, status motion
Wed Aug 5 08:42, status motion
Wed Aug 5 08:41, status motion
Wed Aug 5 08:40, status motion
Wed Aug 5 08:39, status motion
Wed Aug 5 08:38, status motion
Wed Aug 5 08:37, status motion
Wed Aug 5 08:35, status motion
Wed Aug 5 08:34, status motion
Wed Aug 5 08:33, status motion
Wed Aug 5 08:32, status motion
Wed Aug 5 08:31, status motion
Wed Aug 5 08:30, status motion
Wed Aug 5 08:29, status motion
Wed Aug 5 08:24, no_motion 10m
Wed Aug 5 08:14, status motion
Wed Aug 5 08:13, status motion
Wed Aug 5 08:12, status motion
Wed Aug 5 08:11, status motion
Wed Aug 5 08:10, status motion
Wed Aug 5 08:09, status motion
Wed Aug 5 08:01, no_motion 20m
Wed Aug 5 07:51, no_motion 10m
Wed Aug 5 07:41, status motion
Wed Aug 5 07:40, status motion
Wed Aug 5 07:38, status motion
Wed Aug 5 07:35, no_motion 10m
Wed Aug 5 07:25, status motion
Wed Aug 5 07:23, status motion
Wed Aug 5 07:19, status motion
Wed Aug 5 07:17, status motion
Wed Aug 5 07:16, status motion
Wed Aug 5 07:15, status motion
Wed Aug 5 07:14, status motion
Wed Aug 5 07:08, status motion
Wed Aug 5 07:07, status motion
Wed Aug 5 07:06, status motion
Wed Aug 5 06:56, no_motion 10m
Wed Aug 5 06:46, status motion
Wed Aug 5 06:43, status motion
Wed Aug 5 06:42, status motion
Wed Aug 5 06:40, status motion
Wed Aug 5 06:39, status motion
Wed Aug 5 06:38, status motion
Wed Aug 5 06:35, status motion
Wed Aug 5 06:22, no_motion 30m
Wed Aug 5 06:12, no_motion 20m
Wed Aug 5 06:02, no_motion 10m
Wed Aug 5 05:52, status motion
Wed Aug 5 05:38, no_motion 30m
Wed Aug 5 05:28, no_motion 20m
Wed Aug 5 05:18, no_motion 10m
Wed Aug 5 05:08, status motion
Wed Aug 5 05:06, status motion
Wed Aug 5 05:05, status motion
Wed Aug 5 05:04, status motion
Wed Aug 5 03:49, no_motion 30m
Wed Aug 5 03:39, no_motion 20m
Wed Aug 5 03:29, no_motion 10m
Wed Aug 5 03:19, status motion
Wed Aug 5 02:26, no_motion 30m
Wed Aug 5 02:16, no_motion 20m
Wed Aug 5 02:06, no_motion 10m
Wed Aug 5 01:56, status motion
Wed Aug 5 01:55, status motion
Wed Aug 5 01:54, status motion
Wed Aug 5 01:53, status motion
Tue Aug 4 23:40, no_motion 30m
Tue Aug 4 23:30, no_motion 20m
Tue Aug 4 23:20, no_motion 10m
Tue Aug 4 23:10, status motion
Tue Aug 4 23:06, status motion
Tue Aug 4 23:05, status motion
Tue Aug 4 23:02, no_motion 10m
Tue Aug 4 22:52, status motion
Tue Aug 4 22:51, status motion
Tue Aug 4 22:50, status motion
Tue Aug 4 22:49, status motion
Tue Aug 4 22:48, status motion
Tue Aug 4 22:46, status motion
Tue Aug 4 22:43, no_motion 20m
Tue Aug 4 22:33, no_motion 10m
Tue Aug 4 22:23, status motion
Tue Aug 4 22:22, status motion
Tue Aug 4 22:21, status motion
Tue Aug 4 21:53, no_motion 30m
Tue Aug 4 21:43, no_motion 20m
Tue Aug 4 21:33, no_motion 10m
Tue Aug 4 21:23, status motion
Tue Aug 4 21:20, status motion
Tue Aug 4 21:19, status motion
Tue Aug 4 21:18, no_motion 10m
Tue Aug 4 21:08, status motion
Tue Aug 4 21:00, no_motion 20m
Tue Aug 4 20:50, no_motion 10m
Tue Aug 4 20:40, status motion
Tue Aug 4 20:39, status motion
Tue Aug 4 20:31, no_motion 10m
Tue Aug 4 20:21, status motion
Tue Aug 4 20:11, no_motion 10m
Tue Aug 4 20:01, status motion
Tue Aug 4 20:00, status motion
Tue Aug 4 19:58, status motion
Tue Aug 4 19:55, no_motion 20m
Tue Aug 4 19:45, no_motion 10m
Tue Aug 4 19:36, status motion
Tue Aug 4 19:34, status motion
Tue Aug 4 19:28, status motion
Tue Aug 4 19:27, status motion
Tue Aug 4 19:26, status motion
Tue Aug 4 19:24, status motion
Tue Aug 4 19:23, status motion
Tue Aug 4 19:22, status motion
Tue Aug 4 19:21, status motion
Tue Aug 4 19:20, status motion
Tue Aug 4 19:19, status motion
Tue Aug 4 19:18, status motion
Tue Aug 4 19:16, status motion
Tue Aug 4 19:12, status motion
Tue Aug 4 19:11, status motion
Tue Aug 4 19:10, status motion
Tue Aug 4 19:07, status motion
Tue Aug 4 19:06, status motion
Tue Aug 4 19:05, status motion
Tue Aug 4 19:04, status motion
Tue Aug 4 19:02, status motion
Tue Aug 4 19:01, status motion
Tue Aug 4 19:00, status motion
Tue Aug 4 18:59, status motion
Tue Aug 4 18:58, status motion
Tue Aug 4 18:57, status motion
Tue Aug 4 18:56, status motion
Tue Aug 4 18:55, status motion
Tue Aug 4 18:54, status motion
Tue Aug 4 18:53, status motion
Tue Aug 4 18:43, status motion
Tue Aug 4 18:41, no_motion 10m
Tue Aug 4 18:31, status motion
Tue Aug 4 18:22, status motion
Tue Aug 4 18:19, status motion
Tue Aug 4 18:18, status motion
Tue Aug 4 18:17, status motion
Tue Aug 4 18:16, status motion
Tue Aug 4 18:15, status motion
Tue Aug 4 18:14, status motion
Tue Aug 4 18:08, status motion
Tue Aug 4 18:06, status motion
Tue Aug 4 18:06, no_motion 10m
Tue Aug 4 17:56, status motion
Tue Aug 4 17:51, status motion
Tue Aug 4 17:46, status motion
Tue Aug 4 17:45, status motion
Tue Aug 4 17:36, status motion
Tue Aug 4 17:35, status motion
Tue Aug 4 17:34, status motion
Tue Aug 4 17:33, status motion
Tue Aug 4 17:31, status motion
Tue Aug 4 16:46, no_motion 30m
Tue Aug 4 16:36, no_motion 20m
Tue Aug 4 16:26, no_motion 10m
Tue Aug 4 16:16, status motion
Tue Aug 4 16:15, status motion
Tue Aug 4 16:13, status motion
Tue Aug 4 16:12, status motion
Tue Aug 4 16:05, no_motion 10m
Tue Aug 4 15:55, status motion
Tue Aug 4 15:54, status motion
Tue Aug 4 15:52, status motion
Tue Aug 4 15:51, status motion
Tue Aug 4 15:22, no_motion 30m
Tue Aug 4 15:12, no_motion 20m
Tue Aug 4 15:02, no_motion 10m
Tue Aug 4 14:52, status motion
Tue Aug 4 14:45, status motion
Tue Aug 4 14:44, status motion
Tue Aug 4 14:42, status motion
Tue Aug 4 14:41, status motion
Tue Aug 4 14:40, status motion
Tue Aug 4 14:39, status motion
Tue Aug 4 14:37, status motion
Tue Aug 4 14:36, status motion
Tue Aug 4 14:34, status motion
Tue Aug 4 14:30, status motion
Tue Aug 4 14:29, status motion
Tue Aug 4 14:28, status motion
Tue Aug 4 14:25, status motion
Tue Aug 4 14:23, no_motion 20m
Tue Aug 4 14:13, no_motion 10m
Tue Aug 4 14:03, status motion
Tue Aug 4 14:02, status motion
Tue Aug 4 13:52, status motion
Tue Aug 4 13:51, status motion
Tue Aug 4 13:48, status motion
Tue Aug 4 13:47, status motion
Tue Aug 4 13:46, status motion
Tue Aug 4 13:44, status motion
Tue Aug 4 13:43, status motion
Tue Aug 4 13:42, status motion
Tue Aug 4 13:40, status motion
Tue Aug 4 13:39, status motion
Tue Aug 4 13:38, status motion
Tue Aug 4 13:36, status motion
Tue Aug 4 13:35, status motion
Tue Aug 4 13:34, status motion
Tue Aug 4 13:33, status motion
Tue Aug 4 13:32, status motion
Tue Aug 4 13:30, status motion
Tue Aug 4 13:29, status motion
Tue Aug 4 13:28, status motion
Tue Aug 4 13:27, status motion
Tue Aug 4 13:25, status motion
Tue Aug 4 13:23, status motion
Tue Aug 4 13:21, status motion
Tue Aug 4 13:19, status motion
Tue Aug 4 13:17, status motion
Tue Aug 4 13:16, status motion
Tue Aug 4 13:15, status motion
Tue Aug 4 13:14, status motion
Tue Aug 4 13:12, status motion
Tue Aug 4 13:11, status motion
Tue Aug 4 13:10, status motion
Tue Aug 4 13:08, status motion
Tue Aug 4 13:07, status motion
Tue Aug 4 13:06, status motion
Tue Aug 4 13:05, status motion
Tue Aug 4 13:04, status motion
Tue Aug 4 13:02, status motion
Tue Aug 4 13:01, status motion
Tue Aug 4 13:00, status motion
Tue Aug 4 12:59, status motion
Tue Aug 4 12:57, status motion
Tue Aug 4 12:56, status motion
Tue Aug 4 12:55, status motion
Tue Aug 4 12:54, status motion
Tue Aug 4 12:53, status motion
Tue Aug 4 12:52, status motion
Tue Aug 4 12:51, status motion
Tue Aug 4 12:50, status motion
Tue Aug 4 12:49, status motion
Tue Aug 4 12:48, status motion
Tue Aug 4 12:47, status motion
Tue Aug 4 10:42, no_motion 30m
Tue Aug 4 10:32, no_motion 20m
Tue Aug 4 10:22, no_motion 10m
Tue Aug 4 10:12, status motion
Tue Aug 4 10:11, status motion
Tue Aug 4 10:09, status motion
Tue Aug 4 10:06, status motion
Tue Aug 4 10:06, no_motion 10m
Tue Aug 4 09:56, status motion
Tue Aug 4 09:55, status motion
Tue Aug 4 09:52, status motion
Tue Aug 4 09:49, status motion
Tue Aug 4 09:42, status motion
Tue Aug 4 09:33, no_motion 10m
Tue Aug 4 09:24, status motion
Tue Aug 4 09:20, status motion
Tue Aug 4 09:17, status motion
Tue Aug 4 09:16, status motion
Tue Aug 4 09:15, status motion
Tue Aug 4 09:14, status motion
Tue Aug 4 09:12, status motion
Tue Aug 4 09:11, status motion
Tue Aug 4 09:10, status motion
Tue Aug 4 09:09, status motion
Tue Aug 4 09:02, status motion
Tue Aug 4 08:57, status motion
Tue Aug 4 08:56, status motion
Tue Aug 4 08:55, status motion
Tue Aug 4 08:52, status motion
Tue Aug 4 08:51, status motion
Tue Aug 4 08:50, status motion
Tue Aug 4 08:49, status motion
Tue Aug 4 08:48, status motion
Tue Aug 4 08:46, status motion
Tue Aug 4 08:45, status motion
Tue Aug 4 08:42, status motion
Tue Aug 4 08:40, status motion
Tue Aug 4 08:39, status motion
Tue Aug 4 08:38, status motion
Tue Aug 4 08:37, status motion
Tue Aug 4 08:36, status motion
Tue Aug 4 08:35, status motion
Tue Aug 4 08:34, status motion
Tue Aug 4 08:33, status motion
Tue Aug 4 08:32, status motion
Tue Aug 4 08:31, status motion
Tue Aug 4 08:30, status motion
Tue Aug 4 08:28, status motion
Tue Aug 4 08:27, status motion
Tue Aug 4 08:23, status motion
Tue Aug 4 08:22, status motion
Tue Aug 4 08:20, status motion
Tue Aug 4 08:14, status motion
Tue Aug 4 08:11, status motion
Tue Aug 4 08:10, status motion
Tue Aug 4 08:09, status motion
Tue Aug 4 07:58, no_motion 30m
Tue Aug 4 07:48, no_motion 20m
Tue Aug 4 07:38, no_motion 10m
Tue Aug 4 07:28, status motion
Tue Aug 4 07:23, status motion
Tue Aug 4 07:22, status motion
Tue Aug 4 07:21, status motion
Tue Aug 4 07:20, status motion
Tue Aug 4 07:19, status motion
Tue Aug 4 06:30, no_motion 30m
Tue Aug 4 06:20, no_motion 20m
Tue Aug 4 06:10, no_motion 10m
Tue Aug 4 06:00, status motion
Tue Aug 4 05:56, status motion
Tue Aug 4 05:52, status motion
Tue Aug 4 05:51, status motion
Tue Aug 4 05:50, status motion
Tue Aug 4 05:49, status motion
Tue Aug 4 05:46, status motion
Tue Aug 4 05:45, status motion
Tue Aug 4 05:43, status motion
Mon Aug 3 23:43, no_motion 30m
Mon Aug 3 23:33, no_motion 20m
Mon Aug 3 23:23, no_motion 10m
Mon Aug 3 23:13, status motion
Mon Aug 3 23:06, no_motion 20m
Mon Aug 3 22:56, no_motion 10m
Mon Aug 3 22:46, status motion
Mon Aug 3 22:45, status motion
Mon Aug 3 22:43, status motion
Mon Aug 3 22:42, status motion
Mon Aug 3 22:41, status motion
Mon Aug 3 22:40, status motion
Mon Aug 3 22:39, status motion
Mon Aug 3 22:38, status motion
Mon Aug 3 22:30, status motion
Mon Aug 3 22:29, status motion
Mon Aug 3 22:29, no_motion 10m
Mon Aug 3 22:19, status motion
Mon Aug 3 22:18, status motion
Mon Aug 3 22:14, status motion
Mon Aug 3 22:13, status motion
Mon Aug 3 22:12, status motion
Mon Aug 3 22:11, status motion
Mon Aug 3 22:09, status motion
Mon Aug 3 22:03, no_motion 10m
Mon Aug 3 21:54, status motion
Mon Aug 3 21:31, no_motion 30m
Mon Aug 3 21:21, no_motion 20m
Mon Aug 3 21:11, no_motion 10m
Mon Aug 3 21:01, status motion
Mon Aug 3 20:59, status motion
Mon Aug 3 20:55, status motion
Mon Aug 3 20:54, status motion
Mon Aug 3 20:53, status motion
Mon Aug 3 20:52, status motion
Mon Aug 3 20:51, status motion
Mon Aug 3 20:50, status motion
Mon Aug 3 20:47, status motion
Mon Aug 3 20:33, no_motion 30m
Mon Aug 3 20:23, no_motion 20m
Mon Aug 3 20:13, no_motion 10m
Mon Aug 3 20:03, status motion
Mon Aug 3 20:02, no_motion 10m
Mon Aug 3 19:52, status motion
Mon Aug 3 19:50, no_motion 10m
Mon Aug 3 19:40, status motion
Mon Aug 3 19:39, no_motion 10m
Mon Aug 3 19:29, status motion
Mon Aug 3 19:27, status motion
Mon Aug 3 19:26, status motion
Mon Aug 3 19:19, status motion
Mon Aug 3 19:18, status motion
Mon Aug 3 19:17, status motion
Mon Aug 3 19:16, status motion
Mon Aug 3 19:15, status motion
Mon Aug 3 19:13, status motion
Mon Aug 3 19:12, status motion
Mon Aug 3 19:08, status motion
Mon Aug 3 19:05, status motion
Mon Aug 3 19:04, status motion
Mon Aug 3 19:03, status motion
Mon Aug 3 19:02, status motion
Mon Aug 3 19:01, status motion
Mon Aug 3 19:00, status motion
Mon Aug 3 18:59, status motion
Mon Aug 3 18:58, status motion
Mon Aug 3 18:56, status motion
Mon Aug 3 18:55, status motion
Mon Aug 3 18:54, status motion
Mon Aug 3 18:53, status motion
Mon Aug 3 18:52, status motion
Mon Aug 3 18:51, status motion
Mon Aug 3 18:50, status motion
Mon Aug 3 18:49, status motion
Mon Aug 3 18:48, status motion
Mon Aug 3 18:47, status motion
Mon Aug 3 18:46, status motion
Mon Aug 3 18:45, status motion
Mon Aug 3 18:38, status motion
Mon Aug 3 18:37, status motion
Mon Aug 3 18:36, status motion
Mon Aug 3 18:31, status motion
Mon Aug 3 18:31, no_motion 10m
Mon Aug 3 18:21, status motion
Mon Aug 3 18:20, status motion
Mon Aug 3 18:19, status motion
Mon Aug 3 18:18, status motion
Mon Aug 3 18:17, status motion
Mon Aug 3 18:16, status motion
Mon Aug 3 18:15, status motion
Mon Aug 3 18:14, status motion
Mon Aug 3 18:13, status motion
Mon Aug 3 18:12, status motion
Mon Aug 3 18:11, status motion
Mon Aug 3 18:09, status motion
Mon Aug 3 18:08, status motion
Mon Aug 3 18:07, status motion
Mon Aug 3 18:06, status motion
Mon Aug 3 18:05, status motion
Mon Aug 3 18:03, status motion
Mon Aug 3 18:02, status motion
Mon Aug 3 18:01, status motion
Mon Aug 3 18:00, no_motion 20m
Mon Aug 3 17:50, no_motion 10m
Mon Aug 3 17:40, status motion
Mon Aug 3 17:37, status motion
Mon Aug 3 17:36, status motion
Mon Aug 3 17:35, status motion
Mon Aug 3 17:34, status motion
Mon Aug 3 17:30, no_motion 20m
Mon Aug 3 17:20, no_motion 10m
Mon Aug 3 17:10, status motion
Mon Aug 3 17:00, no_motion 10m
Mon Aug 3 16:50, status motion
Mon Aug 3 16:49, status motion
Mon Aug 3 16:47, status motion
Mon Aug 3 16:40, status motion
Mon Aug 3 16:39, status motion
Mon Aug 3 16:35, status motion
Mon Aug 3 16:32, status motion
Mon Aug 3 16:31, status motion
Mon Aug 3 16:30, status motion
Mon Aug 3 15:47, no_motion 30m
Mon Aug 3 15:37, no_motion 20m
Mon Aug 3 15:27, no_motion 10m
Mon Aug 3 15:17, status motion
Mon Aug 3 15:16, status motion
Mon Aug 3 15:14, status motion
Mon Aug 3 15:13, status motion
Mon Aug 3 15:12, status motion
Mon Aug 3 15:07, status motion
Mon Aug 3 15:05, status motion
Mon Aug 3 15:04, status motion
Mon Aug 3 15:03, status motion
Mon Aug 3 14:55, status motion
Mon Aug 3 14:53, status motion
Mon Aug 3 14:51, status motion
Mon Aug 3 14:50, status motion
Mon Aug 3 14:49, status motion
Mon Aug 3 14:48, status motion
Mon Aug 3 14:36, no_motion 30m
Mon Aug 3 14:26, no_motion 20m
Mon Aug 3 14:16, no_motion 10m
Mon Aug 3 14:06, status motion
Mon Aug 3 13:58, status motion
Mon Aug 3 13:57, status motion
Mon Aug 3 13:56, status motion
Mon Aug 3 13:51, no_motion 20m
Mon Aug 3 13:41, no_motion 10m
Mon Aug 3 13:31, status motion
Mon Aug 3 13:30, status motion
Mon Aug 3 13:29, status motion
Mon Aug 3 13:25, status motion
Mon Aug 3 13:23, status motion
Mon Aug 3 13:22, status motion
Mon Aug 3 13:21, status motion
Mon Aug 3 13:20, status motion
Mon Aug 3 13:19, status motion
Mon Aug 3 13:17, status motion
Mon Aug 3 13:16, status motion
Mon Aug 3 13:12, status motion
Mon Aug 3 13:11, status motion
Mon Aug 3 13:09, status motion
Mon Aug 3 13:08, status motion
Mon Aug 3 13:07, status motion
Mon Aug 3 13:03, status motion
Mon Aug 3 13:02, status motion
Mon Aug 3 13:01, status motion
Mon Aug 3 13:00, status motion
Mon Aug 3 12:59, status motion
Mon Aug 3 12:56, no_motion 10m
Mon Aug 3 12:46, status motion
Mon Aug 3 12:45, status motion
Mon Aug 3 12:41, status motion
Mon Aug 3 12:40, status motion
Mon Aug 3 12:39, status motion
Mon Aug 3 12:38, status motion
Mon Aug 3 12:35, status motion
Mon Aug 3 12:34, status motion
Mon Aug 3 12:32, status motion
Mon Aug 3 12:31, status motion
Mon Aug 3 12:30, status motion
Mon Aug 3 12:29, status motion
Mon Aug 3 12:28, status motion
Mon Aug 3 12:27, status motion
Mon Aug 3 12:26, status motion
Mon Aug 3 12:25, status motion
Mon Aug 3 12:24, status motion
Mon Aug 3 12:23, status motion
Mon Aug 3 12:22, status motion
Mon Aug 3 12:21, status motion
Mon Aug 3 12:19, status motion
Mon Aug 3 12:18, status motion
Mon Aug 3 12:13, status motion
Mon Aug 3 12:12, status motion
Mon Aug 3 12:09, status motion
Mon Aug 3 12:03, status motion
Mon Aug 3 11:59, no_motion 10m
Mon Aug 3 11:49, status motion
Mon Aug 3 11:41, status motion
Mon Aug 3 11:40, status motion
Mon Aug 3 11:35, status motion
Mon Aug 3 11:32, no_motion 20m
Mon Aug 3 11:22, no_motion 10m
Mon Aug 3 11:12, status motion
Mon Aug 3 11:10, status motion
Mon Aug 3 11:09, status motion
Mon Aug 3 11:08, status motion
Mon Aug 3 11:05, status motion
Mon Aug 3 11:04, status motion
Mon Aug 3 11:01, status motion
Mon Aug 3 11:00, status motion
Mon Aug 3 10:58, status motion
Mon Aug 3 10:57, status motion
Mon Aug 3 10:54, no_motion 10m
Mon Aug 3 10:44, status motion
Mon Aug 3 10:34, status motion
Mon Aug 3 10:33, status motion
Mon Aug 3 10:32, status motion
Mon Aug 3 10:31, status motion
Mon Aug 3 10:26, status motion
Mon Aug 3 10:02, no_motion 30m
Mon Aug 3 09:52, no_motion 20m
Mon Aug 3 09:42, no_motion 10m
Mon Aug 3 09:32, status motion
Mon Aug 3 09:28, no_motion 20m
Mon Aug 3 09:18, no_motion 10m
Mon Aug 3 09:08, status motion
Mon Aug 3 09:00, no_motion 30m
Mon Aug 3 08:50, no_motion 20m
Mon Aug 3 08:40, no_motion 10m
Mon Aug 3 08:30, status motion
Mon Aug 3 08:29, status motion
Mon Aug 3 08:28, status motion
Mon Aug 3 08:26, status motion
Mon Aug 3 08:24, status motion
Mon Aug 3 08:23, status motion
Mon Aug 3 08:22, status motion
Mon Aug 3 08:21, status motion
Mon Aug 3 08:20, status motion
Mon Aug 3 08:19, status motion
Mon Aug 3 08:18, status motion
Mon Aug 3 08:17, status motion
Mon Aug 3 08:15, status motion
Mon Aug 3 08:10, status motion
Mon Aug 3 08:07, status motion
Mon Aug 3 08:01, no_motion 10m
Mon Aug 3 07:51, status motion
Mon Aug 3 07:50, status motion

s7 Alarm Arm
Sun Jul 12 16:02, click

Sun Jul 12 16:02, click
Mon Jun 29 18:28, click
Sun Jun 21 11:53, long_release
Sun Jun 21 11:53, long_press
Sat Jun 6 14:58, click
Sat Jun 6 14:58, click
Thu Jun 4 14:02, disarmed
Thu Jun 4 14:01, ARM..
Fri May 29 07:51, disarmed
Fri May 29 07:51, ARM..
Thu May 28 21:17, click
Mon May 18 10:33, click
Wed Feb 26 13:20, click
Wed Feb 26 13:20, click
Wed Feb 26 11:47, click
Wed Feb 26 11:46, click
Sun Feb 16 17:43, disarmed
Sun Feb 16 17:43, ARM..
Sat Feb 15 11:51, click
Wed Feb 12 12:35, click
Tue Feb 11 12:32, click
Sun Feb 9 11:28, click
Wed Jan 29 07:00, disarmed
Wed Jan 29 06:59, ARM..
Sat Jan 4 09:29, disarmed
Sat Jan 4 09:29, ARM..
Sat Jan 4 09:29, disarmed
Sat Jan 4 09:29, ARM..
Sat Jan 4 06:35, disarmed
Sat Jan 4 06:34, ARM..
Sat Jan 4 06:13, disarmed
Sat Jan 4 06:12, ARM..
Sat Jan 4 06:10, disarmed
Sat Jan 4 06:09, ARM..
Sat Jan 4 06:07, disarmed
Sat Jan 4 06:07, ARM..
Sat Jan 4 05:56, disarmed
Sat Jan 4 05:55, ARM..
Fri Jan 3 22:46, disarmed
Fri Jan 3 22:46, ARM..
Wed Jan 1 13:34, disarmed
Wed Jan 1 13:34, ARM..
Wed Jan 1 10:31, click
Tue Dec 31 19:29, disarmed
Tue Dec 31 19:29, ALARM
Tue Dec 31 16:39, ARM..
Tue Dec 31 16:05, disarmed
Tue Dec 31 15:46, ARM..
Mon Dec 30 16:05, disarmed
Mon Dec 30 15:54, ALARM
Mon Dec 30 15:53, ARM..
Mon Dec 30 15:49, disarmed
Mon Dec 30 15:19, ALARM
Mon Dec 30 15:15, ARM..
Mon Dec 30 15:15, disarmed
Mon Dec 30 15:04, ARM..
Mon Dec 30 00:16, disarmed
Sun Dec 29 18:17, ALARM
Sun Dec 29 18:15, ARM..
Sun Dec 29 17:58, disarmed
Sun Dec 29 17:58, ARM..
Sat Dec 28 16:37, disarmed
Sat Dec 28 16:37, ARM..
Tue Dec 24 11:56, disarmed
Tue Dec 24 11:56, ARM..
Tue Dec 24 11:56, click
Tue Dec 24 11:56, click
Tue Dec 24 11:56, click
Sun Dec 22 09:04, disarmed
Sat Dec 21 22:02, ARM..
Sat Dec 21 22:02, disarmed
Sat Dec 21 16:59, ALARM
Sat Dec 21 16:56, ARM..
Fri Dec 20 10:04, disarmed
Fri Dec 20 10:04, ALARM
Fri Dec 20 10:02, ARM..
Fri Dec 13 14:23, disarmed
Fri Dec 13 14:22, ALARM
Fri Dec 13 13:50, ARM..
Tue Dec 10 18:53, click
Sat Dec 7 12:32, click
Sat Dec 7 11:58, OFF
Sat Dec 7 11:57, ARM..
Wed Nov 27 18:24, OFF
Wed Nov 27 18:23, ARM..
Wed Nov 27 18:23, OFF
Wed Nov 27 18:22, ARM..
Mon Nov 25 14:37, OFF
Mon Nov 25 14:36, ARM..
Mon Nov 25 14:35, OFF
Mon Nov 25 14:35, ARM..
Mon Nov 25 14:34, OFF
Mon Nov 25 14:34, ARM..
Mon Nov 25 14:33, OFF
Mon Nov 25 14:33, ARM..
Mon Nov 25 14:32, OFF
Mon Nov 25 14:32, ARM..
Mon Nov 25 14:19, OFF
Mon Nov 25 14:18, ARM..
Thu Nov 21 15:46, click
Sat Nov 2 17:07, OFF
Sat Nov 2 17:07, ARM..
Fri Nov 1 11:34, ARM..
Fri Nov 1 11:34, OFF
Fri Nov 1 10:25, ARM..
Thu Oct 31 16:26, OFF
Thu Oct 31 14:58, ARM..
Thu Oct 31 14:58, ARM..
Thu Oct 31 08:53, OFF
Thu Oct 31 08:53, ARM..
Thu Oct 31 08:53, OFF
Thu Oct 31 08:52, ARM..
Wed Oct 30 12:54, OFF
Wed Oct 30 12:45, ARM..
Wed Oct 30 11:56, OFF
Wed Oct 30 11:51, ARM..
Wed Oct 30 11:45, OFF
Wed Oct 30 11:41, ARM..
Tue Oct 29 19:17, click
Tue Oct 29 19:17, long_press
Mon Oct 28 22:16, OFF
Mon Oct 28 22:15, ARM..
Mon Oct 28 21:38, OFF
Mon Oct 28 21:37, ARM..
Mon Oct 28 21:36, OFF
Mon Oct 28 21:36, ARM..
Mon Oct 28 21:03, OFF
Mon Oct 28 21:03, ARM..
Mon Oct 28 17:04, OFF
Mon Oct 28 17:02, double_click
Mon Oct 28 16:56, OFF
Mon Oct 28 16:55, double_click
Mon Oct 28 16:53, OFF
Mon Oct 28 16:51, double_click
Mon Oct 28 16:51, OFF
Mon Oct 28 16:50, double_click
Mon Oct 28 16:44, OFF
Mon Oct 28 16:43, double_click
Mon Oct 28 16:41, double_click
Mon Oct 28 16:40, double_click
Mon Oct 28 16:40, double_click
Mon Oct 28 16:39, double_click
Mon Oct 28 16:21, OFF
Mon Oct 28 16:20, double_click
Mon Oct 28 16:20, OFF
Mon Oct 28 16:20, double_click
Sun Oct 27 17:16, OFF
Sun Oct 27 17:15, double_click
Sun Oct 27 13:34, OFF
Sun Oct 27 13:33, double_click
Sun Oct 27 13:32, OFF
Sun Oct 27 13:32, double_click
Sun Oct 27 13:32, OFF
Sun Oct 27 13:32, double_click
Sun Oct 27 13:32, double_click
Sun Oct 27 13:24, OFF
Sun Oct 27 13:24, double_click
Sun Oct 27 13:23, OFF
Sun Oct 27 13:23, double_click
Sun Oct 27 13:22, OFF
Sun Oct 27 13:22, double_click
Sun Oct 27 13:21, OFF
Sun Oct 27 13:20, double_click
Sun Oct 27 13:20, double_click
Sun Oct 27 13:19, double_click
Sun Oct 27 13:17, double_click
Sun Oct 27 13:17, double_click
Sun Oct 27 13:17, double_click
Sun Oct 27 13:16, double_click
Sun Oct 27 13:06, double_click
Sun Oct 27 13:06, double_click
Sun Oct 27 13:06, double_click
Sun Oct 27 13:05, double_click
Sun Oct 27 13:05, double_click
Sun Oct 27 13:05, double_click
Sun Oct 27 13:03, double_click
Sun Oct 27 13:03, double_click
Sun Oct 27 12:59, double_click
Sun Oct 27 12:59, double_click
Sun Oct 27 12:58, double_click
Sun Oct 27 12:55, double_click
Sun Oct 27 12:54, double_click
Sun Oct 27 12:54, double_click
Sun Oct 27 12:03, double_click
Sun Oct 27 12:03, double_click
Sun Oct 27 12:02, double_click
Sun Oct 27 12:02, double_click
Sat Oct 26 07:04, double_click
Sat Oct 26 07:03, double_click
Sat Oct 26 06:58, double_click
Sat Oct 26 06:57, double_click
Fri Oct 25 15:48, double_click
Fri Oct 25 15:47, double_click
Fri Oct 25 15:46, double_click
Fri Oct 25 15:45, double_click
Fri Oct 25 15:43, double_click
Fri Oct 25 15:43, double_click
Fri Oct 25 15:42, double_click
Fri Oct 25 15:39, double_click
Fri Oct 25 15:38, double_click
Fri Oct 25 15:36, double_click
Fri Oct 25 15:36, double_click
Fri Oct 25 15:34, double_click
Fri Oct 25 12:06, double_click
Fri Oct 25 12:00, double_click
Fri Oct 25 11:40, double_click
Fri Oct 25 11:39, double_click
Fri Oct 25 11:39, click
Fri Oct 25 11:32, click
Fri Oct 25 11:30, click
Tue Jun 4 11:23, click
Wed May 29 12:46, click
Wed May 29 12:37, click
Wed May 29 11:52, click
Wed May 29 11:52, click
Wed May 29 11:46, click
Wed May 29 11:43, click
Wed May 29 11:41, click
Wed May 29 11:41, click
Wed May 29 11:40, click
Wed May 29 11:40, click
Wed May 29 11:40, click
Wed May 29 11:39, click
Wed May 29 11:39, click
Wed May 29 11:39, click
Wed May 29 11:39, click
Wed May 29 11:38, click
Wed May 29 11:38, click
Wed May 29 11:38, click
Wed May 29 11:38, click
Wed May 29 11:37, click
Wed May 29 11:37, click
Wed May 29 11:31, click
Wed May 29 11:26, click
Mon May 27 13:15, click
Sat May 25 15:45, double_click
Sat May 25 15:44, double_click
Sat May 25 15:43, double_click
Sat May 25 15:43, double_click
Sat May 25 15:43, click
Sat May 25 15:37, double_click
Sat May 25 15:37, double_click
Sat May 25 15:34, double_click
Sat May 25 15:34, double_click
Sat May 25 15:33, double_click
Sat May 25 15:33, double_click
Fri May 24 16:22, click
Fri May 24 16:00, click
Fri May 24 15:45, click
Fri May 24 15:37, click
Fri May 24 15:31, click
Fri May 24 15:30, click
Fri May 24 15:14, click
Fri May 24 15:08, click
Fri May 24 15:07, click
Sat Mar 16 12:08, click
Tue Mar 12 12:19, click
Sun Mar 3 10:15, click
Fri Jan 25 15:56, click
Fri Nov 16 15:53, double_click
Fri Nov 16 15:53, double_click
Mon Nov 12 16:22, click
Mon Nov 12 16:20, click
Sun Nov 11 16:39, double_click
Sun Nov 11 16:38, click
Sun Nov 11 16:38, long_press
Sun Nov 11 16:38, click
Sun Nov 11 16:38, long_press
Sun Nov 11 16:38, click
Sun Nov 11 16:38, click
Sun Nov 11 16:38, long_press
Sun Nov 11 16:38, click
Sun Nov 11 16:38, click
Sun Nov 11 16:38, click
Sun Nov 11 16:38, click
Sun Nov 11 16:38, click
Sun Nov 11 16:38, click
Sun Nov 11 16:38, click
Sun Nov 11 16:38, click
Sat Nov 10 07:36, double_click
Sat Nov 10 06:48, double_click
Sat Nov 10 06:47, double_click
Fri Nov 9 17:17, double_click
Fri Nov 9 17:16, double_click
Thu Oct 25 17:15, click
Sat Oct 20 12:06, double_click
Sat Oct 20 12:06, double_click
Sat Oct 20 00:29, double_click
Fri Oct 19 19:13, double_click
Fri Oct 19 19:09, click
Thu Oct 18 09:58, double_click
Thu Oct 18 09:56, double_click
Sat Sep 29 18:38, double_click
Sat Sep 29 18:37, double_click
Sat Sep 29 18:37, click
Sat Sep 29 18:37, click
Sun Sep 23 12:38, double_click
Sun Sep 23 12:38, double_click
Sun Sep 23 12:37, double_click
Sun Sep 23 12:37, click
Sat Sep 22 23:37, double_click
Sat Sep 22 23:37, click
Sat Sep 22 23:37, click
Sat Sep 22 17:22, double_click
Sat Sep 22 17:13, double_click
Sat Sep 22 17:13, double_click
Sun Sep 16 17:48, long_release
Sun Sep 16 17:48, long_press
Sun Sep 9 06:51, double_click
Sun Sep 9 06:51, double_click
Sun Sep 9 06:41, double_click
Sun Sep 9 06:41, double_click
Sat Sep 8 23:20, double_click
Sat Sep 8 13:31, double_click
Sat Sep 8 13:26, double_click
Sat Sep 8 13:26, double_click
Mon Sep 3 09:50, double_click
Mon Sep 3 09:49, double_click
Mon Sep 3 09:49, click
Mon Sep 3 09:49, long_press
Mon Sep 3 09:48, click
Mon Sep 3 09:47, click
Mon Sep 3 09:47, double_click
Mon Sep 3 09:47, long_release
Mon Sep 3 09:47, long_press
Mon Sep 3 09:45, double_click
Mon Sep 3 09:45, double_click
Mon Sep 3 09:45, double_click
Mon Sep 3 09:44, double_click
Fri Aug 17 10:59, click
Fri Aug 17 08:34, double_click
Fri Aug 17 08:32, double_click
Wed Aug 15 12:40, click
Wed Aug 15 10:29, double_click
Wed Aug 15 10:28, double_click
Wed Aug 15 10:28, click
Wed Aug 15 10:28, click
Wed Aug 15 10:28, click
Wed Aug 15 10:28, double_click
Wed Aug 15 10:26, double_click
Tue Aug 14 20:35, double_click
Tue Aug 14 20:35, double_click
Tue Aug 14 20:33, click
Tue Aug 14 17:21, double_click
Tue Aug 14 17:09, double_click
Tue Aug 14 17:04, double_click
Tue Aug 14 17:04, double_click
Tue Aug 14 17:04, click
Tue Aug 14 17:04, double_click
Wed May 30 19:10, click
Sat May 5 13:33, click
Fri May 4 06:34, click
Fri May 4 06:33, click
Thu May 3 16:55, click
Thu May 3 15:47, click
Thu May 3 15:47, click
Thu May 3 15:47, click
Thu May 3 15:47, click
Thu May 3 15:46, click
Thu May 3 15:46, click
Thu May 3 15:46, click
Thu May 3 15:46, click
Thu May 3 15:46, click
Thu May 3 15:45, click
Thu May 3 15:45, click
Thu May 3 15:26, click
Fri Apr 20 09:11, click
Fri Apr 13 16:02, double_click
Fri Apr 13 09:33, click
Fri Mar 16 10:05, click
Fri Mar 16 08:19, click
Fri Mar 16 07:55, click
Fri Mar 16 07:50, click
Fri Mar 16 07:48, click
Fri Mar 16 07:46, click
Thu Mar 15 16:28, click
Thu Mar 15 16:28, click
Mon Mar 5 16:53, click
Mon Mar 5 14:27, click
Mon Mar 5 14:24, click
Mon Mar 5 14:24, click
Tue Feb 20 06:27, click
Tue Feb 20 06:25, click
Tue Feb 20 06:15, click
Tue Feb 20 06:10, click
Mon Feb 19 22:08, click

s7 Rain Gauge mm/hr
Wed Aug 5 19:07:12, Rain 2.036

Wed Aug 5 19:07:12, Rain 2.036
Wed Aug 5 18:58:59, Rain 1.579
Wed Aug 5 18:48:21, Rain 1.877
Wed Aug 5 18:39:25, Rain 1.752
Wed Aug 5 18:29:52, Rain 0.457
Wed Aug 5 17:53:09, Rain 0.177
Wed Aug 5 16:18:22, Rain 0.107
Wed Aug 5 13:41:01, Rain 0.547
Wed Aug 5 13:10:21, Rain 2.950
Wed Aug 5 13:04:39, Rain 7.620
Wed Aug 5 13:02:27, Rain 4.298
Wed Aug 5 12:58:34, Rain 2.201
Wed Aug 5 12:50:56, Rain 5.527
Wed Aug 5 12:47:54, Rain 3.266
Wed Aug 5 12:42:46, Rain 6.489
Wed Aug 5 12:40:12, Rain 2.718
Wed Aug 5 12:34:01, Rain 3.658
Wed Aug 5 12:29:26, Rain 2.118
Wed Aug 5 12:21:31, Rain 2.191
Wed Aug 5 12:13:52, Rain 0.281
Wed Aug 5 11:14:11, Rain 4.122
Wed Aug 5 11:10:07, Rain 0.685
Wed Aug 5 10:45:40, Rain 0.134
Wed Aug 5 08:40:23, Rain 0.220
Wed Aug 5 07:24:07, Rain 1.429
Wed Aug 5 07:12:23, Rain 0.222
Wed Aug 5 05:56:53, Rain 0.101
Wed Aug 5 03:11:22, Rain 0.934
Wed Aug 5 02:53:25, Rain 0.045
Tue Aug 4 20:40:05, Rain 0.259
Tue Aug 4 19:35:24, Rain 0.964
Tue Aug 4 19:18:02, Rain 0.607
Tue Aug 4 18:50:23, Rain 3.331
Tue Aug 4 18:45:21, Rain 3.944
Tue Aug 4 18:41:06, Rain 2.661
Tue Aug 4 18:34:48, Rain 1.515
Tue Aug 4 18:23:45, Rain 3.011
Tue Aug 4 18:18:10, Rain 2.361
Tue Aug 4 18:11:04, Rain 0.042
Tue Aug 4 11:33:37, Rain 0.791
Tue Aug 4 11:12:25, Rain 0.438
Tue Aug 4 10:34:10, Rain 0.894
Tue Aug 4 10:15:24, Rain 0.629
Tue Aug 4 09:48:46, Rain 1.545
Tue Aug 4 09:37:55, Rain 0.461
Tue Aug 4 09:01:34, Rain 1.317
Tue Aug 4 08:48:51, Rain 3.810
Tue Aug 4 08:44:26, Rain 2.095
Tue Aug 4 08:36:27, Rain 1.592
Tue Aug 4 08:25:54, Rain 1.957
Tue Aug 4 08:17:21, Rain 2.191
Tue Aug 4 08:09:41, Rain 1.912
Tue Aug 4 08:00:55, Rain 0.826
Tue Aug 4 07:40:38, Rain 0.955
Tue Aug 4 07:23:05, Rain 1.431
Tue Aug 4 07:11:21, Rain 0.860
Tue Aug 4 06:51:51, Rain 0.748
Tue Aug 4 06:29:26, Rain 0.017
Mon Aug 3 14:12:15, Rain 1.909
Mon Aug 3 14:03:28, Rain 9.062
Mon Aug 3 14:01:38, Rain 13.779
Mon Aug 3 14:00:24, Rain 0.374
Mon Aug 3 13:15:37, Rain 0.983
Mon Aug 3 12:58:34, Rain 0.013
Sun Aug 2 15:03:55, Rain 0.105
Sun Aug 2 12:23:36, Rain 20.955
Sun Aug 2 12:22:47, Rain 40.234
Sun Aug 2 12:22:23, Rain 37.253
Sun Aug 2 12:21:55, Rain 40.234
Sun Aug 2 12:21:31, Rain 55.880
Sun Aug 2 12:21:13, Rain 83.820
Sun Aug 2 12:21:00, Rain 14.577
Sun Aug 2 12:19:51, Rain 8.981
Sun Aug 2 12:17:59, Rain 8.597
Sun Aug 2 12:16:02, Rain 0.362
Sun Aug 2 11:29:42, Rain 1.009
Sun Aug 2 11:13:05, Rain 5.467
Sun Aug 2 11:10:01, Rain 29.584
Sun Aug 2 11:09:27, Rain 50.292
Sun Aug 2 11:09:07, Rain 55.880
Sun Aug 2 11:08:49, Rain 43.732
Sun Aug 2 11:08:26, Rain 67.056
Sun Aug 2 11:08:11, Rain 45.720
Sun Aug 2 11:07:49, Rain 67.056
Sun Aug 2 11:07:34, Rain 55.880
Sun Aug 2 11:07:16, Rain 83.820
Sun Aug 2 11:07:04, Rain 67.056
Sun Aug 2 11:06:50, Rain 77.372
Sun Aug 2 11:06:36, Rain 91.440
Sun Aug 2 11:06:25, Rain 35.923
Sun Aug 2 11:05:58, Rain 13.779
Sun Aug 2 11:04:44, Rain 0.100
Sun Aug 2 08:17:47, Rain 0.047
Sun Aug 2 02:22:08, Rain 3.266
Sun Aug 2 02:16:59, Rain 5.588
Sun Aug 2 02:13:59, Rain 9.765
Sun Aug 2 02:12:16, Rain 5.158
Sun Aug 2 02:09:01, Rain 2.890
Sun Aug 2 02:03:14, Rain 0.483
Sun Aug 2 01:28:29, Rain 0.437
Sun Aug 2 00:50:06, Rain 0.230
Sat Aug 1 23:37:04, Rain 1.352
Sat Aug 1 23:24:40, Rain 1.131
Sat Aug 1 23:09:51, Rain 2.810
Sat Aug 1 23:03:54, Rain 3.445
Sat Aug 1 22:59:01, Rain 0.011
Fri Jul 31 22:28:16, Rain 0.352
Fri Jul 31 21:40:35, Rain 0.008
Thu Jul 30 12:34:13, Rain 0.646
Thu Jul 30 12:08:15, Rain 0.540
Thu Jul 30 11:37:11, Rain 0.543
Thu Jul 30 11:06:21, Rain 0.416
Thu Jul 30 10:26:01, Rain 1.688
Thu Jul 30 10:16:05, Rain 1.690
Thu Jul 30 10:06:10, Rain 0.957
Thu Jul 30 09:48:39, Rain 1.421
Thu Jul 30 09:36:51, Rain 1.417
Thu Jul 30 09:25:01, Rain 0.545
Thu Jul 30 08:54:18, Rain 0.226
Thu Jul 30 07:40:13, Rain 0.769
Thu Jul 30 07:18:26, Rain 0.513
Thu Jul 30 06:45:44, Rain 0.609
Thu Jul 30 06:18:13, Rain 0.005
Mon Jul 27 22:11:10, Rain 0.033
Mon Jul 27 13:50:01, Rain 0.665
Mon Jul 27 13:24:48, Rain 5.527
Mon Jul 27 13:21:46, Rain 5.952
Mon Jul 27 13:18:57, Rain 2.372
Mon Jul 27 13:11:53, Rain 1.264
Mon Jul 27 12:58:37, Rain 2.882
Mon Jul 27 12:52:48, Rain 2.356
Mon Jul 27 12:45:41, Rain 2.412
Mon Jul 27 12:38:44, Rain 7.396
Mon Jul 27 12:36:28, Rain 8.823
Mon Jul 27 12:34:34, Rain 7.620
Mon Jul 27 12:32:22, Rain 2.036
Mon Jul 27 12:24:08, Rain 3.057
Mon Jul 27 12:18:39, Rain 2.471
Mon Jul 27 12:11:52, Rain 4.859
Mon Jul 27 12:08:25, Rain 4.836
Mon Jul 27 12:04:58, Rain 13.779
Mon Jul 27 12:03:44, Rain 7.034
Mon Jul 27 12:01:21, Rain 8.823
Mon Jul 27 11:59:28, Rain 5.467
Mon Jul 27 11:56:24, Rain 11.302
Mon Jul 27 11:54:54, Rain 9.672
Mon Jul 27 11:53:10, Rain 10.369
Mon Jul 27 11:51:33, Rain 12.418
Mon Jul 27 11:50:12, Rain 13.592
Mon Jul 27 11:48:59, Rain 15.716
Mon Jul 27 11:47:54, Rain 15.013
Mon Jul 27 11:46:47, Rain 15.240
Mon Jul 27 11:45:41, Rain 10.160
Mon Jul 27 11:44:02, Rain 3.203
Mon Jul 27 11:38:48, Rain 4.722
Mon Jul 27 11:35:15, Rain 3.618
Mon Jul 27 11:30:37, Rain 2.697
Mon Jul 27 11:24:24, Rain 4.209
Mon Jul 27 11:20:25, Rain 1.856
Mon Jul 27 11:11:24, Rain 1.128
Mon Jul 27 10:56:32, Rain 1.705
Mon Jul 27 10:46:41, Rain 5.132
Mon Jul 27 10:43:25, Rain 1.003
Mon Jul 27 10:26:42, Rain 0.235
Mon Jul 27 09:15:17, Rain 0.794
Mon Jul 27 08:54:09, Rain 0.586
Mon Jul 27 08:25:34, Rain 0.563
Mon Jul 27 07:55:46, Rain 0.869
Mon Jul 27 07:36:29, Rain 1.050
Mon Jul 27 07:20:31, Rain 0.799
Mon Jul 27 06:59:31, Rain 1.144
Mon Jul 27 06:44:52, Rain 1.938
Mon Jul 27 06:36:14, Rain 3.234
Mon Jul 27 06:31:02, Rain 2.527
Mon Jul 27 06:24:24, Rain 1.644
Mon Jul 27 06:14:12, Rain 1.719
Mon Jul 27 06:04:27, Rain 1.638
Mon Jul 27 05:54:13, Rain 0.487
Mon Jul 27 05:19:48, Rain 1.151
Mon Jul 27 05:05:14, Rain 2.065
Mon Jul 27 04:57:08, Rain 1.737
Mon Jul 27 04:47:28, Rain 2.082
Mon Jul 27 04:39:25, Rain 2.817
Mon Jul 27 04:33:28, Rain 5.437
Mon Jul 27 04:30:23, Rain 5.080
Mon Jul 27 04:27:05, Rain 4.551
Mon Jul 27 04:23:25, Rain 5.132
Mon Jul 27 04:20:08, Rain 3.309
Mon Jul 27 04:15:05, Rain 5.848
Mon Jul 27 04:12:12, Rain 6.985
Mon Jul 27 04:09:48, Rain 13.411
Mon Jul 27 04:08:33, Rain 9.062
Mon Jul 27 04:06:42, Rain 11.974
Mon Jul 27 04:05:18, Rain 8.178
Mon Jul 27 04:03:15, Rain 2.149
Mon Jul 27 03:55:27, Rain 1.743
Mon Jul 27 03:45:50, Rain 6.366
Mon Jul 27 03:43:13, Rain 7.134
Mon Jul 27 03:40:51, Rain 7.034
Mon Jul 27 03:38:28, Rain 3.929
Mon Jul 27 03:34:12, Rain 6.661
Mon Jul 27 03:31:41, Rain 1.456
Mon Jul 27 03:20:10, Rain 0.716
Mon Jul 27 02:56:46, Rain 0.025
Sun Jul 26 15:52:23, Rain 0.011
Sat Jul 25 14:50:57, Rain 1.646
Sat Jul 25 14:40:46, Rain 0.044
Sat Jul 25 08:22:50, Rain 0.585
Sat Jul 25 07:54:11, Rain 1.829
Sat Jul 25 07:45:00, Rain 1.063
Sat Jul 25 07:29:14, Rain 0.781
Sat Jul 25 07:07:47, Rain 1.391
Sat Jul 25 06:55:43, Rain 2.384
Sat Jul 25 06:48:41, Rain 0.225
Sat Jul 25 05:34:06, Rain 0.665
Sat Jul 25 05:08:54, Rain 0.554
Sat Jul 25 04:38:41, Rain 1.126
Sat Jul 25 04:23:47, Rain 4.023
Sat Jul 25 04:19:37, Rain 5.132
Sat Jul 25 04:16:22, Rain 5.588
Sat Jul 25 04:13:21, Rain 4.531
Sat Jul 25 04:09:40, Rain 4.451
Sat Jul 25 04:05:53, Rain 2.841
Sat Jul 25 03:59:59, Rain 2.619
Sat Jul 25 03:53:35, Rain 4.174
Sat Jul 25 03:49:34, Rain 3.203
Sat Jul 25 03:44:20, Rain 0.681
Sat Jul 25 03:19:43, Rain 0.879
Sat Jul 25 03:00:38, Rain 3.331
Sat Jul 25 02:55:36, Rain 3.658
Sat Jul 25 02:51:01, Rain 2.091
Sat Jul 25 02:43:00, Rain 2.168
Sat Jul 25 02:35:16, Rain 6.889
Sat Jul 25 02:32:50, Rain 2.540
Sat Jul 25 02:26:14, Rain 0.824
Sat Jul 25 02:05:53, Rain 1.096
Sat Jul 25 01:50:35, Rain 0.764
Sat Jul 25 01:28:40, Rain 4.040
Sat Jul 25 01:24:30, Rain 5.619
Sat Jul 25 01:21:31, Rain 1.466
Sat Jul 25 01:10:05, Rain 1.646
Sat Jul 25 00:59:54, Rain 1.731
Sat Jul 25 00:50:14, Rain 4.191
Sat Jul 25 00:46:13, Rain 0.539
Sat Jul 25 00:15:07, Rain 1.278
Sat Jul 25 00:02:00, Rain 0.678
Fri Jul 24 23:37:17, Rain 3.884
Fri Jul 24 23:32:57, Rain 2.471
Fri Jul 24 23:26:11, Rain 3.153
Fri Jul 24 23:20:51, Rain 1.310
Fri Jul 24 23:08:03, Rain 1.308
Fri Jul 24 22:55:14, Rain 2.441
Fri Jul 24 22:48:22, Rain 4.531
Fri Jul 24 22:44:40, Rain 2.647
Fri Jul 24 22:38:20, Rain 2.323
Fri Jul 24 22:31:07, Rain 0.008
Thu Jul 23 11:58:41, Rain 0.900
Thu Jul 23 11:40:03, Rain 1.679
Thu Jul 23 11:30:04, Rain 4.790
Thu Jul 23 11:26:35, Rain 2.323
Thu Jul 23 11:19:21, Rain 4.836
Thu Jul 23 11:15:54, Rain 1.159
Thu Jul 23 11:01:25, Rain 5.350
Thu Jul 23 10:58:18, Rain 1.891
Thu Jul 23 10:49:25, Rain 2.020
Thu Jul 23 10:41:07, Rain 1.522
Thu Jul 23 10:30:07, Rain 1.050
Thu Jul 23 10:14:08, Rain 2.675
Thu Jul 23 10:07:52, Rain 3.592
Thu Jul 23 10:03:12, Rain 4.859
Thu Jul 23 09:59:45, Rain 4.040
Thu Jul 23 09:55:36, Rain 5.212
Thu Jul 23 09:52:23, Rain 5.379
Thu Jul 23 09:49:16, Rain 4.907
Thu Jul 23 09:45:51, Rain 2.057
Thu Jul 23 09:37:42, Rain 3.854
Thu Jul 23 09:33:21, Rain 2.318
Thu Jul 23 09:26:07, Rain 3.398
Thu Jul 23 09:21:12, Rain 1.803
Thu Jul 23 09:11:53, Rain 3.133
Thu Jul 23 09:06:32, Rain 1.630
Thu Jul 23 08:56:16, Rain 1.196
Thu Jul 23 08:42:14, Rain 0.492
Thu Jul 23 08:08:09, Rain 0.530
Thu Jul 23 07:36:31, Rain 2.841
Thu Jul 23 07:30:37, Rain 1.399
Thu Jul 23 07:18:39, Rain 1.533
Thu Jul 23 07:07:42, Rain 1.243
Thu Jul 23 06:54:13, Rain 1.454
Thu Jul 23 06:42:41, Rain 0.710
Thu Jul 23 06:19:05, Rain 1.980
Thu Jul 23 06:10:37, Rain 2.633
Thu Jul 23 06:04:16, Rain 1.688
Thu Jul 23 05:54:19, Rain 1.755
Thu Jul 23 05:44:46, Rain 1.508
Thu Jul 23 05:33:40, Rain 2.733
Thu Jul 23 05:27:32, Rain 2.127
Thu Jul 23 05:19:38, Rain 1.311
Thu Jul 23 05:06:51, Rain 1.562
Thu Jul 23 04:56:07, Rain 0.803
Thu Jul 23 04:35:14, Rain 0.924
Thu Jul 23 04:17:06, Rain 1.225
Thu Jul 23 04:03:25, Rain 3.021
Thu Jul 23 03:57:52, Rain 6.209
Thu Jul 23 03:55:10, Rain 5.437
Thu Jul 23 03:52:05, Rain 1.657
Thu Jul 23 03:41:58, Rain 3.143
Thu Jul 23 03:36:38, Rain 2.424
Thu Jul 23 03:29:44, Rain 4.392
Thu Jul 23 03:25:54, Rain 5.683
Thu Jul 23 03:22:57, Rain 7.678
Thu Jul 23 03:20:46, Rain 6.366
Thu Jul 23 03:18:08, Rain 6.531
Thu Jul 23 03:15:34, Rain 6.937
Thu Jul 23 03:13:09, Rain 5.132
Thu Jul 23 03:09:54, Rain 5.379
Thu Jul 23 03:06:46, Rain 4.722
Thu Jul 23 03:03:13, Rain 5.987
Thu Jul 23 03:00:25, Rain 9.672
Thu Jul 23 02:58:41, Rain 8.245
Thu Jul 23 02:56:39, Rain 6.706
Thu Jul 23 02:54:09, Rain 3.234
Thu Jul 23 02:48:58, Rain 2.182
Thu Jul 23 02:41:17, Rain 1.245
Thu Jul 23 02:27:49, Rain 0.043
Wed Jul 22 19:59:45, Rain 2.201
Wed Jul 22 19:52:07, Rain 2.323
Wed Jul 22 19:44:54, Rain 0.742
Wed Jul 22 19:22:19, Rain 5.266
Wed Jul 22 19:19:08, Rain 2.810
Wed Jul 22 19:13:10, Rain 1.752
Wed Jul 22 19:03:36, Rain 0.099
Wed Jul 22 16:14:39, Rain 2.599
Wed Jul 22 16:08:12, Rain 0.252
Wed Jul 22 15:01:36, Rain 0.277
Wed Jul 22 14:00:59, Rain 0.762
Wed Jul 22 13:38:59, Rain 0.514
Wed Jul 22 13:06:23, Rain 0.788
Wed Jul 22 12:45:07, Rain 0.878
Wed Jul 22 12:26:01, Rain 1.397
Wed Jul 22 12:14:01, Rain 0.833
Wed Jul 22 11:53:53, Rain 0.295
Wed Jul 22 10:57:05, Rain 1.409
Wed Jul 22 10:45:12, Rain 2.078
Wed Jul 22 10:37:07, Rain 2.318
Wed Jul 22 10:29:53, Rain 4.531
Wed Jul 22 10:26:12, Rain 4.007
Wed Jul 22 10:22:01, Rain 2.915
Wed Jul 22 10:16:15, Rain 3.048
Wed Jul 22 10:10:46, Rain 3.224
Wed Jul 22 10:05:33, Rain 3.039
Wed Jul 22 10:00:02, Rain 1.471
Wed Jul 22 09:48:38, Rain 2.718
Wed Jul 22 09:42:28, Rain 1.439
Wed Jul 22 09:30:49, Rain 0.088
Wed Jul 22 06:19:25, Rain 0.007
Mon Jul 20 12:55:56, Rain 0.236
Mon Jul 20 11:44:48, Rain 0.120
Mon Jul 20 09:24:56, Rain 0.017
Sun Jul 19 17:22:39, Rain 0.008
Sat Jul 18 07:13:24, Rain 0.596
Sat Jul 18 06:45:17, Rain 0.789
Sat Jul 18 06:24:02, Rain 0.929
Sat Jul 18 06:05:59, Rain 0.575
Sat Jul 18 05:36:50, Rain 1.032
Sat Jul 18 05:20:35, Rain 0.834
Sat Jul 18 05:00:29, Rain 0.601
Sat Jul 18 04:32:34, Rain 1.644
Sat Jul 18 04:22:23, Rain 0.626
Sat Jul 18 03:55:35, Rain 0.166
Sat Jul 18 02:14:44, Rain 0.051
Fri Jul 17 20:44:18, Rain 0.044
Fri Jul 17 14:21:38, Rain 0.574
Fri Jul 17 13:52:27, Rain 0.770
Fri Jul 17 13:30:41, Rain 0.243
Fri Jul 17 12:21:47, Rain 0.043
Fri Jul 17 05:49:52, Rain 0.006
Wed Jul 15 08:15:11, Rain 0.356
Wed Jul 15 07:28:02, Rain 0.900
Wed Jul 15 07:09:25, Rain 0.346
Wed Jul 15 06:20:57, Rain 0.247
Wed Jul 15 05:13:12, Rain 0.866
Wed Jul 15 04:53:49, Rain 0.008
Mon Jul 13 19:20:01, Rain 0.022
Mon Jul 13 06:51:55, Rain 0.618
Mon Jul 13 06:24:46, Rain 0.440
Mon Jul 13 05:46:41, Rain 0.801
Mon Jul 13 05:25:45, Rain 0.408
Mon Jul 13 04:44:37, Rain 0.615
Mon Jul 13 04:17:22, Rain 0.004
Fri Jul 10 10:45:33, Rain 0.022
Thu Jul 9 21:48:14, Rain 0.712
Thu Jul 9 21:24:43, Rain 1.150
Thu Jul 9 21:10:08, Rain 1.957
Thu Jul 9 21:01:33, Rain 3.698
Thu Jul 9 20:57:01, Rain 2.216
Thu Jul 9 20:49:27, Rain 3.991
Thu Jul 9 20:45:15, Rain 2.087
Thu Jul 9 20:37:13, Rain 1.586
Thu Jul 9 20:26:39, Rain 2.265
Thu Jul 9 20:19:16, Rain 0.954
Thu Jul 9 20:01:41, Rain 0.015
Thu Jul 9 01:31:01, Rain 0.479
Thu Jul 9 00:56:00, Rain 0.280
Wed Jul 8 23:56:02, Rain 0.677
Wed Jul 8 23:31:17, Rain 0.237
Wed Jul 8 22:20:37, Rain 0.115
Wed Jul 8 19:54:37, Rain 0.312
Wed Jul 8 19:00:49, Rain 0.413
Wed Jul 8 18:20:15, Rain 1.163
Wed Jul 8 18:05:50, Rain 0.005
Mon Jul 6 11:47:40, Rain 0.017
Sun Jul 5 19:22:13, Rain 1.113
Sun Jul 5 19:07:09, Rain 2.586
Sun Jul 5 19:00:40, Rain 0.338
Sun Jul 5 18:11:05, Rain 17.961
Sun Jul 5 18:10:09, Rain 14.369
Sun Jul 5 18:08:59, Rain 71.846
Sun Jul 5 18:08:45, Rain 62.865
Sun Jul 5 18:08:29, Rain 19.343
Sun Jul 5 18:07:37, Rain 0.495
Sun Jul 5 17:33:47, Rain 6.286
Sun Jul 5 17:31:06, Rain 3.468
Sun Jul 5 17:26:16, Rain 2.245
Sun Jul 5 17:18:48, Rain 0.096
Sun Jul 5 14:24:21, Rain 15.716
Sun Jul 5 14:23:17, Rain 11.302
Sun Jul 5 14:21:48, Rain 5.350
Sun Jul 5 14:18:40, Rain 12.573
Sun Jul 5 14:17:20, Rain 8.901
Sun Jul 5 14:15:27, Rain 0.290
Sun Jul 5 13:17:44, Rain 0.616
Sun Jul 5 12:50:30, Rain 2.245
Sun Jul 5 12:43:02, Rain 0.501
Sun Jul 5 12:09:37, Rain 2.104
Sun Jul 5 12:01:38, Rain 0.761
Sun Jul 5 11:39:37, Rain 0.286
Sun Jul 5 10:40:58, Rain 0.039
Sun Jul 5 03:34:12, Rain 13.779
Sun Jul 5 03:32:59, Rain 0.116
Sun Jul 5 01:08:12, Rain 0.211
Sat Jul 4 23:48:49, Rain 0.468
Sat Jul 4 23:12:59, Rain 0.827
Sat Jul 4 22:52:43, Rain 1.062
Sat Jul 4 22:36:56, Rain 1.313
Sat Jul 4 22:24:10, Rain 1.005
Sat Jul 4 22:07:30, Rain 0.983
Sat Jul 4 21:50:26, Rain 0.776
Sat Jul 4 21:28:50, Rain 0.284
Sat Jul 4 20:29:46, Rain 0.023
Sat Jul 4 08:18:28, Rain 0.101
Sat Jul 4 05:32:19, Rain 0.218
Sat Jul 4 04:15:25, Rain 1.044
Sat Jul 4 03:59:22, Rain 3.725
Sat Jul 4 03:54:53, Rain 4.531
Sat Jul 4 03:51:10, Rain 1.984
Sat Jul 4 03:42:43, Rain 1.057
Sat Jul 4 03:26:52, Rain 0.785
Sat Jul 4 03:05:30, Rain 1.622
Sat Jul 4 02:55:10, Rain 1.586
Sat Jul 4 02:44:35, Rain 0.758
Sat Jul 4 02:22:28, Rain 0.720
Sat Jul 4 01:59:11, Rain 1.385
Sat Jul 4 01:47:05, Rain 1.107
Sat Jul 4 01:31:56, Rain 1.905
Sat Jul 4 01:23:09, Rain 1.780
Sat Jul 4 01:13:43, Rain 1.849
Sat Jul 4 01:04:39, Rain 0.730
Sat Jul 4 00:41:41, Rain 1.859
Sat Jul 4 00:32:40, Rain 2.453
Sat Jul 4 00:25:50, Rain 0.750
Sat Jul 4 00:03:29, Rain 0.435
Fri Jul 3 23:24:57, Rain 1.240
Fri Jul 3 23:11:26, Rain 0.233
Fri Jul 3 21:59:23, Rain 0.747
Fri Jul 3 21:36:57, Rain 0.475
Fri Jul 3 21:01:41, Rain 1.330
Fri Jul 3 20:49:04, Rain 0.781
Fri Jul 3 20:27:36, Rain 1.636
Fri Jul 3 20:17:21, Rain 0.212
Fri Jul 3 18:58:20, Rain 0.080
Fri Jul 3 15:29:23, Rain 0.153
Fri Jul 3 13:39:32, Rain 2.874
Fri Jul 3 13:33:42, Rain 0.253
Fri Jul 3 12:27:20, Rain 0.346
Fri Jul 3 11:38:53, Rain 0.568
Fri Jul 3 11:09:23, Rain 1.357
Fri Jul 3 10:57:03, Rain 2.401
Fri Jul 3 10:50:03, Rain 3.712
Fri Jul 3 10:45:32, Rain 2.182
Fri Jul 3 10:37:52, Rain 2.465
Fri Jul 3 10:31:03, Rain 2.967
Fri Jul 3 10:25:24, Rain 3.255
Fri Jul 3 10:20:15, Rain 3.287
Fri Jul 3 10:15:09, Rain 3.899
Fri Jul 3 10:10:51, Rain 0.040
Fri Jul 3 03:09:12, Rain 5.322
Fri Jul 3 03:06:03, Rain 5.882
Fri Jul 3 03:03:13, Rain 3.492
Fri Jul 3 02:58:24, Rain 0.022
Thu Jul 2 13:59:12, Rain 0.025
Thu Jul 2 02:47:56, Rain 0.527
Thu Jul 2 02:16:07, Rain 0.500
Thu Jul 2 01:42:37, Rain 0.112
Wed Jul 1 23:12:51, Rain 0.063
Wed Jul 1 18:46:30, Rain 0.158
Wed Jul 1 17:00:15, Rain 0.707
Wed Jul 1 16:36:32, Rain 0.589
Wed Jul 1 16:08:05, Rain 0.039
Wed Jul 1 09:02:27, Rain 1.150
Wed Jul 1 08:47:52, Rain 0.233
Wed Jul 1 07:35:46, Rain 0.404
Wed Jul 1 06:54:19, Rain 0.121
Wed Jul 1 04:36:00, Rain 0.179
Wed Jul 1 03:02:07, Rain 0.969
Wed Jul 1 02:44:49, Rain 0.625
Wed Jul 1 02:17:59, Rain 0.434
Wed Jul 1 01:39:19, Rain 0.547
Wed Jul 1 01:08:40, Rain 1.031
Wed Jul 1 00:52:24, Rain 0.873
Wed Jul 1 00:33:12, Rain 0.051
Tue Jun 30 19:04:58, Rain 0.934
Tue Jun 30 18:47:01, Rain 1.270
Tue Jun 30 18:33:49, Rain 0.012
Mon Jun 29 19:08:33, Rain 2.127
Mon Jun 29 19:00:40, Rain 0.221
Mon Jun 29 17:44:43, Rain 1.545
Mon Jun 29 17:33:52, Rain 2.191
Mon Jun 29 17:26:13, Rain 0.037

s9 Front Door
Wed Aug 5 17:52:51, status close

Wed Aug 5 17:52:51, status close
Wed Aug 5 17:52:46, status open
Wed Aug 5 17:33:49, status close
Wed Aug 5 17:33:46, status open
Wed Aug 5 17:32:55, status close
Wed Aug 5 17:32:49, status open
Wed Aug 5 12:26:26, status close
Wed Aug 5 12:26:20, status open
Wed Aug 5 10:02:49, status close
Wed Aug 5 10:02:46, status open
Tue Aug 4 17:31:53, status close
Tue Aug 4 17:31:44, status open
Tue Aug 4 16:17:14, status close
Tue Aug 4 16:17:08, status open
Tue Aug 4 14:26:30, status close
Tue Aug 4 14:26:02, no_close 1m
Tue Aug 4 14:25:03, status open
Tue Aug 4 12:47:27, status close
Tue Aug 4 12:47:01, status open
Tue Aug 4 10:12:31, status close
Tue Aug 4 10:12:19, status open
Tue Aug 4 10:10:33, status close
Tue Aug 4 10:10:30, status open
Tue Aug 4 09:55:46, status close
Tue Aug 4 09:55:42, status open
Tue Aug 4 09:18:31, status close
Tue Aug 4 09:18:14, status open
Mon Aug 3 16:30:28, status close
Mon Aug 3 16:30:20, status open
Mon Aug 3 15:17:17, status close
Mon Aug 3 15:17:12, status open
Mon Aug 3 14:49:15, status close
Mon Aug 3 14:48:54, status open
Mon Aug 3 13:23:55, status close
Mon Aug 3 13:23:50, status open
Mon Aug 3 13:06:59, status close
Mon Aug 3 13:06:37, no_close 5m
Mon Aug 3 13:02:34, no_close 1m
Mon Aug 3 13:01:35, status open
Mon Aug 3 12:18:34, status close
Mon Aug 3 12:18:30, status open
Mon Aug 3 11:49:27, status close
Mon Aug 3 11:49:20, status open
Mon Aug 3 09:31:54, status close
Mon Aug 3 09:31:49, status open
Mon Aug 3 07:54:52, status close
Mon Aug 3 07:54:14, status open
Mon Aug 3 07:51:36, status close
Mon Aug 3 07:51:33, status open
Sun Aug 2 17:24:27, status close
Sun Aug 2 17:24:06, status open
Sun Aug 2 17:10:06, status close
Sun Aug 2 17:09:54, status open
Sun Aug 2 13:25:00, status close
Sun Aug 2 13:24:15, status open
Sun Aug 2 11:42:49, status close
Sun Aug 2 11:42:11, no_close 5m
Sun Aug 2 11:38:09, no_close 1m
Sun Aug 2 11:37:09, status open
Sun Aug 2 09:38:30, status close
Sun Aug 2 09:38:27, status open
Sun Aug 2 09:30:41, status close
Sun Aug 2 09:30:37, status open
Sun Aug 2 09:12:55, status close
Sun Aug 2 09:12:51, status open
Sun Aug 2 09:11:55, status close
Sun Aug 2 09:11:53, status open
Sat Aug 1 18:00:03, status close
Sat Aug 1 17:59:49, status open
Sat Aug 1 16:12:14, status close
Sat Aug 1 16:11:30, status open
Sat Aug 1 00:38:51, status close
Sat Aug 1 00:38:40, status open
Fri Jul 31 16:13:56, status close
Fri Jul 31 16:13:01, no_close 1m
Fri Jul 31 16:12:01, status open
Fri Jul 31 16:05:04, status close
Fri Jul 31 15:56:13, no_close 5m
Fri Jul 31 15:52:12, no_close 1m
Fri Jul 31 15:51:13, status open
Fri Jul 31 15:50:32, status close
Fri Jul 31 15:50:28, status open
Fri Jul 31 15:27:30, status close
Fri Jul 31 15:00:13, no_close 5m
Fri Jul 31 14:56:12, no_close 1m
Fri Jul 31 14:36:05, status close
Fri Jul 31 14:36:02, status open
Fri Jul 31 14:13:51, status close
Fri Jul 31 14:13:46, status open
Fri Jul 31 13:33:07, status close
Fri Jul 31 13:33:03, status open
Fri Jul 31 13:30:47, status close
Fri Jul 31 13:30:43, status open
Fri Jul 31 11:41:26, status close
Fri Jul 31 11:41:21, status open
Fri Jul 31 11:33:31, status close
Fri Jul 31 11:33:27, status open
Fri Jul 31 08:36:59, status close
Fri Jul 31 08:36:54, status open
Fri Jul 31 08:05:36, status close
Fri Jul 31 08:05:32, status open
Fri Jul 31 08:04:16, status close
Fri Jul 31 08:04:13, status open
Thu Jul 30 18:08:06, status close
Thu Jul 30 18:06:04, no_close 1m
Thu Jul 30 18:05:04, status open
Thu Jul 30 14:07:29, status close
Thu Jul 30 14:07:24, no_close 1m
Thu Jul 30 14:06:25, status open
Thu Jul 30 12:25:17, status close
Thu Jul 30 12:25:10, status open
Thu Jul 30 11:37:58, status close
Thu Jul 30 11:37:55, status open
Wed Jul 29 20:10:21, status close
Wed Jul 29 20:09:37, status open
Wed Jul 29 20:04:36, status close
Wed Jul 29 20:04:34, no_close 1m
Wed Jul 29 20:03:34, status open
Wed Jul 29 19:00:19, status close
Wed Jul 29 18:59:44, status open
Wed Jul 29 18:58:51, status close
Wed Jul 29 18:58:46, status open
Wed Jul 29 17:00:06, status close
Wed Jul 29 17:00:04, status open
Wed Jul 29 16:56:47, status close
Wed Jul 29 16:56:44, status open
Wed Jul 29 16:00:25, status close
Wed Jul 29 16:00:22, status open
Wed Jul 29 15:58:01, status close
Wed Jul 29 15:57:45, no_close 1m
Wed Jul 29 15:56:46, status open
Wed Jul 29 15:55:36, status close
Wed Jul 29 15:54:14, no_close 1m
Wed Jul 29 15:53:14, status open
Wed Jul 29 11:58:01, status close
Wed Jul 29 11:57:16, status open
Wed Jul 29 11:56:41, status close
Wed Jul 29 11:55:48, status open
Wed Jul 29 11:23:56, status close
Wed Jul 29 11:23:53, status open
Wed Jul 29 11:21:38, status close
Wed Jul 29 11:21:35, status open
Tue Jul 28 18:47:03, status close
Tue Jul 28 18:46:54, status open
Tue Jul 28 18:38:49, status close
Tue Jul 28 18:38:10, no_close 1m
Tue Jul 28 18:37:10, status open
Tue Jul 28 17:54:57, status open
Tue Jul 28 17:53:34, status close
Tue Jul 28 17:53:32, status open
Tue Jul 28 17:53:03, status close
Tue Jul 28 17:53:01, status open
Tue Jul 28 17:50:03, status close
Tue Jul 28 17:50:00, status open
Tue Jul 28 17:49:21, status close
Tue Jul 28 17:49:19, status open
Tue Jul 28 17:44:37, status close
Tue Jul 28 17:44:23, status open
Tue Jul 28 16:23:39, status close
Tue Jul 28 16:23:34, status open
Tue Jul 28 15:43:45, status close
Tue Jul 28 15:43:42, status open
Tue Jul 28 14:32:32, status close
Tue Jul 28 14:32:28, status open
Tue Jul 28 13:27:19, status close
Tue Jul 28 13:27:13, status open
Tue Jul 28 11:47:25, status close
Tue Jul 28 11:47:21, status open
Tue Jul 28 11:01:36, status close
Tue Jul 28 11:01:32, status open
Tue Jul 28 10:32:48, status close
Tue Jul 28 10:32:44, status open
Tue Jul 28 07:37:46, status close
Tue Jul 28 07:37:42, status open
Tue Jul 28 07:33:08, status close
Tue Jul 28 07:33:05, status open
Tue Jul 28 07:29:22, status close
Tue Jul 28 07:29:19, status open
Mon Jul 27 19:14:14, status close
Mon Jul 27 19:12:13, no_close 1m
Mon Jul 27 19:11:14, status open
Mon Jul 27 17:53:53, status close
Mon Jul 27 17:51:00, no_close 1m
Mon Jul 27 17:50:00, status open
Mon Jul 27 17:49:27, status close
Mon Jul 27 17:49:09, status open
Mon Jul 27 17:03:20, status close
Mon Jul 27 17:03:13, status open
Mon Jul 27 15:49:16, status close
Mon Jul 27 15:48:34, no_close 1m
Mon Jul 27 15:47:33, status open
Mon Jul 27 14:48:54, status close
Mon Jul 27 14:48:35, status open
Mon Jul 27 13:44:04, status close
Mon Jul 27 13:43:59, status open
Sun Jul 26 19:21:35, status close
Sun Jul 26 19:21:15, status open
Sun Jul 26 18:43:36, status close
Sun Jul 26 18:43:27, no_close 1m
Sun Jul 26 18:42:27, status open
Sun Jul 26 18:39:11, status close
Sun Jul 26 18:39:09, status open
Sun Jul 26 17:02:57, status close
Sun Jul 26 16:56:38, no_close 5m
Sun Jul 26 16:52:34, no_close 1m
Sun Jul 26 16:51:35, status open
Sun Jul 26 16:35:42, status close
Sun Jul 26 16:35:38, status open
Sun Jul 26 16:16:22, status close
Sun Jul 26 16:16:18, status open
Sun Jul 26 12:25:39, status close
Sun Jul 26 12:25:32, status open
Sun Jul 26 12:24:15, status close
Sun Jul 26 12:24:01, status open
Sun Jul 26 12:24:00, status close
Sun Jul 26 12:23:36, status open
Sun Jul 26 12:23:29, status close
Sun Jul 26 12:22:57, status open
Sun Jul 26 12:22:55, status close
Sun Jul 26 12:22:55, status open
Sun Jul 26 12:22:54, status close
Sun Jul 26 12:22:27, status open
Sun Jul 26 09:51:29, status close
Sun Jul 26 09:51:16, no_close 5m
Sun Jul 26 09:47:13, no_close 1m
Sun Jul 26 09:46:13, status open
Sun Jul 26 09:40:57, status close
Sun Jul 26 09:40:41, status open
Sun Jul 26 09:38:07, status close
Sun Jul 26 09:38:04, status open
Sun Jul 26 09:36:49, status close
Sun Jul 26 09:36:45, status open
Sat Jul 25 19:07:53, status close
Sat Jul 25 19:07:40, status open
Sat Jul 25 17:51:02, no_close 5m
Sat Jul 25 17:47:00, no_close 1m
Sat Jul 25 17:46:00, status open
Sat Jul 25 15:14:13, status close
Sat Jul 25 15:13:22, status open
Sat Jul 25 14:43:09, status close
Sat Jul 25 14:43:02, status open
Sat Jul 25 14:27:51, status close
Sat Jul 25 14:27:48, status open
Sat Jul 25 14:27:44, status close
Sat Jul 25 14:27:42, status open
Sat Jul 25 12:57:49, status close
Sat Jul 25 12:57:31, status open
Sat Jul 25 10:54:29, status close
Sat Jul 25 10:54:22, status open
Sat Jul 25 08:42:23, status close
Sat Jul 25 08:42:21, status open
Fri Jul 24 19:23:33, status close
Fri Jul 24 19:22:46, status open
Fri Jul 24 18:02:32, status close
Fri Jul 24 18:01:37, status open
Fri Jul 24 14:42:22, status close
Fri Jul 24 14:40:38, no_close 5m
Fri Jul 24 14:36:37, no_close 1m
Fri Jul 24 14:35:36, status open
Fri Jul 24 14:18:40, status close
Fri Jul 24 14:18:38, status open
Fri Jul 24 14:15:08, status close
Fri Jul 24 14:14:59, status open
Fri Jul 24 13:15:49, status close
Fri Jul 24 13:15:46, status open
Fri Jul 24 13:13:09, status close
Fri Jul 24 13:13:06, status open
Fri Jul 24 12:48:09, status close
Fri Jul 24 12:48:05, status open
Fri Jul 24 12:37:07, status close
Fri Jul 24 12:37:03, status open
Fri Jul 24 12:08:48, status close
Fri Jul 24 12:08:44, status open
Fri Jul 24 11:59:24, status close
Fri Jul 24 11:59:11, status open
Fri Jul 24 11:56:18, status close
Fri Jul 24 11:56:17, no_close 1m
Fri Jul 24 11:55:16, status open
Fri Jul 24 10:00:37, status close
Fri Jul 24 10:00:23, status open
Fri Jul 24 09:59:25, status close
Fri Jul 24 09:59:21, status open
Fri Jul 24 09:57:53, status close
Fri Jul 24 09:57:49, status open
Fri Jul 24 09:57:12, status close
Fri Jul 24 09:57:08, status open
Fri Jul 24 09:46:55, status close
Fri Jul 24 09:46:54, no_close 5m
Fri Jul 24 09:42:53, no_close 1m
Fri Jul 24 09:41:53, status open
Fri Jul 24 09:02:39, status close
Fri Jul 24 09:02:36, status open
Fri Jul 24 09:01:29, status close
Fri Jul 24 09:01:26, status open
Thu Jul 23 18:13:54, status close
Thu Jul 23 18:13:50, status open
Thu Jul 23 17:56:32, status close
Thu Jul 23 17:56:17, status open
Thu Jul 23 17:31:49, status close
Thu Jul 23 17:31:46, status open
Thu Jul 23 17:11:46, status close
Thu Jul 23 17:11:29, status open
Thu Jul 23 16:49:33, status close
Thu Jul 23 16:49:04, status open
Thu Jul 23 16:10:47, status close
Thu Jul 23 16:10:42, no_close 1m
Thu Jul 23 16:09:42, status open
Thu Jul 23 15:22:48, status close
Thu Jul 23 15:16:51, no_close 5m
Thu Jul 23 15:12:49, no_close 1m
Thu Jul 23 15:11:49, status open
Thu Jul 23 13:56:26, status close
Thu Jul 23 13:56:00, status open
Thu Jul 23 13:07:33, status close
Thu Jul 23 13:07:14, status open
Thu Jul 23 11:15:59, status close
Thu Jul 23 11:15:54, no_close 1m
Thu Jul 23 11:14:54, status open
Thu Jul 23 08:11:39, status close
Thu Jul 23 08:11:38, no_close 1m
Thu Jul 23 08:10:37, status open
Thu Jul 23 07:47:11, status close
Thu Jul 23 07:46:57, status open
Wed Jul 22 17:09:37, status close
Wed Jul 22 17:09:22, status open
Wed Jul 22 16:39:23, status close
Wed Jul 22 16:39:01, status open
Wed Jul 22 16:38:54, status close
Wed Jul 22 16:38:38, status open
Wed Jul 22 14:19:18, status close
Wed Jul 22 14:19:02, status open
Wed Jul 22 14:10:13, status close
Wed Jul 22 14:10:10, status open
Wed Jul 22 14:09:31, status close
Wed Jul 22 14:09:26, status open
Wed Jul 22 13:53:01, status close
Wed Jul 22 13:52:56, status open
Wed Jul 22 13:52:35, status close
Wed Jul 22 13:52:33, status open
Wed Jul 22 12:43:46, status close
Wed Jul 22 12:43:42, status open
Wed Jul 22 12:43:18, status close
Wed Jul 22 12:42:43, status open
Wed Jul 22 09:59:14, status close
Wed Jul 22 09:58:40, no_close 1m
Wed Jul 22 09:57:40, status open
Tue Jul 21 18:44:38, status close
Tue Jul 21 18:44:33, status open
Tue Jul 21 17:35:49, status close
Tue Jul 21 17:35:25, no_close 1m
Tue Jul 21 17:34:25, status open
Tue Jul 21 16:21:57, status close
Tue Jul 21 16:21:51, status open
Tue Jul 21 15:29:47, status close
Tue Jul 21 15:29:44, status open
Tue Jul 21 12:58:17, status close
Tue Jul 21 12:58:04, status open
Tue Jul 21 11:27:53, status close
Tue Jul 21 11:27:47, status open
Tue Jul 21 07:53:55, status close
Tue Jul 21 07:53:55, status open
Tue Jul 21 07:37:09, status close
Tue Jul 21 07:37:06, status open
Tue Jul 21 07:34:11, status close
Tue Jul 21 07:34:08, status open
Tue Jul 21 07:33:32, status close
Tue Jul 21 07:33:29, status open
Tue Jul 21 07:31:45, status close
Tue Jul 21 07:31:43, status open
Tue Jul 21 07:27:11, status close
Tue Jul 21 07:27:07, status open
Tue Jul 21 07:12:41, status close
Tue Jul 21 07:12:23, status open
Mon Jul 20 17:43:35, status close
Mon Jul 20 17:43:18, status open
Mon Jul 20 16:47:39, status close
Mon Jul 20 16:44:49, no_close 1m
Mon Jul 20 16:43:50, status open
Mon Jul 20 16:32:56, status close
Mon Jul 20 16:32:53, status open
Mon Jul 20 16:27:38, status close
Mon Jul 20 16:27:31, status open
Mon Jul 20 15:09:53, status close
Mon Jul 20 15:09:04, no_close 1m
Mon Jul 20 15:08:04, status open
Mon Jul 20 13:59:05, status close
Mon Jul 20 13:59:00, status open
Mon Jul 20 11:58:43, status close
Mon Jul 20 11:58:36, status open
Mon Jul 20 11:55:29, status close
Mon Jul 20 11:55:25, status open
Mon Jul 20 10:51:56, status close
Mon Jul 20 10:51:53, status open
Mon Jul 20 10:24:12, status close
Mon Jul 20 10:24:08, status open
Mon Jul 20 09:59:25, status close
Mon Jul 20 09:58:56, status open
Mon Jul 20 09:14:19, status close
Mon Jul 20 09:14:19, status open
Sun Jul 19 16:43:15, status close
Sun Jul 19 16:40:48, no_close 1m
Sun Jul 19 16:39:49, status open
Sun Jul 19 14:57:43, status close
Sun Jul 19 14:57:16, no_close 1m
Sun Jul 19 14:56:18, status open
Sun Jul 19 14:53:35, status close
Sun Jul 19 14:53:04, status open
Sun Jul 19 13:11:53, status close
Sun Jul 19 13:11:49, status open
Sat Jul 18 16:54:38, status close
Sat Jul 18 16:54:25, status open
Sat Jul 18 15:34:32, status close
Sat Jul 18 15:34:22, status open
Sat Jul 18 14:38:22, status close
Sat Jul 18 14:38:12, status open
Sat Jul 18 12:49:34, status close
Sat Jul 18 12:48:54, status open
Sat Jul 18 12:48:46, status close
Sat Jul 18 12:48:18, status open
Sat Jul 18 09:11:59, status close
Sat Jul 18 09:11:53, status open
Fri Jul 17 21:04:54, status close
Fri Jul 17 21:04:06, no_close 1m
Fri Jul 17 21:03:05, status open
Fri Jul 17 19:34:05, status close
Fri Jul 17 19:34:01, status open
Fri Jul 17 18:43:30, status close
Fri Jul 17 18:43:19, status open
Fri Jul 17 17:09:20, status close
Fri Jul 17 17:08:42, status open
Fri Jul 17 15:53:47, status close
Fri Jul 17 15:42:33, no_close 5m
Fri Jul 17 15:38:31, no_close 1m
Fri Jul 17 15:37:31, status open
Fri Jul 17 14:36:04, status close
Fri Jul 17 14:35:54, no_close 1m
Fri Jul 17 14:34:54, status open
Fri Jul 17 14:09:17, status close
Fri Jul 17 14:09:14, status open
Fri Jul 17 13:02:35, status close
Fri Jul 17 13:00:20, no_close 1m
Fri Jul 17 12:59:20, status open
Fri Jul 17 11:50:28, status close
Fri Jul 17 11:50:14, status open
Fri Jul 17 11:17:59, status close
Fri Jul 17 11:17:47, status open
Fri Jul 17 11:15:53, status close
Fri Jul 17 11:15:38, status open
Fri Jul 17 09:49:01, status close
Fri Jul 17 09:48:59, status open
Fri Jul 17 09:48:28, status close
Fri Jul 17 09:48:26, status open
Thu Jul 16 19:32:56, status close
Thu Jul 16 19:32:52, status open
Thu Jul 16 19:29:20, status close
Thu Jul 16 19:29:17, status open
Thu Jul 16 15:01:53, status close
Thu Jul 16 15:01:37, status open
Thu Jul 16 13:35:04, status close
Thu Jul 16 13:35:02, status open
Thu Jul 16 12:48:57, status close
Thu Jul 16 12:48:53, status open
Thu Jul 16 12:39:09, status close
Thu Jul 16 12:38:36, status open
Thu Jul 16 12:37:18, status close
Thu Jul 16 12:37:05, status open
Thu Jul 16 12:23:23, status close
Thu Jul 16 12:23:19, status open
Thu Jul 16 12:18:13, status close
Thu Jul 16 12:18:10, status open
Thu Jul 16 09:28:28, status close
Thu Jul 16 09:28:17, status open
Thu Jul 16 08:32:32, status close
Thu Jul 16 08:32:29, status open
Thu Jul 16 08:21:29, status close
Thu Jul 16 08:21:26, status open
Thu Jul 16 08:17:38, status close
Thu Jul 16 08:17:36, status open
Wed Jul 15 12:44:28, status close
Wed Jul 15 12:44:20, status open
Wed Jul 15 11:17:46, status close
Wed Jul 15 11:17:40, status open
Tue Jul 14 22:39:34, status close
Tue Jul 14 22:39:31, status open
Tue Jul 14 21:00:54, status close
Tue Jul 14 21:00:31, status open
Tue Jul 14 20:59:46, status close
Tue Jul 14 20:59:37, status open
Tue Jul 14 20:41:46, status close
Tue Jul 14 20:40:03, no_close 1m
Tue Jul 14 20:39:02, status open
Tue Jul 14 18:26:00, status close
Tue Jul 14 18:25:43, status open
Tue Jul 14 18:13:12, status close
Tue Jul 14 18:13:09, status open
Tue Jul 14 17:34:04, status close
Tue Jul 14 17:34:01, status open
Tue Jul 14 14:20:11, status close
Tue Jul 14 14:20:10, status open
Tue Jul 14 14:20:09, status close
Tue Jul 14 14:19:58, status open
Tue Jul 14 14:17:36, status close
Tue Jul 14 14:17:33, status open
Tue Jul 14 14:14:04, status close
Tue Jul 14 14:13:52, status open
Tue Jul 14 14:13:47, status close
Tue Jul 14 14:13:45, status open
Tue Jul 14 13:13:10, status close
Tue Jul 14 13:13:04, status open
Tue Jul 14 12:56:39, status close

Contact: HomeGuardMi at Gmail.com     HG ver Nov-17